[[{"header":{"parameterUnit":"m.s-1","parameterCategory":1,"la1":30.6,"la2":29.2853,"lo1":-89.7004,"lo2":-87.6739,"dy":0.0162,"dx":0.0183,"nx":112,"ny":82,"refTime":"2023-09-26T00:00:00:Z","depth":0,"parameterNumber":2,"parameterNumberName":"U-component_of_WINDS"},"data":[0.0,0.0,0.0,0.0,0.0,0.0,0.0,0.0,0.0,0.0,0.0,0.0,0.0,0.0,0.0,0.0,0.0,0.0,0.0,0.0,0.0,0.0,0.0,0.0,0.0,0.0,0.0,0.0,0.0,0.0,0.0,0.0,0.0,0.0,0.0,0.0,0.0,0.0,0.0,0.0,0.0,0.0,0.0,0.0,0.0,0.0,0.0,0.0,0.0,0.0,0.0,0.0,0.0,0.0,0.0,0.0,0.0,0.0,0.0,0.0,0.0,0.0,0.0,0.0,0.0,0.0,0.0,0.0,0.0,0.0,0.0,0.0,0.0,0.0,0.0,0.0,0.0,0.0,0.0,0.0,0.0,0.0,0.0,0.0,0.0,0.0,0.0,0.0,0.0,0.0,2.3981,2.6306,2.8491,2.9629,2.9214,2.8454,2.7261,2.559,0.0,0.0,0.0,0.0,0.0,0.0,0.0,0.0,0.0,0.0,0.0,0.0,0.0,0.0,0.0,0.0,0.0,0.0,0.0,0.0,0.0,0.0,0.0,0.0,0.0,0.0,0.0,0.0,0.0,0.0,0.0,0.0,0.0,0.0,0.0,0.0,0.0,0.0,0.0,0.0,0.0,0.0,0.0,0.0,0.0,0.0,0.0,0.0,0.0,0.0,0.0,0.0,0.0,0.0,0.0,0.0,0.0,0.0,0.0,0.0,0.0,0.0,0.0,0.0,0.0,0.0,0.0,0.0,0.0,0.0,0.0,0.0,0.0,0.0,0.0,0.0,0.0,0.0,0.0,0.0,0.0,0.0,0.0,0.0,0.0,0.0,0.0,0.0,0.0,0.0,0.0,0.0,0.0,0.0,0.0,0.0,0.0,0.0,0.0,0.0,0.0,0.0,0.0,0.0,2.5297,2.8693,2.9996,3.0442,3.0039,2.9269,2.7995,2.6013,0.0,0.0,0.0,0.0,0.0,0.0,0.0,0.0,0.0,0.0,0.0,0.0,0.0,0.0,0.0,0.0,0.0,0.0,0.0,0.0,0.0,0.0,0.0,0.0,0.0,0.0,0.0,0.0,0.0,0.0,0.0,0.0,0.0,0.0,0.0,0.0,0.0,0.0,0.0,0.0,0.0,0.0,0.0,0.0,0.0,0.0,0.0,0.0,0.0,0.0,0.0,0.0,0.0,0.0,0.0,0.0,0.0,0.0,0.0,0.0,0.0,0.0,0.0,0.0,0.0,0.0,0.0,0.0,0.0,0.0,0.0,0.0,0.0,0.0,0.0,0.0,0.0,0.0,0.0,0.0,0.0,0.0,0.0,0.0,0.0,0.0,0.0,0.0,0.0,0.0,0.0,0.0,0.0,0.0,0.0,0.0,0.0,0.0,0.0,0.0,0.0,0.0,0.0,2.502,2.7022,2.9354,3.0529,3.0864,3.0259,2.9452,2.8142,2.6149,2.4482,0.0,0.0,0.0,0.0,0.0,0.0,0.0,0.0,0.0,0.0,0.0,0.0,0.0,0.0,0.0,0.0,0.0,0.0,0.0,0.0,0.0,0.0,0.0,0.0,0.0,0.0,0.0,0.0,0.0,0.0,0.0,0.0,0.0,0.0,0.0,0.0,0.0,0.0,0.0,0.0,0.0,0.0,0.0,0.0,0.0,0.0,0.0,0.0,0.0,0.0,0.0,0.0,0.0,0.0,0.0,0.0,0.0,0.0,0.0,0.0,0.0,0.0,0.0,0.0,0.0,0.0,0.0,0.0,0.0,0.0,0.0,0.0,0.0,0.0,0.0,0.0,0.0,0.0,0.0,0.0,0.0,0.0,0.0,0.0,0.0,0.0,0.0,0.0,0.0,0.0,0.0,0.0,0.0,0.0,0.0,0.0,0.0,0.0,0.0,0.0,0.0,0.0,2.6828,2.8399,2.9629,3.0657,3.0956,3.0259,2.9299,2.794,2.6131,2.4764,0.0,0.0,0.0,0.0,0.0,0.0,0.0,0.0,0.0,0.0,0.0,0.0,0.0,0.0,0.0,0.0,0.0,0.0,0.0,0.0,0.0,0.0,0.0,0.0,0.0,0.0,0.0,0.0,0.0,0.0,0.0,0.0,0.0,0.0,0.0,0.0,0.0,0.0,0.0,0.0,0.0,0.0,0.0,0.0,0.0,0.0,0.0,0.0,0.0,0.0,0.0,0.0,0.0,0.0,0.0,0.0,0.0,0.0,0.0,0.0,0.0,0.0,0.0,0.0,0.0,0.0,0.0,0.0,0.0,0.0,0.0,0.0,0.0,0.0,0.0,0.0,0.0,0.0,0.0,0.0,0.0,0.0,0.0,0.0,0.0,0.0,0.0,0.0,0.0,0.0,0.0,0.0,0.0,0.0,0.0,0.0,0.0,0.0,0.0,0.0,0.0,0.0,2.7225,2.881,3.002,3.0552,3.0662,3.0241,2.8785,2.7334,2.6094,2.4464,0.0,0.0,0.0,0.0,0.0,0.0,0.0,0.0,0.0,0.0,0.0,0.0,0.0,0.0,0.0,0.0,0.0,0.0,0.0,0.0,0.0,0.0,0.0,0.0,0.0,0.0,0.0,0.0,0.0,0.0,0.0,0.0,0.0,0.0,0.0,0.0,0.0,0.0,0.0,0.0,0.0,0.0,0.0,0.0,0.0,0.0,0.0,0.0,0.0,0.0,0.0,0.0,0.0,0.0,0.0,0.0,0.0,0.0,0.0,0.0,0.0,0.0,0.0,0.0,0.0,0.0,0.0,0.0,0.0,0.0,0.0,0.0,0.0,0.0,0.0,0.0,0.0,0.0,0.0,0.0,0.0,0.0,0.0,0.0,0.0,0.0,0.0,0.0,0.0,0.0,0.0,0.0,0.0,0.0,0.0,0.0,0.0,0.0,0.0,0.0,0.0,0.0,2.7392,2.8865,3.0075,3.0552,3.0516,2.9874,2.8583,2.7059,2.5352,0.0,0.0,0.0,0.0,0.0,0.0,0.0,0.0,0.0,0.0,0.0,0.0,0.0,0.0,0.0,0.0,0.0,0.0,0.0,0.0,0.0,0.0,0.0,0.0,0.0,0.0,0.0,0.0,0.0,0.0,0.0,0.0,0.0,0.0,0.0,0.0,0.0,0.0,0.0,0.0,0.0,0.0,0.0,0.0,0.0,0.0,0.0,0.0,0.0,0.0,0.0,0.0,0.0,0.0,0.0,0.0,0.0,0.0,0.0,0.0,0.0,0.0,0.0,0.0,0.0,0.0,0.0,0.0,0.0,0.0,0.0,0.0,0.0,0.0,0.0,0.0,0.0,0.0,0.0,0.0,0.0,0.0,0.0,0.0,0.0,0.0,0.0,0.0,0.0,0.0,0.0,0.0,0.0,0.0,0.0,0.0,0.0,0.0,0.0,0.0,0.0,0.0,2.6088,2.7521,2.881,2.9892,3.0272,3.0161,2.9482,2.8197,2.6673,2.4911,0.0,0.0,0.0,0.0,0.0,0.0,0.0,0.0,0.0,0.0,0.0,0.0,0.0,0.0,0.0,0.0,0.0,0.0,0.0,0.0,0.0,0.0,0.0,0.0,0.0,0.0,0.0,0.0,0.0,0.0,0.0,0.0,0.0,0.0,0.0,0.0,0.0,0.0,0.0,0.0,0.0,0.0,0.0,0.0,0.0,0.0,0.0,0.0,0.0,0.0,0.0,0.0,0.0,0.0,0.0,0.0,0.0,0.0,0.0,0.0,0.0,0.0,0.0,0.0,0.0,0.0,0.0,0.0,0.0,0.0,0.0,0.0,0.0,0.0,0.0,0.0,0.0,0.0,0.0,0.0,0.0,0.0,0.0,0.0,0.0,0.0,0.0,0.0,0.0,0.0,0.0,0.0,0.0,0.0,0.0,0.0,0.0,0.0,0.0,0.0,0.0,0.0,2.6541,2.7688,2.87,2.9519,2.9592,2.9445,2.9042,2.7508,2.6059,0.0,0.0,0.0,0.0,0.0,0.0,0.0,0.0,0.0,0.0,0.0,0.0,0.0,0.0,0.0,0.0,0.0,0.0,0.0,0.0,0.0,0.0,0.0,0.0,0.0,0.0,0.0,0.0,0.0,0.0,0.0,0.0,0.0,0.0,0.0,0.0,0.0,0.0,0.0,0.0,0.0,0.0,0.0,0.0,0.0,0.0,0.0,0.0,0.0,0.0,0.0,0.0,0.0,0.0,0.0,0.0,0.0,0.0,0.0,0.0,0.0,0.0,0.0,0.0,0.0,0.0,0.0,0.0,0.0,0.0,0.0,0.0,0.0,0.0,0.0,0.0,0.0,0.0,0.0,0.0,0.0,0.0,0.0,0.0,0.0,0.0,0.0,0.0,0.0,0.0,0.0,0.0,0.0,0.0,0.0,0.0,0.0,0.0,0.0,0.0,0.0,0.0,0.0,2.6541,2.7688,2.87,2.9519,2.9592,2.9335,2.8627,2.7361,2.5976,2.4477,0.0,0.0,0.0,0.0,0.0,0.0,0.0,0.0,0.0,0.0,0.0,0.0,0.0,0.0,0.0,0.0,0.0,0.0,0.0,0.0,0.0,0.0,0.0,0.0,0.0,0.0,0.0,0.0,0.0,0.0,0.0,0.0,0.0,0.0,0.0,0.0,0.0,0.0,0.0,0.0,0.0,0.0,0.0,0.0,0.0,0.0,0.0,0.0,0.0,0.0,0.0,0.0,0.0,0.0,0.0,0.0,0.0,0.0,0.0,0.0,0.0,0.0,0.0,0.0,0.0,0.0,0.0,0.0,0.0,0.0,0.0,0.0,0.0,0.0,0.0,0.0,0.0,0.0,0.0,0.0,0.0,0.0,0.0,0.0,0.0,0.0,0.0,0.0,0.0,0.0,0.0,0.0,0.0,0.0,0.0,0.0,0.0,0.0,0.0,0.0,0.0,0.0,2.6541,2.754,2.8417,2.906,2.928,2.9042,2.8234,2.7196,2.5921,2.4312,0.0,0.0,0.0,0.0,0.0,0.0,0.0,0.0,0.0,0.0,0.0,0.0,0.0,0.0,0.0,0.0,0.0,0.0,0.0,0.0,0.0,0.0,0.0,0.0,0.0,0.0,0.0,0.0,0.0,0.0,0.0,0.0,0.0,0.0,0.0,0.0,0.0,0.0,0.0,0.0,0.0,0.0,0.0,0.0,0.0,0.0,0.0,0.0,0.0,0.0,0.0,0.0,0.0,0.0,0.0,0.0,0.0,0.0,0.0,0.0,0.0,0.0,0.0,0.0,0.0,0.0,0.0,0.0,0.0,0.0,0.0,0.0,0.0,0.0,0.0,0.0,0.0,0.0,0.0,0.0,0.0,0.0,0.0,0.0,0.0,0.0,0.0,0.0,0.0,0.0,0.0,0.0,0.0,0.0,0.0,0.0,0.0,0.0,0.0,0.0,0.0,0.0,2.6541,2.7345,2.7958,2.8352,2.8718,2.8638,2.7867,2.7041,2.5902,2.4367,0.0,0.0,0.0,0.0,0.0,0.0,0.0,0.0,0.0,0.0,0.0,0.0,0.0,0.0,0.0,0.0,0.0,0.0,0.0,0.0,0.0,0.0,0.0,0.0,0.0,0.0,0.0,0.0,0.0,0.0,0.0,0.0,0.0,0.0,0.0,0.0,0.0,0.0,0.0,0.0,0.0,0.0,0.0,0.0,0.0,0.0,0.0,0.0,0.0,0.0,0.0,0.0,0.0,0.0,0.0,0.0,0.0,0.0,0.0,0.0,2.84,2.8207,0.0,0.0,0.0,0.0,0.0,0.0,0.0,0.0,0.0,0.0,0.0,0.0,0.0,0.0,0.0,0.0,0.0,0.0,0.0,0.0,0.0,0.0,0.0,0.0,0.0,0.0,0.0,0.0,0.0,0.0,0.0,0.0,0.0,0.0,0.0,0.0,0.0,0.0,0.0,0.0,2.6541,2.7345,2.7958,2.8352,2.8462,2.8315,2.783,2.6765,2.57,2.4728,2.3559,0.0,0.0,0.0,0.0,0.0,0.0,0.0,0.0,0.0,0.0,0.0,0.0,0.0,0.0,0.0,0.0,0.0,0.0,0.0,0.0,0.0,0.0,0.0,0.0,0.0,0.0,0.0,0.0,0.0,0.0,0.0,0.0,0.0,0.0,0.0,0.0,0.0,0.0,0.0,0.0,0.0,0.0,0.0,0.0,0.0,0.0,0.0,0.0,0.0,0.0,0.0,0.0,0.0,0.0,0.0,0.0,0.0,0.0,0.0,2.9768,2.8964,0.0,0.0,0.0,0.0,0.0,0.0,0.0,0.0,0.0,0.0,0.0,0.0,0.0,0.0,0.0,0.0,0.0,0.0,0.0,0.0,0.0,0.0,0.0,0.0,0.0,0.0,0.0,0.0,0.0,0.0,0.0,0.0,0.0,0.0,0.0,0.0,0.0,0.0,0.0,0.0,2.6586,2.7345,2.7958,2.8352,2.8572,2.8454,2.7848,2.6875,2.5866,2.4874,2.3779,0.0,0.0,0.0,0.0,0.0,0.0,0.0,0.0,0.0,0.0,0.0,0.0,0.0,0.0,0.0,0.0,0.0,0.0,0.0,0.0,0.0,0.0,0.0,0.0,0.0,0.0,0.0,0.0,0.0,0.0,0.0,0.0,0.0,0.0,0.0,0.0,0.0,0.0,0.0,0.0,0.0,0.0,0.0,0.0,0.0,0.0,0.0,0.0,0.0,0.0,0.0,0.0,0.0,3.2393,3.2518,3.2371,3.2988,3.347,3.3676,3.1529,3.0188,2.9487,2.9394,0.0,0.0,0.0,0.0,0.0,0.0,0.0,0.0,0.0,0.0,0.0,0.0,0.0,0.0,0.0,0.0,0.0,0.0,0.0,0.0,0.0,0.0,2.6855,2.6959,2.7207,2.7051,2.5503,0.0,0.0,0.0,0.0,0.0,0.0,0.0,0.0,0.0,0.0,0.0,2.6639,2.7354,2.7958,2.8352,2.8711,2.8601,2.7848,2.7077,2.6096,2.4985,2.4097,2.3285,0.0,0.0,0.0,0.0,0.0,0.0,0.0,0.0,0.0,0.0,0.0,0.0,0.0,0.0,0.0,0.0,0.0,0.0,0.0,0.0,0.0,0.0,0.0,0.0,0.0,0.0,0.0,0.0,0.0,0.0,0.0,0.0,2.819,2.8262,0.0,0.0,0.0,0.0,0.0,0.0,0.0,0.0,0.0,0.0,0.0,0.0,0.0,3.2303,3.3395,3.3602,3.4089,3.4914,3.4553,3.4544,3.4921,3.5133,3.514,3.4995,3.4987,0.0,3.2232,3.1701,0.0,0.0,0.0,0.0,0.0,0.0,0.0,0.0,0.0,0.0,0.0,0.0,0.0,0.0,0.0,0.0,0.0,0.0,0.0,0.0,0.0,0.0,2.8672,2.909,2.9227,2.9062,2.843,2.7435,2.642,2.5679,2.5542,2.5269,0.0,0.0,0.0,0.0,0.0,0.0,2.6827,2.7456,2.7958,2.8352,2.8443,2.8278,2.783,2.7077,2.6224,2.537,2.4544,2.3883,2.3352,2.268,0.0,0.0,0.0,0.0,0.0,0.0,0.0,0.0,0.0,0.0,0.0,0.0,0.0,0.0,0.0,0.0,0.0,0.0,0.0,0.0,0.0,0.0,0.0,0.0,0.0,0.0,0.0,0.0,0.0,2.8378,2.9467,2.9609,2.9899,2.9606,0.0,0.0,0.0,0.0,0.0,0.0,0.0,0.0,0.0,3.2999,3.3622,3.4437,3.5458,3.586,3.6428,3.7119,3.7178,3.73,3.7565,3.788,3.7956,3.785,3.7771,3.707,3.5902,3.373,3.2352,3.1518,0.0,0.0,0.0,0.0,3.0571,3.0581,3.0984,3.1051,3.0965,3.0906,0.0,0.0,0.0,0.0,0.0,0.0,0.0,2.8613,2.9324,2.9922,3.0488,3.0947,3.1064,3.0947,3.0469,2.9913,2.8976,2.7168,2.6816,2.6543,2.5664,2.5601,0.0,0.0,0.0,2.6574,2.725,2.7816,2.8307,2.8682,2.8718,2.8491,2.7848,2.7279,2.6508,2.5462,2.4856,2.425,2.3517,2.2931,2.2529,0.0,0.0,0.0,0.0,0.0,0.0,0.0,0.0,0.0,0.0,0.0,0.0,0.0,0.0,0.0,0.0,0.0,0.0,0.0,0.0,0.0,0.0,0.0,0.0,0.0,0.0,0.0,0.0,2.9514,3.0646,3.1046,3.1425,3.1129,0.0,0.0,0.0,0.0,0.0,0.0,3.2575,3.3224,3.3966,3.48,3.5767,3.6623,3.7333,3.7992,3.8581,3.9115,3.9451,3.9655,3.9726,4.0176,4.0332,4.0215,3.9961,3.957,3.8826,3.5766,3.3999,3.3242,3.2945,3.2596,3.2218,3.2374,3.236,3.2386,3.2701,3.2821,3.2804,3.2441,3.1836,3.1103,3.0341,0.0,0.0,0.0,0.0,3.0771,3.1504,3.2109,3.2617,3.3047,3.3176,3.3008,3.2441,3.2324,3.1504,2.8718,2.8171,2.7917,2.7057,2.6898,0.0,2.6467,2.6854,2.7316,2.7744,2.8165,2.8535,2.8968,2.9005,2.8674,2.7867,2.7518,2.6802,2.548,2.5113,2.4556,2.3706,2.3261,2.2858,2.2478,0.0,0.0,0.0,0.0,0.0,0.0,0.0,0.0,0.0,0.0,0.0,0.0,0.0,0.0,0.0,0.0,0.0,0.0,0.0,0.0,0.0,0.0,0.0,0.0,0.0,0.0,0.0,0.0,0.0,3.2622,3.2666,0.0,0.0,0.0,0.0,3.1325,3.2112,3.3152,3.4595,3.5824,3.6552,3.6757,3.8166,3.8955,3.9077,3.992,4.0605,4.1054,4.1074,4.1093,4.1132,4.1504,4.1484,4.1133,4.1504,4.1191,4.0215,3.7913,3.6412,3.5587,3.5056,3.4581,3.4178,3.4302,3.4354,3.4428,3.5034,3.4922,3.457,3.4551,3.3469,3.2042,3.1562,3.1357,0.0,0.0,3.2235,3.334,3.3821,3.4551,3.5312,3.5723,3.582,3.5586,3.4726,3.4531,3.3535,3.0165,2.95,2.9227,2.834,0.0,2.7768,2.7885,2.7714,2.7744,2.8281,2.837,2.8535,2.8968,2.9005,2.8674,2.7867,2.7775,2.7077,2.5499,2.5388,2.5003,2.4202,2.373,2.3279,2.2876,2.2455,0.0,0.0,0.0,0.0,0.0,0.0,0.0,0.0,0.0,0.0,0.0,0.0,0.0,0.0,0.0,0.0,0.0,0.0,0.0,0.0,0.0,0.0,0.0,0.0,0.0,0.0,0.0,0.0,3.3873,3.403,0.0,3.3218,3.3033,3.3007,3.3116,3.4431,3.5559,3.6254,3.7762,3.8672,3.8823,4.0128,4.0838,4.0879,4.1445,4.1973,4.2442,4.2442,4.2539,4.2812,4.2949,4.2949,4.2793,4.2676,4.2441,4.2051,4.0681,3.9149,3.7559,3.7055,3.6597,3.6282,3.6558,3.67,3.6779,3.7281,3.7359,3.7109,3.6543,3.5586,3.457,3.4141,3.3809,3.3633,3.3926,3.4531,3.5221,3.5957,3.6582,3.707,3.7172,3.7211,3.7012,3.6152,3.5742,3.5019,3.3223,3.2022,3.0996,3.018,2.9537,2.9089,2.8923,2.8904,2.8855,2.8803,2.9023,2.9133,2.9023,2.9005,2.8674,2.7867,2.7793,2.7114,2.5499,2.5388,2.504,2.4238,2.3767,2.3425,2.3279,2.2895,2.262,0.0,0.0,0.0,0.0,0.0,0.0,0.0,0.0,0.0,0.0,0.0,0.0,0.0,0.0,0.0,0.0,0.0,0.0,0.0,0.0,0.0,0.0,0.0,0.0,0.0,3.2479,3.4038,3.4848,3.5417,3.5528,3.5028,3.517,3.5267,3.5288,3.6683,3.7684,3.8015,3.9552,4.0442,4.0527,4.1777,4.2441,4.2441,4.3008,4.3437,4.373,4.373,4.3808,4.3945,4.3945,4.3848,4.3691,4.3418,4.3281,4.3242,4.2519,4.1387,4.0019,3.9297,3.8848,3.8633,3.8926,3.9023,3.9062,3.9355,3.9295,3.8926,3.8359,3.7598,3.6836,3.6543,3.625,3.6074,3.6387,3.6777,3.7226,3.7793,3.8262,3.8557,3.8557,3.844,3.8164,3.7496,3.6973,3.6406,3.5527,3.4016,3.2583,3.1788,3.1146,3.0622,3.0288,3.0125,2.9923,2.9617,2.9709,2.9666,2.9262,2.9207,2.8821,2.7867,2.7793,2.7114,2.5499,2.5388,2.504,2.4238,2.3895,2.3651,2.3499,2.3114,2.2913,2.2913,0.0,0.0,0.0,0.0,0.0,0.0,0.0,0.0,0.0,0.0,0.0,0.0,0.0,0.0,0.0,0.0,0.0,0.0,0.0,0.0,0.0,0.0,0.0,3.1615,3.3388,3.4936,3.5582,3.685,3.7418,3.6846,3.732,3.7713,3.7891,3.8756,3.9473,3.9941,4.1152,4.1855,4.1855,4.3066,4.373,4.375,4.459,4.4977,4.4977,4.4977,4.4824,4.4414,4.4414,4.416,4.373,4.373,4.3711,4.3672,4.3262,4.3146,4.3029,4.1758,4.1269,4.1269,4.1289,4.1289,4.1269,4.1269,4.0722,3.9961,3.9941,3.9355,3.8689,3.8669,3.865,3.865,3.8669,3.8945,3.9258,3.9277,3.9609,3.9961,3.9941,3.9533,3.9065,3.8691,3.8186,3.7621,3.6855,3.5312,3.3856,3.3078,3.2651,3.23,3.1966,3.1326,0.0,3.0827,3.0479,3.0075,2.9684,2.9611,2.9115,2.794,2.783,2.7132,2.5535,2.5443,2.5076,2.4275,2.4238,2.403,2.3553,2.3169,2.2986,2.2986,0.0,0.0,0.0,0.0,0.0,0.0,0.0,0.0,0.0,0.0,0.0,0.0,0.0,0.0,0.0,0.0,0.0,0.0,0.0,0.0,0.0,3.1534,3.2969,3.3382,3.4985,3.6485,3.7429,3.824,3.8753,3.8915,3.9146,3.9401,3.9721,4.0566,4.1133,4.1269,4.2187,4.2871,4.3164,4.3848,4.4355,4.4648,4.486,4.4977,4.4977,4.4977,4.4918,4.4863,4.4863,4.4629,4.4199,4.4199,4.4023,4.3691,4.3574,4.373,4.3945,4.2949,4.2599,4.2598,4.2891,4.2812,4.2599,4.2599,4.2187,4.1621,4.1016,4.0702,4.039,3.9726,3.9531,3.959,3.9902,4.0293,4.0703,4.0996,4.1191,4.1113,4.0492,3.9777,3.9083,3.8305,3.737,3.6622,3.6393,3.544,3.4528,3.3989,3.3336,3.2786,3.2456,3.2232,3.2001,3.1708,3.1304,3.0932,3.0497,2.9959,2.9354,2.8729,2.8388,2.7655,2.6361,2.6288,2.5921,2.5095,2.5058,2.5003,2.4867,2.4757,2.4702,0.0,0.0,0.0,0.0,0.0,0.0,0.0,0.0,0.0,0.0,0.0,0.0,0.0,0.0,0.0,0.0,0.0,0.0,0.0,0.0,0.0,0.0,3.3243,3.4787,3.6044,3.6955,3.7843,3.8855,3.9741,4.0322,4.0615,4.1014,4.1328,4.1582,4.2402,4.2891,4.2891,4.3535,4.4004,4.4258,4.4707,4.5058,4.5293,4.5469,4.5566,4.5566,4.5566,4.5469,4.5293,4.5293,4.5058,4.4648,4.4473,4.4336,4.4238,4.4062,4.4258,4.459,0.0,0.0,0.0,0.0,4.4101,4.3867,4.3691,4.334,4.2851,4.2187,4.1836,4.1601,4.1113,4.0957,4.0977,4.1035,4.1229,4.1442,4.1495,4.1513,4.1277,4.0441,3.9598,3.8781,3.7914,3.6905,3.6107,3.5989,3.5273,0.0,3.4158,3.3856,3.3476,3.2981,3.2733,3.248,3.2083,3.1685,3.1215,3.0655,3.0167,2.9596,2.8858,2.8567,0.0,0.0,0.0,2.6582,2.5939,2.5737,0.0,0.0,0.0,2.5645,2.5645,2.5988,0.0,0.0,2.5201,2.5164,0.0,0.0,0.0,0.0,0.0,0.0,0.0,0.0,0.0,0.0,0.0,0.0,0.0,0.0,0.0,0.0,3.5073,3.666,3.9082,3.918,3.9277,4.0019,4.1191,4.1953,4.2012,4.2754,4.3283,4.3301,4.4023,4.4473,4.4473,4.4824,0.0,0.0,0.0,4.5703,4.5785,4.6113,4.6308,4.6308,4.6308,4.6113,4.5785,4.5785,4.5508,4.5078,4.4648,4.4687,4.4957,4.457,4.4668,4.5058,4.4687,4.4805,4.5176,4.5176,4.5094,4.5039,4.4609,0.0,0.0,4.3182,4.2731,4.2379,4.2281,4.2221,4.212,4.1735,4.1592,4.1471,4.1041,4.09,4.0668,3.9795,3.8933,3.8068,3.7169,3.63,3.561,3.5319,3.4625,3.3949,3.3578,3.384,3.3892,3.3268,3.2773,3.2351,3.1999,3.1577,3.1032,3.0326,3.0168,0.0,2.866,2.8529,2.8156,2.734,2.7204,2.7003,2.6683,2.6344,2.6169,2.6196,2.6196,2.6196,2.6196,2.6563,2.693,2.7261,2.6734,2.64,0.0,0.0,0.0,0.0,0.0,0.0,0.0,0.0,0.0,0.0,0.0,0.0,0.0,0.0,0.0,3.5857,3.7438,3.9004,4.0566,4.1308,4.1621,4.1445,4.2266,4.2969,4.3301,4.3828,4.4277,4.4629,4.4805,4.486,4.486,4.498,4.5176,4.5547,4.5625,4.584,4.6172,4.6269,4.6308,4.6308,4.6308,0.0,4.6191,4.6191,4.5957,4.5527,4.5098,4.4961,4.4957,4.457,4.4863,4.5547,4.5469,4.5683,4.6055,4.6055,4.584,4.5488,4.5058,4.4629,4.4057,4.293,4.2457,4.2281,4.1549,4.1111,0.0,4.0711,4.0391,4.0092,3.9922,3.9653,3.9104,3.797,3.7055,3.6063,3.4733,3.3713,3.3146,3.3157,3.2537,3.1976,3.1894,3.2184,3.2407,3.2261,3.1666,3.1217,3.115,3.0532,3.005,2.9919,2.9326,2.8962,2.908,2.878,2.836,2.7884,2.7225,2.6964,2.7166,2.7076,2.7181,2.7444,2.7444,2.7444,2.7444,2.7518,2.761,2.7665,2.7243,2.7188,0.0,0.0,0.0,0.0,0.0,0.0,0.0,0.0,0.0,0.0,0.0,3.1741,3.2774,0.0,3.6441,3.8044,3.9355,4.0644,4.1993,4.2676,4.2988,4.2773,4.334,4.3906,4.4316,4.4766,4.5117,4.5332,4.5547,4.5664,4.5664,4.5664,4.5762,4.5976,4.5996,4.6094,4.6308,4.6308,4.6308,4.6308,4.6308,4.6308,4.6308,4.6308,4.6074,4.5644,4.5215,4.5156,4.5351,4.5094,4.5131,4.5299,4.5061,4.5371,4.5958,4.5958,4.5691,4.5241,4.4756,4.4205,4.349,4.2381,4.169,4.1235,4.0556,4.0027,3.9605,3.9425,3.9014,3.8601,3.8323,3.8109,3.7607,3.6191,3.5376,3.4432,3.2778,3.1913,3.1441,3.1363,3.0858,3.0479,3.0631,3.0476,3.0434,3.0729,3.0341,2.9944,2.9717,2.9278,2.8809,2.8491,2.8225,2.8043,2.7913,2.785,2.7795,2.7806,2.7427,2.7431,2.7947,2.7753,2.7807,2.8151,2.7982,2.7903,2.7903,2.7903,2.7903,2.7903,2.7892,2.8097,0.0,0.0,0.0,0.0,0.0,0.0,0.0,3.067,3.1392,3.2186,3.3105,3.418,3.5469,3.6992,3.8555,4.0137,4.1035,4.1973,4.3047,4.3496,4.373,4.3828,4.4316,4.4785,4.5117,4.5547,4.5844,4.5844,4.6113,4.6308,4.6308,4.6308,4.6308,4.6308,4.6308,4.6308,4.6308,4.6308,4.6308,4.6308,4.6308,4.625,4.6191,4.6191,4.5914,4.5398,4.4834,4.483,4.5135,4.4993,4.4719,4.444,4.3978,4.4111,4.4643,4.4927,4.4794,4.4384,4.3821,4.3106,4.2265,4.1371,4.04,3.9551,3.9083,3.8554,3.8041,3.7586,3.7155,3.6681,3.6221,3.6042,3.566,3.4196,3.3542,3.2804,3.0992,3.036,3.0046,2.9808,2.9461,2.9282,2.9493,2.899,2.8712,2.9246,2.9025,2.8627,2.8185,2.7892,2.75,2.6944,2.7068,2.695,2.644,2.6584,2.6872,2.7175,2.7189,2.7474,2.8074,2.7846,2.7861,2.8188,2.7865,2.7734,2.7794,2.7754,2.7785,2.7933,2.825,2.8597,2.6488,2.7189,2.8499,2.9803,3.0854,3.1769,0.0,3.3524,3.4557,3.5829,3.6753,3.7754,3.9062,4.0098,4.1055,4.1952,4.2558,4.3047,4.3555,4.3672,4.3867,4.4277,4.5039,4.5547,4.5605,4.5976,4.623,4.623,4.6269,4.6308,4.6308,4.6308,4.6308,4.6308,4.6308,4.6308,4.6308,4.6308,4.6308,4.6308,4.6308,4.6113,4.5785,4.5785,4.5273,4.4418,4.3566,4.324,4.3167,4.2685,4.2671,4.2909,4.2443,4.1751,4.1256,4.2533,4.2998,4.281,4.195,4.1099,4.0298,3.9409,3.8278,3.7182,3.6707,3.5956,3.5174,3.4682,3.4244,3.3777,3.3293,3.2997,3.2598,3.1669,3.125,3.0646,2.9216,2.8841,2.8738,2.8561,2.8371,2.8253,2.8281,2.8132,2.8161,2.869,2.8204,2.7544,2.6965,2.6612,2.6322,2.6071,2.581,2.5655,2.5697,2.5685,2.5699,2.5716,2.5714,2.5912,2.628,2.6535,2.6837,2.7154,2.6852,2.6794,2.712,2.6814,2.6997,2.7627,2.7679,2.8066,2.7825,2.8634,2.9818,3.1396,3.2667,3.3843,3.4969,3.6333,3.7559,3.8379,3.9414,4.0351,4.0898,4.1699,4.2442,4.2754,4.3164,4.3496,4.3691,4.3945,4.418,4.4375,4.4922,4.5293,4.5293,4.5683,4.5937,4.5937,4.6172,4.6191,4.5957,4.5937,4.582,4.5566,4.5566,4.5683,4.5937,4.5937,4.6055,4.6289,4.6055,4.571,4.5275,4.5004,4.4123,4.2742,4.21,4.1523,4.0999,4.0905,4.0455,3.9802,3.954,3.8831,3.8235,4.0577,4.1075,4.0515,3.9802,3.8986,3.8128,3.7071,3.6009,3.5033,3.4349,3.3718,3.3146,3.294,3.2543,3.2144,3.1937,3.1709,3.1264,3.0475,3.0081,2.9522,2.8153,2.7839,2.7702,2.7299,2.7304,2.7404,2.7621,2.773,2.7852,2.8085,2.7428,2.6804,2.6545,2.596,2.5468,2.5241,2.4929,2.4813,2.4899,2.4877,2.4887,2.4899,2.4901,2.5158,2.5738,2.5903,2.6133,2.6477,2.6116,2.5912,2.5898,2.5517,2.5484,2.58,2.6023,2.6486,2.9238,3.0351,3.168,3.3418,3.4902,3.6309,3.7789,3.9121,4.0254,4.084,4.168,4.2285,4.2168,4.2656,4.3127,4.3127,4.334,4.3574,4.3691,4.3906,4.4043,4.4043,4.4199,4.4274,4.4274,4.5019,4.5508,4.5508,4.5781,4.582,4.5508,4.5508,4.5351,4.4996,4.4892,4.502,4.5491,4.5232,4.5256,4.5546,4.5107,4.464,4.4046,4.3206,4.202,4.0525,3.9821,3.908,3.8462,3.8358,3.7839,3.7008,3.6773,3.619,3.5756,3.7913,3.8418,3.8021,3.7515,3.6727,3.5837,3.491,3.3917,3.301,3.2334,3.1804,3.139,3.135,3.107,3.0776,3.0693,3.0458,3.0125,2.9528,2.9199,2.8693,2.7631,2.7362,2.7162,2.66,2.668,2.6921,2.7255,2.7509,2.7722,2.7802,2.7215,2.6667,2.6426,2.5625,2.5002,2.4697,2.4422,2.4266,2.4232,2.4239,2.4247,2.4301,2.4339,2.4556,2.512,2.5149,2.5259,2.5528,2.5133,2.4916,2.4808,2.4323,2.425,2.4494,2.4709,2.5174,3.0586,3.2394,3.4407,3.6147,3.7812,3.9512,4.125,4.1992,4.2558,4.3418,4.3613,4.3516,4.3125,4.3066,4.3127,4.3127,4.3127,4.3242,4.3652,4.3359,4.3166,4.3166,4.2754,4.246,4.246,4.4001,4.4996,4.4996,4.5016,4.5016,4.4996,4.4996,4.4996,4.4977,4.4574,4.4573,4.5015,4.4127,4.3647,4.3665,4.3227,4.2585,4.1751,3.9969,3.8623,3.7645,3.628,3.5601,3.5459,3.4573,3.4518,3.5027,3.452,3.4155,3.3963,3.4056,3.4712,3.546,3.4946,3.4214,3.3478,3.3162,3.2211,3.1103,3.0756,3.0361,2.9905,2.9668,2.9588,2.9476,2.9138,2.8845,2.8674,2.8617,2.8419,2.8112,2.7749,2.7468,2.7215,2.6867,2.6774,2.6921,2.7255,2.7509,2.7789,2.8125,2.7898,2.7348,2.6493,2.5625,2.4957,2.4663,2.4369,2.4111,2.3852,2.3825,2.3825,2.3812,2.3882,2.3914,2.3948,2.4017,2.4068,2.4054,2.3711,2.3723,2.4042,2.3411,2.3587,2.4492,2.425,2.4456,3.257,3.4407,3.6245,3.793,3.9648,4.123,4.2383,4.3203,4.373,4.3711,4.3476,4.3066,4.2363,4.2012,4.1954,4.2187,4.2461,4.2793,4.3223,4.3205,4.3127,4.3127,4.2695,4.2382,4.2382,4.3476,4.4141,4.4141,4.4645,4.486,4.4629,4.4609,4.4346,4.3762,4.3281,4.2965,4.2825,4.218,4.1858,4.1789,4.0753,3.9652,3.846,3.7222,3.6161,3.5249,3.4463,3.3749,3.3161,3.3025,3.2892,3.2697,3.2724,3.2616,3.2421,3.2421,3.252,3.2621,3.2869,3.2706,3.2353,3.1519,3.0981,3.0573,3.0232,2.9914,2.9606,2.9513,2.9339,2.9121,2.9028,2.8775,2.8604,2.8604,2.8406,2.8098,2.7762,2.7468,2.7215,2.6881,2.6787,2.6854,2.6961,2.7375,2.7802,2.8138,2.7764,2.7161,2.648,2.5998,2.5583,2.5213,2.513,2.4877,2.4382,2.4342,2.4182,2.383,2.3816,2.3739,2.3501,2.3533,2.3453,2.3283,2.3175,2.3059,2.2955,2.2558,2.2624,2.3109,2.2819,2.3165,3.4277,3.6269,3.8223,3.9922,4.1308,4.2519,4.3535,4.3965,4.4023,4.3574,4.291,4.209,4.1055,4.0412,4.0238,4.0783,4.1112,4.1555,4.2289,4.227,4.2173,4.2173,4.1787,4.1514,4.1468,4.2142,4.2746,4.321,4.391,4.4159,4.372,4.3533,4.3189,4.261,4.184,4.1286,4.0944,3.998,3.9218,3.868,3.7671,3.6633,3.5624,3.4856,3.3996,3.3073,3.2587,3.1981,3.1299,3.1494,3.1398,3.1121,3.1465,3.1509,3.137,3.1476,3.1316,3.1136,3.1556,3.1669,3.146,3.0652,3.04,3.0333,2.9887,2.9633,2.9446,2.9232,2.9032,2.8815,2.8751,2.8577,2.8444,2.8444,2.8326,2.8138,2.7938,2.767,2.7335,2.7041,2.6894,2.6787,2.6787,2.7308,2.7802,2.8138,2.7777,2.7282,2.676,2.6399,2.6038,2.5705,2.5571,2.5358,2.4946,2.4813,2.4636,2.4298,2.4048,2.3794,2.35,2.3345,2.318,2.2907,2.2893,2.28,2.2579,2.2285,2.2285,2.2565,2.2271,2.2526,3.5879,3.8105,4.043,4.2069,4.2851,4.3496,4.4707,4.4297,4.3516,4.3047,4.1934,4.0586,3.9277,3.8362,3.8088,3.8858,3.9109,3.9636,4.0863,4.0653,4.0367,4.0386,4.0028,3.9775,3.9711,4.0157,4.0893,4.2108,4.2694,4.2777,4.2318,4.1882,4.1612,4.1528,4.0282,3.9524,3.934,3.7496,3.5914,3.4586,3.4177,3.3733,3.3249,3.2808,3.2115,3.1182,3.075,3.0303,2.9913,2.9913,3.0087,3.044,3.0662,3.0782,3.0822,3.1102,3.1009,3.0782,3.1062,3.0982,3.0702,3.0453,3.0346,3.0239,2.9633,2.9446,2.9325,2.8764,2.8591,2.8511,2.8259,2.8179,2.8179,2.8179,2.8179,2.8179,2.8179,2.7938,2.7589,2.7362,2.7014,2.676,2.6814,2.7295,2.7776,2.8112,2.7938,2.7615,2.7362,2.6774,2.6306,2.6065,2.5732,2.5558,2.5531,2.5277,2.5117,2.5077,2.4556,2.4102,2.3817,2.35,2.3193,2.2907,2.2893,2.2893,2.2893,2.2565,2.2565,2.2893,2.2552,2.2579,3.8769,4.0508,4.2129,4.3535,4.4219,4.4531,4.4551,4.3613,4.2421,4.1387,3.9629,3.7916,3.6677,3.6023,3.5776,3.603,3.6846,3.7766,3.8684,3.8716,3.8712,3.9001,3.8595,3.8316,3.8303,3.8971,3.9396,3.936,4.072,4.1318,4.0855,4.0711,4.0204,3.9186,3.8503,3.7464,3.6046,3.4514,3.3368,3.2704,3.2586,3.2115,3.1315,3.1196,3.0794,3.0272,3.0137,3.0003,2.9913,2.9913,3.0087,3.0413,3.0493,3.0595,3.0795,3.0875,3.0581,3.0154,3.0221,3.0207,3.0087,2.9806,2.9553,2.9352,2.9148,2.9005,2.8804,2.8644,2.8444,2.8286,2.8205,2.8179,2.8179,2.8179,2.8179,2.8179,2.8179,2.7777,2.7403,2.7322,2.6854,2.6573,2.6787,2.7134,2.7523,2.7762,2.7978,2.7965,2.7629,2.7081,2.668,2.6613,2.6346,2.6079,2.5904,2.581,2.5583,2.5141,2.4981,2.4566,2.383,2.3736,2.3442,2.2907,2.2893,2.2893,2.2893,2.2565,2.2565,2.2893,2.2552,2.2579,4.0859,4.2305,4.3516,4.4433,4.457,4.4277,4.3672,4.2226,4.0586,3.9141,3.7109,3.5257,3.4082,3.3421,3.3169,3.364,3.4401,3.5264,3.6247,3.6494,3.6695,3.7032,3.6837,3.6713,3.6807,3.7215,3.7369,3.7112,3.8978,3.9841,3.9143,3.893,3.8375,3.743,3.6508,3.5162,3.3293,3.2277,3.1537,3.1106,3.1106,3.0794,3.0316,3.0316,3.0137,2.9913,2.9913,2.9913,2.9913,2.9913,3.002,3.0181,3.036,3.0381,3.0408,3.0408,3.0114,2.9713,2.9579,2.9446,2.9339,2.9299,2.9135,2.8975,2.8841,2.8738,2.8577,2.8444,2.8326,2.8179,2.8179,2.8179,2.8179,2.8179,2.8179,2.8152,2.8018,2.7724,2.7375,2.7121,2.6707,2.648,2.6734,2.7068,2.7403,2.7655,2.7991,2.8125,2.7951,2.7495,2.7108,2.6814,2.668,2.6466,2.6212,2.6065,2.5797,2.5304,2.5157,2.4727,2.3843,2.3803,2.3522,2.2907,2.2893,2.2893,2.2893,2.2699,2.2733,2.2893,2.2733,2.2699,4.2519,4.3652,4.4668,4.5019,4.4394,4.3437,4.2362,4.0449,3.8359,3.6489,3.4414,3.2606,3.1482,3.079,3.0642,3.1323,3.1864,3.26,3.3635,3.4016,3.44,3.4817,3.4914,3.5041,3.5296,3.5365,3.5396,3.5336,3.7215,3.8049,3.7275,3.6843,3.6367,3.5743,3.4391,3.2852,3.1226,3.075,3.0316,2.9913,2.9913,2.9913,2.9913,2.9873,2.986,2.986,2.982,2.982,2.986,2.986,2.9887,2.994,3.0207,3.0114,2.986,2.986,2.9646,2.9325,2.9072,2.8791,2.8591,2.8841,2.8908,2.8828,2.8617,2.8551,2.8484,2.8259,2.8179,2.8179,2.8179,2.8179,2.8179,2.8179,2.8152,2.8058,2.7749,2.7642,2.7415,2.6867,2.656,2.6466,2.672,2.7041,2.7389,2.7602,2.7965,2.8179,2.8179,2.7924,2.7482,2.6934,2.6841,2.6707,2.6413,2.6198,2.5904,2.5531,2.5277,2.4767,2.3843,2.3803,2.3522,2.2907,2.2893,2.2893,2.2893,2.2893,2.2893,2.2893,2.2893,2.2893,4.4238,4.5,4.5469,4.5547,4.4629,4.3203,4.125,3.8906,3.6391,3.3708,3.1784,3.0176,2.8835,2.8806,2.8818,2.8444,2.9447,3.0415,3.0833,3.1454,3.2143,3.3042,3.3398,3.3638,3.3911,3.4262,3.4447,3.4422,3.4816,3.5121,3.5355,3.5312,3.4684,3.3426,3.1996,3.1062,3.0705,3.0272,2.9958,2.9913,2.9913,2.9913,2.9913,2.9673,2.9566,2.9539,2.9299,2.9325,2.9566,2.9566,2.97,2.9927,2.9967,2.982,2.9566,2.9566,2.9219,2.8751,2.8698,2.8484,2.8312,2.8577,2.8511,2.8326,2.8286,2.8272,2.8259,2.8205,2.8179,2.8179,2.8179,2.8179,2.8179,2.8179,2.7991,2.7762,2.7709,2.7321,2.6867,2.6533,2.6426,2.64,2.6453,2.6907,2.7322,2.7376,2.7844,2.8179,2.8179,2.7924,2.7562,2.7269,2.6974,2.6707,2.6413,2.6346,2.6079,2.5545,2.5464,2.493,2.3857,2.3803,2.3522,2.2907,2.2893,2.2893,2.2893,2.2893,2.2893,2.2893,2.2893,2.2893,4.4801,4.5351,4.5523,4.4842,4.3682,4.1912,3.8948,3.6452,3.3914,3.092,2.9078,2.7679,2.6682,2.6589,2.6627,2.6534,2.743,2.8294,2.8739,2.9628,3.0555,3.1418,3.2065,3.2603,3.2888,3.3275,3.347,3.347,3.3205,3.3293,3.3778,3.3323,3.2616,3.1685,3.082,3.0264,3.0042,2.9628,2.9415,2.9415,2.9619,2.9686,2.9686,2.9553,2.9486,2.9472,2.9165,2.9081,2.9259,2.9419,2.9472,2.9428,2.9633,2.9513,2.9232,2.9085,2.8845,2.8591,2.8417,2.8312,2.8205,2.8366,2.8312,2.8179,2.8179,2.8179,2.8179,2.8179,2.8179,2.8179,2.8179,2.8179,2.8138,2.7991,2.7562,2.7241,2.7241,2.6907,2.656,2.6413,2.6386,2.6386,2.6386,2.6921,2.7309,2.7309,2.7804,2.8179,2.8179,2.8058,2.7857,2.7522,2.7228,2.6934,2.664,2.648,2.6132,2.5545,2.5518,2.505,2.4035,2.3884,2.3589,2.3113,2.2974,2.2893,2.2893,2.2893,2.2893,2.2893,2.2893,2.2893,4.4771,4.5118,4.5043,4.3653,4.2121,4.0009,3.6287,3.3771,3.1287,2.8117,2.6333,2.5199,2.4568,2.4389,2.4429,2.4843,2.5565,2.626,2.6895,2.8163,2.9306,3.0097,3.0993,3.1768,3.2237,3.2558,3.269,3.2631,3.2054,3.1921,3.2454,3.164,3.0945,3.052,3.0213,2.9842,2.9392,2.9108,2.9001,2.9001,2.9339,2.9486,2.9486,2.9419,2.9392,2.9366,2.9005,2.8841,2.8921,2.9205,2.9192,2.9015,2.9299,2.9205,2.8881,2.8684,2.8564,2.847,2.8272,2.8179,2.8179,2.8179,2.8179,2.8179,2.8179,2.8179,2.8179,2.8179,2.8179,2.8179,2.8179,2.8179,2.8098,2.7696,2.7201,2.676,2.6747,2.6547,2.6386,2.6386,2.6386,2.6386,2.6386,2.6921,2.7309,2.7309,2.7804,2.8179,2.8179,2.8179,2.8098,2.7857,2.7523,2.7148,2.6854,2.656,2.6132,2.5545,2.5518,2.5117,2.4235,2.3928,2.3634,2.3305,2.3054,2.2893,2.2893,2.2893,2.2893,2.2893,2.2893,2.2893,4.4157,4.4387,4.4041,4.2364,4.0201,3.7477,3.3856,3.1172,2.8505,2.518,2.3689,2.2817,2.2222,2.2311,2.2551,2.2915,2.3726,2.455,2.5241,2.6683,2.8148,2.9364,3.032,3.1271,3.2193,3.231,3.2281,3.2085,3.124,3.0928,3.1404,3.0928,3.0537,3.0263,2.9808,2.9396,2.9041,2.9015,2.9001,2.9001,2.9339,2.9486,2.9472,2.9161,2.9041,2.9001,2.8513,2.8433,2.8644,2.8671,2.8831,2.9001,2.9028,2.8855,2.8644,2.8617,2.843,2.8219,2.8192,2.8179,2.8179,2.8179,2.8179,2.8179,2.8179,2.8179,2.8179,2.8179,2.8179,2.8179,2.8179,2.8179,2.8045,2.7483,2.7054,2.6747,2.6493,2.6413,2.6386,2.6386,2.6386,2.6386,2.6386,2.6921,2.7309,2.7309,2.7804,2.8179,2.8179,2.8179,2.8179,2.8152,2.7643,2.7148,2.6854,2.656,2.6132,2.5545,2.5518,2.5117,2.4235,2.3928,2.3634,2.3305,2.3054,2.2893,2.2893,2.2893,2.2893,2.2893,2.2893,2.2893,4.2862,4.2964,4.2329,4.0446,3.8158,3.5321,3.1312,2.8763,2.6369,2.3287,2.1926,2.1139,2.0739,2.068,2.0875,2.1401,2.2141,2.2937,2.3781,2.5447,2.7013,2.811,2.9643,3.0846,3.1622,3.1801,3.1667,3.1182,3.0794,3.0571,3.0437,3.0272,3.0047,2.9795,2.94,2.9072,2.8735,2.8591,2.8497,2.8511,2.8991,2.9219,2.9219,2.9285,2.9205,2.8975,2.8604,2.8433,2.8379,2.8524,2.8564,2.8524,2.8711,2.8591,2.8366,2.8366,2.8286,2.8179,2.8179,2.8179,2.8179,2.8179,2.8179,2.8179,2.8179,2.8179,2.8179,2.8179,2.8179,2.8179,2.8179,2.7924,2.755,2.7094,2.6774,2.6533,2.6413,2.6386,2.6386,2.6386,2.6386,2.6386,2.6386,2.6921,2.7309,2.7309,2.7804,2.8179,2.8179,2.8179,2.8112,2.7938,2.755,2.7255,2.7094,2.6653,2.6132,2.5545,2.5518,2.5197,2.4452,2.4182,2.3888,2.3607,2.33,2.3046,2.2893,2.2893,2.2893,2.2893,2.2893,2.2893,4.0566,4.0735,4.003,3.7946,3.5408,3.2421,2.8646,2.6148,2.3922,2.1484,2.0155,1.9422,1.9343,1.9146,1.9271,2.0134,2.0831,2.1628,2.2681,2.4423,2.5988,2.7093,2.872,3.0054,3.0754,3.1052,3.1007,3.0647,3.0482,3.0272,2.9913,2.9913,2.978,2.9499,2.9285,2.9032,2.8738,2.8524,2.8446,2.846,2.8925,2.9165,2.9179,2.9392,2.9325,2.8988,2.8738,2.843,2.8205,2.8419,2.8379,2.8205,2.8433,2.8379,2.8179,2.8179,2.8179,2.8179,2.8179,2.8179,2.8179,2.8179,2.8179,2.8179,2.8179,2.8179,2.8179,2.8179,2.8179,2.8165,2.8072,2.7684,2.7229,2.6894,2.66,2.6386,2.6386,2.6386,2.6386,2.6386,2.6386,2.6386,2.6386,2.68,2.7202,2.7296,2.7737,2.8085,2.8179,2.8112,2.7978,2.7722,2.7362,2.7134,2.7134,2.668,2.6132,2.5545,2.5518,2.5213,2.4626,2.4356,2.4062,2.3817,2.3474,2.318,2.2893,2.2893,2.2893,2.2893,2.2893,2.2893,3.7131,3.746,3.7012,3.4716,3.1635,2.8458,2.5734,2.3206,2.1037,1.9527,1.8265,1.7537,1.7964,1.7644,1.7755,1.9107,1.9828,2.0678,2.2008,2.3606,2.51,2.6354,2.7519,2.8622,2.9621,3.0025,3.0301,3.0602,3.0182,2.9913,2.9913,2.9913,2.978,2.9499,2.9486,2.9339,2.9001,2.8988,2.8988,2.8988,2.9339,2.9486,2.9486,2.9486,2.9325,2.8988,2.8738,2.843,2.8179,2.8192,2.8192,2.8179,2.8192,2.8192,2.8179,2.8179,2.8179,2.8179,2.8179,2.8179,2.8179,2.8179,2.8179,2.8179,2.8179,2.8179,2.8179,2.8179,2.8179,2.8112,2.7776,2.7482,2.7229,2.6894,2.66,2.6386,2.6386,2.6386,2.6386,2.6386,2.6386,2.6386,2.6386,2.6627,2.6921,2.7269,2.7509,2.7816,2.8152,2.7924,2.7696,2.7696,2.7175,2.6827,2.6827,2.656,2.6132,2.5545,2.5518,2.5213,2.4626,2.4356,2.4062,2.3817,2.3474,2.318,2.2893,2.2893,2.2893,2.2893,2.2893,2.2893,3.4265,3.4386,3.367,3.1733,2.9021,2.6172,2.3639,2.1412,1.9543,1.8356,1.7496,1.7023,1.7086,1.7062,1.7378,1.8438,1.9155,1.9959,2.1028,2.2564,2.4057,2.5393,2.7528,2.9007,2.9369,2.9886,3.0168,3.011,3.0003,2.9833,2.9633,2.9619,2.9579,2.9486,2.9486,2.9339,2.9001,2.9001,2.9001,2.9001,2.9339,2.9486,2.9486,2.9686,2.9513,2.8988,2.8895,2.8617,2.8179,2.8179,2.8179,2.8179,2.8179,2.8179,2.8179,2.8179,2.8179,2.8179,2.8179,2.8179,2.8179,2.8179,2.8179,2.8179,2.8179,2.8179,2.8179,2.8179,2.8179,2.8072,2.7576,2.7376,2.7188,2.664,2.6453,2.6386,2.6386,2.6386,2.6386,2.6386,2.6386,2.6386,2.6386,2.6627,2.6854,2.6947,2.7215,2.7483,2.7576,2.7496,2.7321,2.7121,2.6894,2.6787,2.6787,2.656,2.6132,2.5545,2.5518,2.5213,2.4626,2.4519,2.4262,2.3817,2.371,2.3415,2.2893,2.2893,2.2893,2.2893,2.2893,2.2893,3.0551,3.0878,3.0131,2.8443,2.607,2.3609,2.1578,1.9694,1.8164,1.7391,1.6895,1.6615,1.669,1.6817,1.7226,1.8145,1.8847,1.9652,2.075,2.2184,2.3694,2.5322,2.7193,2.8561,2.8995,2.9466,2.9781,2.9887,2.982,2.9673,2.9499,2.9379,2.9312,2.9312,2.9312,2.9232,2.9001,2.9001,2.9001,2.9001,2.9232,2.9312,2.9325,2.9455,2.9282,2.8828,2.8828,2.8604,0.0,2.8179,2.8179,2.8179,2.8179,2.8179,2.8179,2.8179,2.8179,2.8179,2.8179,2.8179,2.8179,2.8179,2.8112,2.7991,2.7884,2.8005,2.8179,2.8179,2.8179,2.8045,2.7456,2.7309,2.7162,2.6533,2.6386,2.6386,2.6386,2.6386,2.6386,2.6386,2.6386,2.6386,2.6386,2.6547,2.6694,2.676,2.6987,2.7134,2.7296,2.7215,2.7028,2.68,2.672,2.6653,2.6653,2.6493,2.6132,2.5545,2.5518,2.5213,2.4626,2.4599,2.4422,2.3941,2.3857,2.3562,2.3033,2.296,2.2893,2.2893,2.2893,2.2893,0.0,2.6902,2.6532,2.5023,2.2928,2.0927,1.9644,1.8118,0.0,1.6588,1.6356,1.6274,1.6624,1.6795,1.7226,1.8145,1.8847,1.9752,2.0998,2.2374,2.3963,2.5926,2.6716,2.7486,2.85,2.8828,2.9242,2.9873,2.9646,2.9472,2.9459,2.9165,2.8961,2.8935,2.8935,2.8948,2.9001,2.9001,2.9001,2.9001,2.9001,2.9001,2.9001,2.9001,2.8841,2.8604,2.8604,2.843,2.8179,2.8179,2.8179,2.8179,2.8179,2.8179,2.8152,2.8152,2.8138,2.8125,2.8125,2.8125,2.8125,2.8125,2.7938,2.7615,2.7389,2.7697,2.8152,2.8125,2.8138,2.8018,2.7429,2.7269,2.7135,2.652,2.6386,2.6386,2.6386,2.6386,2.6386,2.6386,2.6386,2.6386,2.6386,2.6386,2.648,2.6747,2.6787,2.6894,2.7202,2.6961,2.6787,2.6787,2.6547,2.6386,2.6386,2.6386,2.6132,2.5545,2.5518,2.5213,2.4626,2.4599,2.4466,2.4209,2.3901,2.3594,2.3265,2.3041,2.2893,2.2893,2.2893,2.2893,2.1722,0.0,2.3637,2.2445,2.0923,1.9422,0.0,1.7182,1.6339,1.6107,1.6013,1.6073,1.6404,1.6705,1.7226,1.8145,1.8847,1.9664,2.0663,2.3003,2.4921,2.573,2.6964,2.8002,2.8569,2.8828,2.9242,2.9873,2.9646,2.9379,2.9108,2.8871,2.8604,2.8406,2.8393,2.8577,2.8988,2.9001,2.9001,2.9001,2.9001,2.9001,2.9001,2.9001,2.8841,2.8604,2.8604,2.843,2.8179,2.8179,2.8179,2.8179,2.8179,2.8045,2.7802,2.7802,2.7697,2.751,2.751,2.751,2.751,2.751,2.7469,2.7403,2.7322,2.7563,2.7749,2.7576,2.767,2.7669,2.7081,2.6921,2.6841,2.648,2.6386,2.6386,2.6386,2.6386,2.6386,2.6386,2.6386,2.6386,2.6386,2.6386,2.6413,2.648,2.6493,2.652,2.6587,2.6533,2.6493,2.6493,2.6426,2.6386,2.6386,2.6386,2.6132,2.5545,2.5518,2.5213,2.4626,2.4599,2.4466,2.4209,2.3701,2.3273,2.3,2.2934,2.2893,2.2893,2.2893,2.2893,1.945,2.0431,2.1302,2.0373,1.929,1.8226,1.7347,1.6642,1.6052,1.5729,1.5921,1.617,1.6367,1.6895,1.7583,1.8394,1.9093,2.0118,2.1803,2.3717,2.5193,2.5861,2.6829,2.769,2.8339,2.8791,2.9188,2.9686,2.9446,2.9152,2.8815,2.8564,2.8366,2.8192,2.8179,2.8339,2.8617,2.8631,2.8631,2.8631,2.8631,2.8631,2.8631,2.8631,2.8537,2.8433,2.8433,2.8339,2.8179,2.8179,2.8179,2.8165,2.8031,2.7843,2.7682,2.7549,2.7443,2.7309,2.7309,2.7309,2.7241,2.6904,2.6811,2.6716,2.6382,2.6499,2.6803,2.7186,2.7416,2.7388,2.6934,2.6787,2.6747,2.6453,2.6386,2.6386,2.6386,2.6386,2.6386,2.6386,2.6386,2.6386,2.6386,2.6386,2.6386,2.6386,2.6386,2.6386,2.6386,2.6386,2.6386,2.6386,2.6386,2.6386,2.6386,2.6305,2.5999,2.5545,2.5384,2.5104,2.4613,2.4599,2.4466,2.4209,2.3754,2.338,2.3073,2.2974,2.2893,2.2893,2.2893,2.2893,1.8348,1.8783,1.9242,1.868,1.7997,1.728,1.662,1.6244,1.5937,1.5559,1.5965,1.6426,1.6514,1.7267,1.8116,1.8843,1.9708,2.1101,2.3391,2.4531,2.5414,2.62,2.6738,2.7363,2.8179,2.8671,2.9055,2.9392,2.9138,2.8828,2.8617,2.8353,2.8179,2.8179,2.8179,2.8179,2.8179,2.8179,2.8179,2.8179,2.8179,2.8179,2.8179,2.8179,2.8179,2.8179,2.8179,2.8179,2.8179,2.8179,2.8165,2.8098,2.7802,2.7642,2.7535,2.7295,2.7215,2.7134,2.7094,2.7012,2.6837,2.6143,2.5863,2.5623,2.4994,2.5014,2.5443,2.6405,2.6835,2.6972,2.6639,2.66,2.6574,2.636,2.6347,2.6386,2.6386,2.6386,2.6386,2.6386,2.6386,2.6386,2.6386,2.6386,2.6386,2.6386,2.6386,2.6386,2.6386,2.6386,2.6386,2.6386,2.6386,2.6373,2.6333,2.6091,2.5758,2.5464,2.5224,2.4943,2.4613,2.4599,2.4466,2.4209,2.395,2.3621,2.3292,2.302,2.2893,2.2893,2.2893,2.2893,1.7392,1.7174,1.7076,1.7302,1.7089,1.6665,1.5982,1.5791,1.5753,1.581,1.6126,1.6558,1.7077,1.7726,1.854,1.9488,2.1291,2.2995,2.4133,2.557,2.6575,2.6781,2.7566,2.8204,2.8513,2.8617,2.8791,2.9041,2.8845,2.8657,2.8604,2.8353,2.8179,2.8179,2.8179,2.8179,2.8179,2.8179,2.8179,2.8179,2.8179,2.8179,2.8179,2.8179,2.8179,2.8179,2.8179,2.8179,2.8179,2.8179,2.8031,2.7762,2.7722,2.7402,2.6947,2.6907,2.6734,2.648,2.6162,2.575,2.5339,2.4901,2.4249,2.3636,2.3508,2.3532,2.3608,2.3764,2.4805,2.5792,2.547,2.5659,2.5924,2.5885,2.6149,2.6386,2.6386,2.6386,2.6386,2.6386,2.6386,2.6386,2.6386,2.6386,2.6386,2.6386,2.6386,2.6386,2.6386,2.6386,2.6386,2.6386,2.6386,2.6332,2.6078,2.5758,2.5451,2.517,2.5104,2.4943,2.4613,2.4599,2.4466,2.4209,2.395,2.3621,2.3292,2.302,2.2893,2.2893,2.2893,2.2893,1.6875,1.6561,1.6377,1.6563,1.6619,1.6514,1.6073,1.6123,1.6238,1.6169,1.655,1.6974,1.7244,1.8291,1.9579,2.1072,2.2915,2.4407,2.5062,2.6192,2.7007,2.7129,2.7676,2.8078,2.8353,2.8511,2.8657,2.8748,2.8684,2.8457,2.8136,2.7976,2.7871,2.771,2.771,2.771,2.771,2.771,2.7871,2.8179,2.8179,2.8179,2.8179,2.8179,2.8098,2.7938,2.7938,2.7857,2.771,2.771,2.763,2.7455,2.7281,2.6892,2.6439,2.6053,2.5671,2.5343,2.5144,2.4666,2.4016,2.3576,2.2814,2.2091,2.1849,2.1808,2.1808,2.1808,2.335,2.4962,2.4824,2.5117,2.5395,2.5395,2.5567,2.5686,2.5686,2.5686,2.5686,2.5686,2.5911,2.607,2.607,2.6268,2.6386,2.6386,2.6386,2.6386,2.6386,2.6228,2.607,2.607,2.5845,2.5609,2.5309,2.5023,2.4862,2.4826,2.4836,2.4746,2.4613,2.4599,2.4532,2.4399,2.4155,2.3754,2.3249,2.2968,2.2674,2.231,2.231,2.231,1.6539,1.6183,1.595,1.6097,1.6335,1.6487,1.6385,1.6602,1.684,1.6829,1.7267,1.7697,1.7843,1.9228,2.0968,2.2784,2.4412,2.558,2.6032,2.6856,2.7442,2.7459,2.7688,2.7938,2.8165,2.8406,2.847,2.8404,2.839,2.8163,2.7629,2.7602,2.7495,2.7309,2.7309,2.7309,2.7309,2.7309,2.7536,2.7978,2.7978,2.7978,2.7978,2.7978,2.7857,2.7602,2.7602,2.7468,2.7309,2.7309,2.7269,2.7134,2.6907,2.6533,2.6012,2.5366,2.4838,2.4467,2.4387,2.3708,2.2814,2.2372,2.1486,2.0566,2.0242,2.016,2.016,2.016,2.1808,2.3616,2.3828,2.42,2.4519,2.4652,2.4652,2.4639,2.4639,2.4639,2.4639,2.4639,2.5037,2.5343,2.5343,2.5673,2.5951,2.5951,2.603,2.607,2.599,2.5713,2.5435,2.5224,2.4878,2.4502,2.4192,2.3854,2.3783,2.4033,2.4304,2.4451,2.4451,2.4451,2.4451,2.4451,2.4209,2.3763,2.3145,2.264,2.2065,2.148,2.1336,2.1276,1.6246,1.5678,1.5221,1.5778,1.6078,1.6355,1.6765,1.7056,1.7428,1.8043,1.8438,1.8877,1.9503,2.0939,2.2565,2.4192,2.5535,2.6547,2.693,2.7832,2.8219,2.7726,2.7965,2.8165,2.8179,2.8205,2.8098,2.7789,2.7762,2.7629,2.7349,2.7336,2.7322,2.7309,2.7309,2.7309,2.7309,2.7309,2.7322,2.7362,2.7362,2.7362,2.7362,2.7362,2.7362,2.7336,2.7336,2.7322,2.7309,2.7309,2.7108,2.6814,2.6827,2.6414,2.5779,2.5289,2.4838,2.4427,2.4,2.3027,2.1929,2.1508,2.0262,1.8877,1.8837,1.8837,1.8837,1.8837,1.9805,2.1052,2.1871,2.2384,2.2814,2.3239,2.3348,2.3336,2.3336,2.3336,2.3336,2.3336,2.3656,2.3936,2.3936,2.4347,2.4627,2.4627,2.4958,2.505,2.4666,2.4627,2.4268,2.3456,2.3336,2.3135,2.2599,2.2091,2.1972,2.2359,2.3401,2.4044,2.4044,2.4044,2.4044,2.4044,2.3758,2.3419,2.3006,2.1734,2.0898,2.0486,1.9924,1.9669,1.6039,1.5528,1.5196,1.6013,1.6411,1.6765,1.7334,1.8013,1.8672,1.9137,1.9462,1.9945,2.0808,2.195,2.3281,2.4905,2.6392,2.7563,2.8011,2.851,2.8716,2.841,2.828,2.8179,2.8179,2.8018,2.7816,2.7709,2.7535,2.7295,2.7001,2.6987,2.6907,2.676,2.672,2.672,2.672,2.672,2.672,2.672,2.7135,2.7309,2.7309,2.7309,2.7202,2.6987,2.6987,2.6881,2.672,2.672,2.6653,2.6507,2.5962,2.5445,2.4905,2.416,2.3319,2.2475,2.2314,2.1386,2.0242,2.0089,1.9072,1.7896,1.7896,1.7691,1.7478,1.7478,1.801,1.899,2.0647,2.1416,2.1808,2.1981,2.182,2.1566,2.1566,2.1566,2.1566,2.1566,2.2131,2.2614,2.2614,2.2975,2.3256,2.3256,2.3376,2.3416,2.3296,2.3055,2.2654,2.201,2.1264,2.0777,2.0828,2.0626,2.065,2.1037,2.2209,2.2881,2.2881,2.2881,2.2881,2.2881,2.2546,2.2079,2.1506,2.0415,1.9589,1.9017,1.8414,1.8131,1.5851,1.549,1.5378,1.633,1.6939,1.7554,1.8354,1.9184,1.9913,2.0441,2.0852,2.1321,2.2023,2.293,2.4071,2.5559,2.6991,2.8095,2.8619,2.8871,2.8896,2.8659,2.8296,2.8045,2.8045,2.7777,2.7522,2.7428,2.7241,2.6961,2.6573,2.6547,2.6413,2.6119,2.6106,2.6106,2.6106,2.6106,2.6106,2.6119,2.652,2.6854,2.7028,2.7028,2.6881,2.668,2.668,2.6573,2.6386,2.6386,2.6347,2.6109,2.5249,2.4639,2.4188,2.348,2.2406,2.1316,2.1316,2.0424,1.9316,1.9316,1.8419,1.7404,1.7404,1.7067,1.6698,1.6698,1.7026,1.7723,1.9225,1.9917,2.0323,2.0434,2.012,1.9795,1.9795,1.9795,1.9795,1.9795,2.0393,2.0879,2.0879,2.1233,2.1475,2.1475,2.1596,2.1636,2.1515,2.1233,2.0839,2.0231,1.9214,1.873,1.9094,1.9013,1.9112,1.9418,2.0248,2.0962,2.1611,2.1648,2.1648,2.1648,2.1375,2.0871,2.0143,1.919,1.8337,1.7543,1.6966,1.6651,1.564,1.556,1.574,1.6669,1.7613,1.8642,1.9933,2.0473,2.0985,2.1993,2.2681,2.312,2.312,2.3925,2.5027,2.6296,2.7283,2.8095,2.8619,2.8871,2.8813,2.8359,2.7944,2.7696,2.7696,2.7428,2.7175,2.68,2.6774,2.656,2.6024,2.5998,2.5864,2.548,2.548,2.548,2.548,2.548,2.548,2.548,2.548,2.5812,2.6386,2.6386,2.6386,2.6386,2.6386,2.6386,2.6386,2.6386,2.6149,2.5673,2.4811,2.4212,2.372,2.3331,2.2366,2.1276,2.1276,2.0384,1.9276,1.9276,1.8419,1.7404,1.7404,1.7067,1.6689,1.6689,1.7026,1.7404,1.7404,1.7682,1.8083,1.8573,1.8328,1.8001,1.8001,1.8001,1.8001,1.8001,1.8369,1.8695,1.8695,1.9012,1.9297,1.9297,1.9612,1.9734,1.9338,1.9297,1.893,1.8083,1.7373,1.7097,1.7338,1.7187,1.718,1.7378,1.7407,1.8271,2.0285,2.036,2.036,2.036,2.036,1.9984,1.918,1.8166,1.7177,1.6168,1.5567,1.5192,1.5249,1.5579,1.6183,1.6984,1.7925,1.9096,2.0867,2.1511,2.2023,2.2974,2.3501,2.3793,2.3793,2.4583,2.5593,2.6676,2.7619,2.8356,2.8741,2.8728,2.8534,2.8058,2.7634,2.7443,2.7443,2.7121,2.6827,2.6547,2.6333,2.6052,2.5665,2.5369,2.5176,2.5097,2.4815,2.4662,2.4662,2.4662,2.4662,2.4662,2.4355,2.474,2.5649,2.5649,2.5557,2.5475,2.5295,2.5204,2.5165,2.489,2.4452,2.3896,2.3307,2.2614,2.1941,2.1537,2.0576,1.9489,1.9489,1.8796,1.7978,1.7978,1.7478,1.6903,1.6903,1.6575,1.6205,1.6205,1.6295,1.6419,1.6419,1.6492,1.678,1.76,1.7437,1.71,1.71,1.71,1.71,1.71,1.7478,1.7805,1.7805,1.7887,1.7969,1.7969,1.8092,1.8092,1.7969,1.7673,1.7387,1.71,1.6529,1.6262,1.6475,1.6324,1.6337,1.6557,1.6539,1.7073,1.8234,1.8271,1.8271,1.8271,1.8016,1.7749,1.7521,1.6521,1.587,1.5547,1.486,1.4474,1.5274,1.5833,1.661,1.749,1.8515,1.9901,2.1979,2.2932,2.3518,2.4089,2.454,2.4818,2.4686,2.5344,2.6149,2.6866,2.7536,2.8072,2.8343,2.8283,2.8066,2.7783,2.727,2.6961,2.6961,2.6547,2.6226,2.6052,2.5879,2.5613,2.5129,2.4723,2.429,2.3821,2.3441,2.3137,2.2984,2.2984,2.2984,2.2984,2.2756,2.2927,2.3542,2.399,2.414,2.4066,2.3737,2.3573,2.3573,2.3156,2.269,2.2168,2.178,2.1103,2.031,2.016,1.9388,1.8428,1.8428,1.7978,1.7404,1.7404,1.7067,1.6698,1.6698,1.6369,1.6007,1.6007,1.6007,1.6007,1.6007,1.6007,1.613,1.6706,1.6616,1.641,1.641,1.641,1.641,1.641,1.6657,1.683,1.683,1.683,1.683,1.683,1.683,1.683,1.683,1.6616,1.641,1.641,1.6106,1.5926,1.5986,1.591,1.5822,1.5795,1.5816,1.6005,1.6415,1.6759,1.6921,1.6921,1.6692,1.6462,1.6309,1.5692,1.5303,1.5031,1.46,1.4351,1.5553,1.62,1.7018,1.8077,1.9406,2.1014,2.312,2.4412,2.513,2.51,2.5564,2.5895,2.5588,2.6105,2.6661,2.6983,2.719,2.7364,2.764,2.7516,2.736,2.732,2.6718,2.6306,2.6306,2.5825,2.5466,2.5401,2.5401,2.5103,2.4372,2.3907,2.3167,2.2013,2.1554,2.1144,2.0733,2.0744,2.0744,2.0744,2.0718,2.0627,2.0544,2.1812,2.2326,2.221,2.1823,2.1629,2.1551,2.1201,2.0795,2.0369,2.0137,1.9543,1.8824,1.9027,1.8585,1.786,1.7878,1.76,1.7281,1.7281,1.6985,1.6657,1.6657,1.6328,1.6007,1.6007,1.6007,1.6007,1.6007,1.6007,1.6007,1.6007,1.6007,1.6007,1.6007,1.6007,1.6007,1.6007,1.6007,1.6007,1.6007,1.6007,1.6007,1.6007,1.6007,1.6007,1.6007,1.6007,1.6007,1.6007,1.6007,1.5934,1.5829,1.5812,1.5618,1.5221,1.5197,1.5155,1.5015,1.5705,1.6089,1.6089,1.6089,1.5897,1.5544,1.5544,1.5269,1.4732,1.4716,1.4611,1.5383,1.6301,1.7416,1.8448,2.0603,2.2681,2.3427,2.4554,2.5359,2.5144,2.5564,2.6003,2.593,2.6442,2.6998,2.7357,2.7147,2.696,2.6932,2.6641,2.6262,2.5953,2.5784,2.5705,2.5705,2.5585,2.5259,2.4768,2.4717,2.4181,2.3001,2.2239,2.137,2.0345,1.9628,1.909,1.8733,1.8733,1.8733,1.8733,1.8492,1.838,1.8441,2.0326,2.0841,2.0187,1.979,1.9443,1.9143,1.9066,1.87,1.8159,1.8127,1.775,1.73,1.749,1.7207,1.6788,1.6934,1.6698,1.6295,1.6295,1.6213,1.6172,1.6172,1.6089,1.6007,1.6007,1.6007,1.6007,1.6007,1.6007,1.6007,1.6007,1.6007,1.6007,1.6007,1.6007,1.6007,1.6007,1.6007,1.6007,1.6007,1.6007,1.6007,1.6007,1.6007,1.6007,1.6007,1.6007,1.6007,1.6007,1.6007,1.5934,1.5829,1.5812,1.5618,1.5221,1.5197,1.5155,1.5015,1.516,1.5275,1.5275,1.5275,1.5237,1.5122,1.5122,1.5067,1.4949,1.4773,1.4611,1.5521,1.6455,1.7726,1.9506,2.1423,2.3003,2.3486,2.4364,2.5022,2.4895,2.5461,2.6061,2.6222,2.653,2.6866,2.7225,2.6883,2.6542,2.6472,2.6109,2.5747,2.5518,2.5384,2.5228,2.5038,2.4624,2.4139,2.3575,2.3263,2.2607,2.1546,2.0915,1.9983,1.8696,1.8065,1.748,1.6967,1.693,1.693,1.694,1.6889,1.6889,1.7029,1.8313,1.8565,1.7961,1.7769,1.7539,1.7346,1.7346,1.7064,1.6589,1.6686,1.6446,1.6069,1.6264,1.6172,1.5996,1.6219,1.6114,1.5926,1.5975,1.6007,1.6007,1.6007,1.6007,1.5983,1.5902,1.5918,1.5894,1.5772,1.5748,1.5748,1.5748,1.5885,1.6007,1.6007,1.6007,1.6007,1.6007,1.6007,1.6007,1.6007,1.6007,1.6007,1.6007,1.6007,1.6007,1.6007,1.6007,1.6007,1.6007,1.6007,1.5966,1.591,1.5902,1.5756,1.5351,1.5335,1.5252,1.5015,1.5006,1.5006,1.5006,1.5006,1.5006,1.5006,1.5006,1.5006,1.4998,1.4871,1.4781,1.5727,1.6747,1.8194,2.0517,2.1847,2.268,2.3369,2.4001,2.4456,2.4499,2.5257,2.5982,2.621,2.6276,2.6393,2.6598,2.6223,2.5862,2.5862,2.55,2.5173,2.5097,2.4847,2.4514,2.4141,2.3259,2.2566,2.2178,2.1571,2.085,2.007,1.9648,1.8721,1.7127,1.6689,1.6131,1.5356,1.5382,1.5382,1.5319,1.5543,1.5748,1.6012,1.6348,1.6348,1.6089,1.6012,1.5974,1.5974,1.5974,1.582,1.5522,1.5682,1.5507,1.5173,1.5398,1.5472,1.5496,1.5666,1.5772,1.5756,1.5861,1.591,1.591,1.591,1.591,1.5885,1.5772,1.5772,1.5699,1.5553,1.5512,1.5512,1.5512,1.5699,1.591,1.591,1.591,1.591,1.591,1.5934,1.5958,1.5958,1.5983,1.6007,1.6007,1.6007,1.6007,1.6007,1.6007,1.6007,1.6007,1.6007,1.6007,1.6007,1.6007,1.5869,1.5577,1.5536,1.5366,1.5063,1.5023,1.5006,1.5006,1.5006,1.5006,1.5006,1.5006,1.5006,1.5006,1.5006,1.499,1.57,1.7428,1.9301,2.0486,2.1525,2.2403,2.3032,2.3457,2.3808,2.4118,2.492,2.5504,2.5236,2.5431,2.5526,2.525,2.4816,2.4559,2.4559,2.4255,2.3887,2.3563,2.315,2.28,2.2439,2.1715,2.1125,2.0691,2.027,1.9615,1.8617,1.8211,1.7341,1.5908,1.5444,1.4795,1.3891,1.4039,1.4039,1.3899,1.4383,1.4793,1.516,1.5237,1.539,1.5667,1.5313,1.516,1.516,1.516,1.5122,1.5083,1.5108,1.5077,1.5025,1.5212,1.5237,1.5262,1.5488,1.5553,1.5553,1.5577,1.5585,1.5585,1.5585,1.5585,1.5545,1.5553,1.5553,1.5545,1.552,1.5512,1.5512,1.5512,1.5513,1.5585,1.5585,1.5585,1.5585,1.5585,1.5707,1.5853,1.5853,1.5902,1.6007,1.6007,1.6007,1.6007,1.6007,1.6007,1.6007,1.6007,1.6007,1.6007,1.6007,1.6007,1.5918,1.5748,1.5601,1.5383,1.5173,1.5049,1.5006,1.5006,1.5006,1.5006,1.5006,1.5006,1.5006,1.5006,1.5006,1.4925,1.5882,1.7296,1.873,1.9901,2.0779,2.154,2.2169,2.2696,2.3135,2.3471,2.3865,2.428,2.4644,2.4825,2.4935,2.489,2.4416,2.4025,2.4025,2.3349,2.2791,2.2612,2.2049,2.1546,2.1186,2.0158,1.9324,1.8928,1.8201,1.7455,1.666,1.6439,1.5826,1.4692,1.4475,1.4093,1.349,1.3633,1.3836,1.4055,1.4282,1.4619,1.5006,1.5006,1.5083,1.5237,1.5083,1.5006,1.5006,1.5006,1.5006,1.5006,1.5006,1.5006,1.5015,1.5057,1.5082,1.5114,1.5293,1.5318,1.5335,1.544,1.5512,1.5512,1.5512,1.5512,1.5496,1.5351,1.5318,1.5294,1.5236,1.5204,1.5204,1.5204,1.5204,1.5204,1.5204,1.5366,1.5512,1.5512,1.5577,1.5626,1.5626,1.5772,1.5894,1.5894,1.5942,1.6007,1.6007,1.6007,1.6007,1.6007,1.6007,1.6007,1.6007,1.6007,1.5885,1.565,1.5561,1.539,1.5098,1.5047,1.5006,1.5006,1.5006,1.5006,1.5006,1.5006,1.5006,1.5006,1.5006,1.4966,1.5926,1.6924,1.7867,1.9107,1.9813,2.04,2.1159,2.1715,2.2227,2.256,2.2692,2.2928,2.3535,2.375,2.3862,2.385,2.3407,2.3012,2.2865,2.2134,2.153,2.1316,2.0662,2.0053,1.9659,1.8367,1.7425,1.7104,1.6272,1.5558,1.5125,1.5116,1.4742,1.3925,1.3891,1.3728,1.3337,1.3482,1.3828,1.4395,1.4395,1.4619,1.5006,1.5006,1.5006,1.5006,1.5006,1.5006,1.5006,1.5006,1.5006,1.5006,1.5006,1.5006,1.5006,1.5006,1.5006,1.5023,1.5122,1.5171,1.5156,1.5333,1.5374,1.5374,1.5374,1.5374,1.535,1.5212,1.5171,1.5139,1.5039,1.5006,1.5006,1.5006,1.5006,1.5006,1.5006,1.5179,1.5374,1.5374,1.5415,1.5408,1.5408,1.5593,1.5723,1.5804,1.5886,1.595,1.5999,1.6007,1.6007,1.6007,1.6007,1.5983,1.5942,1.5934,1.5804,1.5536,1.5432,1.5325,1.5049,1.5031,1.5006,1.5006,1.5006,1.5006,1.5006,1.5006,1.5006,1.5006,1.5006,1.5006,1.5672,1.644,1.7182,1.813,1.8628,1.914,2.0064,2.0546,2.0885,2.1233,2.1547,2.1673,2.1335,2.1754,2.1872,2.1128,2.0975,2.0789,2.0376,2.0226,1.9959,1.9237,1.8455,1.7822,1.7495,1.6244,1.5459,1.5433,1.4906,1.4584,1.4541,1.4541,1.4336,1.3925,1.3891,1.3662,1.3108,1.3329,1.3742,1.4395,1.4395,1.4619,1.5006,1.5006,1.5006,1.5006,1.5006,1.5006,1.5006,1.5006,1.5006,1.5006,1.5006,1.5006,1.5006,1.5006,1.5006,1.5006,1.5015,1.5023,1.5023,1.5031,1.5031,1.5031,1.5031,1.5031,1.5031,1.5023,1.5023,1.5015,1.5006,1.5006,1.5006,1.5006,1.5006,1.5006,1.5006,1.5023,1.5031,1.5031,1.513,1.5213,1.5213,1.5367,1.5585,1.5788,1.5821,1.5853,1.5983,1.6007,1.6007,1.6007,1.6007,1.5934,1.5804,1.5829,1.5707,1.5528,1.531,1.5205,1.5189,1.5057,1.5006,1.5006,1.5006,1.5006,1.5006,1.5006,1.5006,1.5006,1.5006,1.5006,1.4858,1.5452,1.6126,1.6895,1.7457,1.8033,1.8818,1.9127,1.9432,2.0142,1.9948,1.965,1.9624,2.0412,2.0916,2.033,1.9867,1.9352,1.8721,1.8222,1.7754,1.7251,1.653,1.6014,1.591,1.4983,1.4388,1.4388,1.4019,1.3721,1.3604,1.3595,1.3478,1.3194,1.3194,1.3243,1.3305,1.3563,1.3953,1.4395,1.4516,1.4732,1.5006,1.5006,1.5006,1.5006,1.5006,1.5006,1.5006,1.5006,1.5006,1.5006,1.5006,1.5006,1.5006,1.5006,1.5006,1.5006,1.5006,1.5006,1.5006,1.5006,1.5006,1.5006,1.5006,1.5006,1.5006,1.5006,1.5006,1.5006,1.5006,1.5006,1.5006,1.5006,1.5006,1.5006,1.5006,1.5006,1.5006,1.5006,1.5055,1.5065,1.5065,1.522,1.5398,1.5577,1.5699,1.5837,1.5983,1.6007,1.6007,1.6007,1.5902,1.5845,1.5821,1.5675,1.5528,1.531,1.5237,1.5148,1.5065,1.5039,1.5006,1.5006,1.5006,1.5006,1.5006,1.5006,1.5006,1.5006,1.5006,1.5006,1.4243,1.4618,1.5101,1.5731,1.6265,1.6834,1.7501,1.7852,1.8257,1.8893,1.8752,1.8502,1.8502,1.8986,1.9218,1.8804,1.8293,1.7695,1.6972,1.6452,1.6021,1.5681,1.5078,1.4703,1.4703,1.4062,1.3619,1.3619,1.3358,1.3141,1.3011,1.3011,1.2986,1.2888,1.2888,1.3124,1.3547,1.3782,1.4107,1.4484,1.4651,1.4797,1.5006,1.5006,1.5006,1.5006,1.5006,1.5006,1.5006,1.5006,1.5006,1.5006,1.5006,1.5006,1.5006,1.5006,1.5006,1.5006,1.5006,1.5006,1.5006,1.5006,1.5006,1.5006,1.5006,1.5006,1.5006,1.5006,1.5006,1.5006,1.5006,1.5006,1.5006,1.5006,1.5006,1.5006,1.5006,1.5006,1.5006,1.5006,1.5006,1.5006,1.5006,1.5065,1.5173,1.5351,1.552,1.5658,1.5804,1.5829,1.5829,1.5829,1.5756,1.5658,1.5601,1.5488,1.5302,1.5155,1.5147,1.509,1.5006,1.5006,1.5006,1.5006,1.5006,1.5006,1.5006,1.5006,1.5006,1.5006,1.5006,1.5006,0.0,0.0,0.0,1.4745,1.5119,1.5549,1.6199,1.6869,1.7359,1.7439,1.7965,1.8292,1.7912,1.7295,1.674,1.6477,1.616,1.5744,1.5122,1.5041,1.4871,1.4488,1.4087,1.3857,1.3857,1.3376,1.3068,1.3068,1.2913,1.2791,1.2791,1.2791,1.288,1.3084,1.31,1.336,1.3896,1.3912,1.418,1.4708,1.4716,1.4806,1.5006,1.5006,1.5006,1.5006,1.5006,1.5006,1.5006,1.5006,1.5006,1.5006,1.5006,1.5006,1.5006,1.5006,1.5006,1.5006,1.5006,1.5006,1.5006,1.5006,1.5006,1.5006,1.5006,1.5006,1.5006,1.5006,1.5006,1.5006,1.5006,1.5006,1.5006,1.5006,1.5006,1.5006,1.5006,1.5006,1.5006,1.5006,1.5006,1.5006,1.5006,1.5006,1.5063,1.5173,1.5197,1.5262,1.5456,1.5512,1.5512,1.5512,1.5472,1.5391,1.5213,1.5197,1.5155,1.5015,1.5006,1.5006,1.5006,1.5006,1.5006,1.5006,1.5006,1.5006,1.5006,1.5006,1.5006,1.5006,1.5006,1.5006,1.3609,0.0,0.0,0.0,0.0,0.0,1.5409,1.5632,1.5953,1.6463,1.6408,1.6339,1.6619,1.5998,1.5378,1.5104,1.4944,1.4588,1.3901,1.3588,1.3298,1.2952,1.2823,1.2734,1.2734,1.262,1.2523,1.2523,1.2483,1.245,1.245,1.2572,1.2783,1.3084,1.3222,1.349,1.3896,1.4156,1.4424,1.4708,1.4838,1.4958,1.5006,1.5006,1.5006,1.5006,1.5006,1.5006,1.5006,1.5006,1.5006,1.5006,1.5006,1.5006,1.5006,1.5006,1.5006,1.5006,1.5006,1.5006,1.5006,1.5006,1.5006,1.5006,1.5006,1.5006,1.5006,1.5006,1.5006,1.5006,1.5006,1.5006,1.5006,1.5006,1.5006,1.5006,1.5006,1.5006,1.5006,1.5006,1.5006,1.5006,1.5006,1.5006,1.5063,1.5173,1.5197,1.5262,1.5456,1.5512,1.5512,1.5512,1.5359,1.5254,1.5205,1.5114,1.5055,1.5006,1.5006,1.5006,1.5006,1.5006,1.5006,1.5006,1.5006,1.5006,1.5006,1.5006,1.5006,1.5006,1.5006,1.5006,0.0,0.0,0.0,1.3803,0.0,0.0,1.4637,1.4782,1.503,1.5549,1.5615,1.5651,1.5973,1.5519,1.499,1.4607,1.4152,1.3665,1.3157,1.2733,1.2401,1.219,1.2125,1.2085,1.2085,1.215,1.2159,1.2159,1.2264,1.2304,1.2304,1.2499,1.2759,1.3084,1.3313,1.3612,1.4115,1.429,1.4525,1.4822,1.4958,1.5006,1.5006,1.5006,1.5006,1.5006,1.5006,1.5006,1.4998,1.4925,1.4903,1.5006,1.5006,1.5006,1.5006,1.5006,1.5006,1.5006,1.5006,1.5006,1.5006,1.5006,1.5006,1.5006,1.5006,1.5006,1.5006,1.5006,1.5006,1.5006,1.5006,1.5006,1.5006,1.5006,1.5006,1.5006,1.5006,1.5006,1.5006,1.5006,1.5006,1.5006,1.5006,1.5006,1.5039,1.5106,1.5122,1.5163,1.5268,1.5285,1.5285,1.5285,1.5187,1.5122,1.5122,1.5025,1.5006,1.5006,1.5006,1.5006,1.5006,1.5006,1.5006,1.5006,1.5006,1.5006,1.5006,1.5006,1.5006,1.5006,1.5006,1.5006,0.0,0.0,0.0,0.0,1.3555,0.0,1.3981,1.4204,1.4446,1.478,1.5287,1.566,1.5701,1.5469,1.5116,1.4611,1.3733,1.3003,1.2715,1.2283,1.1939,1.1908,1.1809,1.1741,1.1741,1.1849,1.1908,1.1908,1.2109,1.2223,1.2247,1.2466,1.2727,1.3051,1.3262,1.3693,1.433,1.4379,1.4603,1.4974,1.4998,1.499,1.4974,1.4974,1.4966,1.4941,1.4941,1.4941,1.4933,1.4741,1.4781,1.4974,1.4949,1.4941,1.4949,1.4966,1.4974,1.4982,1.4998,1.5006,1.5006,1.5006,1.5006,1.5006,1.5006,1.5006,1.5006,1.5006,1.5006,1.5006,1.5006,1.5006,1.5006,1.5006,1.5006,1.5006,1.5006,1.5006,1.5006,1.5006,1.5006,1.5006,1.5006,1.5006,1.5006,1.5006,1.5006,1.5006,1.5006,1.5006,1.5006,1.5006,1.5006,1.5006,1.5006,1.5006,1.5006,1.5006,1.5006,1.5006,1.5006,1.5006,1.5006,1.5006,1.5006,1.5006,1.5006,1.5006,1.5006,1.5006,1.5006,1.5006,0.0,0.0,0.0,1.3035,1.3243,0.0,1.359,1.3856,1.4179,1.4524,1.4678,1.4847,1.511,1.4763,1.4364,1.4219,1.3486,1.2729,1.2084,1.1864,1.167,1.1378,1.1317,1.133,1.133,1.1333,1.1349,1.1349,1.1549,1.1719,1.1904,1.2182,1.2515,1.284,1.3206,1.3571,1.4002,1.4249,1.4508,1.4757,1.4941,1.4933,1.4757,1.4757,1.4676,1.4538,1.4538,1.4538,1.45,1.446,1.4594,1.4741,1.4594,1.4538,1.4554,1.4708,1.4757,1.4781,1.4958,1.5006,1.5006,1.5006,1.5006,1.5006,1.5006,1.5006,1.5006,1.5006,1.5006,1.5006,1.5006,1.5006,1.5006,1.5006,1.5006,1.5006,1.5006,1.5006,1.5006,1.5006,1.5006,1.5006,1.5006,1.5006,1.5006,1.5006,1.5006,1.5006,1.5006,1.5006,1.5006,1.5006,1.5006,1.5006,1.5006,1.5006,1.5006,1.5006,1.5006,1.5006,1.5006,1.5006,1.5006,1.5006,1.5006,1.5006,1.5006,1.5006,1.5006,1.5006,1.5006,1.5006,1.2935,1.2893,1.2893,1.2893,1.2945,0.0,0.0,1.3334,1.35,1.3795,1.3954,1.4111,1.4261,1.4218,1.4074,1.3803,1.34,1.2876,1.2109,1.1809,1.1547,1.1242,1.102,1.0916,1.0916,1.0833,1.0839,1.0948,1.1126,1.1302,1.1399,1.1801,1.2166,1.2394,1.2873,1.3319,1.3731,1.4034,1.4302,1.4533,1.4659,1.4651,1.4533,1.4533,1.4484,1.4395,1.4395,1.4395,1.4387,1.4343,1.4359,1.444,1.4395,1.4395,1.4403,1.45,1.4533,1.4549,1.4667,1.47,1.47,1.47,1.47,1.47,1.47,1.4765,1.4838,1.4838,1.4941,1.5006,1.5006,1.5006,1.5006,1.5006,1.5006,1.5006,1.5006,1.5006,1.5006,1.5006,1.5006,1.5006,1.5006,1.5006,1.5006,1.5006,1.5006,1.5006,1.5006,1.5006,1.5006,1.5006,1.5006,1.5006,1.5006,1.5006,1.5006,1.5006,1.5006,1.5006,1.5006,1.5006,1.5006,1.5006,1.5006,1.5006,1.5006,1.5006,1.5006,1.5006,1.5006,1.5006,1.2848,1.2824,1.2885,1.2797,1.2696,1.2694,0.0,0.0,0.0,1.3146,1.338,1.352,1.352,1.3718,1.3733,1.3374,1.3306,1.3078,1.2369,1.2049,1.1678,1.1212,1.0845,1.0596,1.0544,1.0402,1.0392,1.0557,1.0743,1.0846,1.0846,1.1383,1.1752,1.1892,1.2418,1.2945,1.3447,1.3693,1.3977,1.429,1.433,1.4346,1.4346,1.4346,1.433,1.429,1.429,1.429,1.4282,1.418,1.4123,1.414,1.4278,1.429,1.4298,1.433,1.4346,1.4383,1.4387,1.4395,1.4395,1.4395,1.4395,1.4395,1.4395,1.45,1.4651,1.4651,1.4757,1.4862,1.4862,1.4862,1.4862,1.4862,1.4862,1.4862,1.4862,1.4862,1.4862,1.4862,1.4862,1.4925,1.499,1.5006,1.5006,1.5006,1.5006,1.499,1.4958,1.4958,1.4941,1.4909,1.4933,1.4958,1.4958,1.4982,1.5006,1.5006,1.5006,1.5006,1.5006,1.5006,1.5006,1.5006,1.5006,1.5006,1.5006,1.5006,1.5006,1.5006,1.5006,1.5006,1.2459,1.2585,1.2752,1.2446,1.258,1.2782,1.2808,0.0,1.2878,1.3146,0.0,1.3247,1.3247,0.0,0.0,1.2973,1.3011,1.2916,1.2604,1.2723,1.2393,1.1172,1.0829,1.0598,1.035,1.0153,1.0046,1.0071,1.0217,1.0276,1.0276,1.0907,1.137,1.1557,1.2085,1.2516,1.2888,1.3262,1.3647,1.3961,1.4131,1.4205,1.4205,1.4205,1.4115,1.3961,1.3961,1.3961,1.3961,1.3945,1.3937,1.3937,1.3953,1.3961,1.3985,1.4148,1.4205,1.4229,1.4338,1.4395,1.4395,1.4395,1.4395,1.4395,1.4395,1.4411,1.4427,1.4427,1.4435,1.4452,1.4452,1.4452,1.4452,1.4452,1.4452,1.4452,1.4452,1.4452,1.4452,1.4452,1.4452,1.4594,1.4949,1.5006,1.5006,1.5006,1.5006,1.4949,1.4757,1.4741,1.4676,1.4476,1.4643,1.4741,1.4741,1.4917,1.5006,1.5006,1.5006,1.5006,1.5006,1.5006,1.5006,1.5006,1.5006,1.5006,1.5006,1.5006,1.5006,1.5006,1.5006,1.5006,1.2906,1.2919,1.2965,1.2658,1.269,1.2763,1.2551,1.251,1.2551,1.2652,0.0,0.0,0.0,0.0,0.0,0.0,1.2912,1.2898,1.2783,1.2644,1.235,1.1822,1.1435,1.09,1.0085,0.9935,0.9771,0.9505,0.9638,0.978,0.9843,1.0331,1.0737,1.1021,1.1557,1.2012,1.2329,1.2799,1.3189,1.3433,1.3725,1.3836,1.3872,1.3969,1.3977,1.3904,1.3904,1.3904,1.3904,1.3904,1.3904,1.3904,1.3904,1.3904,1.3912,1.3985,1.4018,1.4026,1.4099,1.4123,1.4123,1.4123,1.4123,1.4123,1.4123,1.4196,1.4286,1.4286,1.4359,1.4395,1.4395,1.4395,1.4395,1.4395,1.4395,1.4395,1.4395,1.4395,1.4395,1.4395,1.4395,1.4444,1.4627,1.4749,1.4884,1.499,1.4917,1.4789,1.4716,1.4611,1.4484,1.4403,1.4468,1.4557,1.47,1.4773,1.4901,1.4998,1.5006,1.5006,1.5006,1.5006,1.5006,1.5006,1.5006,1.5006,1.5006,1.5006,1.5006,1.5006,1.5006,1.5006,1.3273,1.3247,1.3253,1.2985,1.2918,1.2837,1.251,1.2358,1.2318,1.243,1.2444,0.0,0.0,0.0,1.2891,1.2816,0.0,1.2956,1.2877,1.2633,1.2408,1.2178,1.1694,1.1011,1.0083,0.9832,0.9569,0.9099,0.9196,0.9273,0.9324,0.9746,1.0129,1.0461,1.0948,1.1403,1.177,1.2264,1.2653,1.2881,1.3212,1.3415,1.3463,1.369,1.3831,1.3831,1.388,1.3904,1.3904,1.3904,1.3904,1.3904,1.3904,1.3904,1.3904,1.3904,1.3904,1.3904,1.3904,1.3904,1.3904,1.3904,1.3904,1.3904,1.3904,1.3993,1.4135,1.4135,1.4188,1.4249,1.4249,1.4249,1.4249,1.4249,1.4249,1.4249,1.4249,1.4249,1.4249,1.4249,1.4249,1.4265,1.4351,1.4513,1.4676,1.4797,1.4716,1.4611,1.457,1.4448,1.4306,1.4257,1.4298,1.4416,1.4554,1.4651,1.4781,1.499,1.5006,1.5006,1.5006,1.5006,1.5006,1.5006,1.5006,1.5006,1.5006,1.5006,1.5006,1.5006,1.5006,1.5006,1.3273,1.3393,1.352,1.3247,1.32,1.312,1.2837,1.2524,1.2385,1.2736,1.2789,1.2864,1.312,1.3186,0.0,0.0,1.3032,0.0,0.0,1.3013,1.2836,1.1922,1.1237,1.0731,1.0497,0.9948,0.9428,0.9028,0.8952,0.8827,0.8645,0.9143,0.9567,0.9926,1.0247,1.0693,1.1211,1.1622,1.1987,1.2337,1.2661,1.2921,1.3124,1.3455,1.3617,1.3625,1.3831,1.3904,1.3904,1.3904,1.3904,1.3904,1.3904,1.3904,1.3904,1.3904,1.3904,1.3904,1.3904,1.3904,1.3904,1.3904,1.3904,1.3904,1.3904,1.3904,1.3912,1.3912,1.3912,1.392,1.392,1.392,1.392,1.392,1.392,1.392,1.392,1.392,1.392,1.392,1.392,1.3977,1.4156,1.4326,1.4403,1.4411,1.4403,1.4346,1.4213,1.4225,1.4115,1.3937,1.4083,1.4225,1.4233,1.4513,1.4781,1.499,1.5006,1.5006,1.5006,1.5006,1.5006,1.5006,1.5006,1.5006,1.5006,1.5006,1.5006,1.5006,1.5006,1.5006,1.4424,1.4295,1.4141,1.3868,1.362,1.3393,1.312,1.2973,1.2933,1.3026,1.3053,1.308,1.3167,1.3193,0.0,0.0,0.0,0.0,0.0,1.2545,1.2499,1.2163,1.1893,1.1423,1.0638,1.0261,0.9717,0.8869,0.8652,0.8577,0.8588,0.8784,0.9094,0.9543,0.9884,1.0247,1.0669,1.1175,1.1589,1.1963,1.2312,1.2605,1.2896,1.3173,1.3382,1.3609,1.3674,1.3798,1.3904,1.3904,1.3904,1.3904,1.3904,1.3904,1.3904,1.3904,1.3904,1.3904,1.3904,1.3904,1.3904,1.3904,1.3904,1.3904,1.3904,1.3985,1.4083,1.4083,1.4083,1.4083,1.4083,1.3993,1.3904,1.3904,1.3904,1.3904,1.3904,1.3904,1.3904,1.3904,1.3904,1.392,1.3985,1.4042,1.412,1.4354,1.4335,1.4245,1.4225,1.4075,1.3969,1.3904,1.3953,1.4042,1.42,1.4505,1.4732,1.4789,1.4941,1.5006,1.5006,1.5006,1.5006,1.5006,1.5006,1.5006,1.5006,1.5006,1.5006,1.5006,1.5006,1.5006,1.5008,1.4852,1.4629,1.4464,1.4095,1.3727,1.3561,1.334,1.322,1.3327,1.334,1.338,1.3507,1.352,0.0,0.0,0.0,0.0,0.0,1.2305,1.2305,1.2305,1.2202,1.1777,1.0866,1.047,0.9834,0.8775,0.8525,0.8368,0.8323,0.8419,0.868,0.911,0.9502,0.9843,1.0118,1.0709,1.1151,1.1395,1.1817,1.2174,1.2467,1.2767,1.3108,1.3423,1.3552,1.3706,1.3904,1.3904,1.3904,1.3904,1.3904,1.3904,1.3904,1.3904,1.3904,1.3904,1.3904,1.3904,1.3904,1.3904,1.3904,1.3904,1.3904,1.4034,1.4217,1.4217,1.4221,1.4253,1.4196,1.4091,1.3985,1.3912,1.3904,1.3904,1.3904,1.3904,1.3904,1.3904,1.3904,1.3904,1.3904,1.3904,1.3977,1.4168,1.4148,1.4083,1.4083,1.3977,1.3904,1.3904,1.3904,1.3977,1.4164,1.4391,1.4578,1.47,1.4814,1.4941,1.4998,1.5006,1.5006,1.5006,1.5006,1.493,1.4776,1.4776,1.4699,1.4545,1.4545,1.4545]},{"header":{"parameterUnit":"m.s-1","parameterCategory":1,"la1":30.6,"la2":29.2853,"lo1":-89.7004,"lo2":-87.6739,"dy":0.0162,"dx":0.0183,"nx":112,"ny":82,"refTime":"2023-09-26T00:00:00:Z","depth":0,"parameterNumber":3,"parameterNumberName":"V-component_of_WINDS"},"data":[0.0,0.0,0.0,0.0,0.0,0.0,0.0,0.0,0.0,0.0,0.0,0.0,0.0,0.0,0.0,0.0,0.0,0.0,0.0,0.0,0.0,0.0,0.0,0.0,0.0,0.0,0.0,0.0,0.0,0.0,0.0,0.0,0.0,0.0,0.0,0.0,0.0,0.0,0.0,0.0,0.0,0.0,0.0,0.0,0.0,0.0,0.0,0.0,0.0,0.0,0.0,0.0,0.0,0.0,0.0,0.0,0.0,0.0,0.0,0.0,0.0,0.0,0.0,0.0,0.0,0.0,0.0,0.0,0.0,0.0,0.0,0.0,0.0,0.0,0.0,0.0,0.0,0.0,0.0,0.0,0.0,0.0,0.0,0.0,0.0,0.0,0.0,0.0,0.0,0.0,4.5161,4.941,5.3513,5.5651,5.4943,5.3444,5.1203,4.8065,0.0,0.0,0.0,0.0,0.0,0.0,0.0,0.0,0.0,0.0,0.0,0.0,0.0,0.0,0.0,0.0,0.0,0.0,0.0,0.0,0.0,0.0,0.0,0.0,0.0,0.0,0.0,0.0,0.0,0.0,0.0,0.0,0.0,0.0,0.0,0.0,0.0,0.0,0.0,0.0,0.0,0.0,0.0,0.0,0.0,0.0,0.0,0.0,0.0,0.0,0.0,0.0,0.0,0.0,0.0,0.0,0.0,0.0,0.0,0.0,0.0,0.0,0.0,0.0,0.0,0.0,0.0,0.0,0.0,0.0,0.0,0.0,0.0,0.0,0.0,0.0,0.0,0.0,0.0,0.0,0.0,0.0,0.0,0.0,0.0,0.0,0.0,0.0,0.0,0.0,0.0,0.0,0.0,0.0,0.0,0.0,0.0,0.0,0.0,0.0,0.0,0.0,0.0,0.0,4.7514,5.3892,5.634,5.7253,5.6495,5.5046,5.2582,4.8858,0.0,0.0,0.0,0.0,0.0,0.0,0.0,0.0,0.0,0.0,0.0,0.0,0.0,0.0,0.0,0.0,0.0,0.0,0.0,0.0,0.0,0.0,0.0,0.0,0.0,0.0,0.0,0.0,0.0,0.0,0.0,0.0,0.0,0.0,0.0,0.0,0.0,0.0,0.0,0.0,0.0,0.0,0.0,0.0,0.0,0.0,0.0,0.0,0.0,0.0,0.0,0.0,0.0,0.0,0.0,0.0,0.0,0.0,0.0,0.0,0.0,0.0,0.0,0.0,0.0,0.0,0.0,0.0,0.0,0.0,0.0,0.0,0.0,0.0,0.0,0.0,0.0,0.0,0.0,0.0,0.0,0.0,0.0,0.0,0.0,0.0,0.0,0.0,0.0,0.0,0.0,0.0,0.0,0.0,0.0,0.0,0.0,0.0,0.0,0.0,0.0,0.0,0.0,4.6687,5.0755,5.5134,5.734,5.8047,5.6909,5.5391,5.2858,4.9051,4.6044,0.0,0.0,0.0,0.0,0.0,0.0,0.0,0.0,0.0,0.0,0.0,0.0,0.0,0.0,0.0,0.0,0.0,0.0,0.0,0.0,0.0,0.0,0.0,0.0,0.0,0.0,0.0,0.0,0.0,0.0,0.0,0.0,0.0,0.0,0.0,0.0,0.0,0.0,0.0,0.0,0.0,0.0,0.0,0.0,0.0,0.0,0.0,0.0,0.0,0.0,0.0,0.0,0.0,0.0,0.0,0.0,0.0,0.0,0.0,0.0,0.0,0.0,0.0,0.0,0.0,0.0,0.0,0.0,0.0,0.0,0.0,0.0,0.0,0.0,0.0,0.0,0.0,0.0,0.0,0.0,0.0,0.0,0.0,0.0,0.0,0.0,0.0,0.0,0.0,0.0,0.0,0.0,0.0,0.0,0.0,0.0,0.0,0.0,0.0,0.0,0.0,0.0,5.0061,5.3341,5.5651,5.7582,5.8219,5.6909,5.503,5.2479,4.9016,4.6514,0.0,0.0,0.0,0.0,0.0,0.0,0.0,0.0,0.0,0.0,0.0,0.0,0.0,0.0,0.0,0.0,0.0,0.0,0.0,0.0,0.0,0.0,0.0,0.0,0.0,0.0,0.0,0.0,0.0,0.0,0.0,0.0,0.0,0.0,0.0,0.0,0.0,0.0,0.0,0.0,0.0,0.0,0.0,0.0,0.0,0.0,0.0,0.0,0.0,0.0,0.0,0.0,0.0,0.0,0.0,0.0,0.0,0.0,0.0,0.0,0.0,0.0,0.0,0.0,0.0,0.0,0.0,0.0,0.0,0.0,0.0,0.0,0.0,0.0,0.0,0.0,0.0,0.0,0.0,0.0,0.0,0.0,0.0,0.0,0.0,0.0,0.0,0.0,0.0,0.0,0.0,0.0,0.0,0.0,0.0,0.0,0.0,0.0,0.0,0.0,0.0,0.0,5.0868,5.4184,5.646,5.746,5.7667,5.6874,5.4065,5.1341,4.8947,4.601,0.0,0.0,0.0,0.0,0.0,0.0,0.0,0.0,0.0,0.0,0.0,0.0,0.0,0.0,0.0,0.0,0.0,0.0,0.0,0.0,0.0,0.0,0.0,0.0,0.0,0.0,0.0,0.0,0.0,0.0,0.0,0.0,0.0,0.0,0.0,0.0,0.0,0.0,0.0,0.0,0.0,0.0,0.0,0.0,0.0,0.0,0.0,0.0,0.0,0.0,0.0,0.0,0.0,0.0,0.0,0.0,0.0,0.0,0.0,0.0,0.0,0.0,0.0,0.0,0.0,0.0,0.0,0.0,0.0,0.0,0.0,0.0,0.0,0.0,0.0,0.0,0.0,0.0,0.0,0.0,0.0,0.0,0.0,0.0,0.0,0.0,0.0,0.0,0.0,0.0,0.0,0.0,0.0,0.0,0.0,0.0,0.0,0.0,0.0,0.0,0.0,0.0,5.0911,5.4287,5.6564,5.746,5.7391,5.6184,5.3685,5.0824,4.7617,0.0,0.0,0.0,0.0,0.0,0.0,0.0,0.0,0.0,0.0,0.0,0.0,0.0,0.0,0.0,0.0,0.0,0.0,0.0,0.0,0.0,0.0,0.0,0.0,0.0,0.0,0.0,0.0,0.0,0.0,0.0,0.0,0.0,0.0,0.0,0.0,0.0,0.0,0.0,0.0,0.0,0.0,0.0,0.0,0.0,0.0,0.0,0.0,0.0,0.0,0.0,0.0,0.0,0.0,0.0,0.0,0.0,0.0,0.0,0.0,0.0,0.0,0.0,0.0,0.0,0.0,0.0,0.0,0.0,0.0,0.0,0.0,0.0,0.0,0.0,0.0,0.0,0.0,0.0,0.0,0.0,0.0,0.0,0.0,0.0,0.0,0.0,0.0,0.0,0.0,0.0,0.0,0.0,0.0,0.0,0.0,0.0,0.0,0.0,0.0,0.0,0.0,4.7307,5.1019,5.4184,5.6219,5.6858,5.6651,5.5375,5.2961,5.01,4.6789,0.0,0.0,0.0,0.0,0.0,0.0,0.0,0.0,0.0,0.0,0.0,0.0,0.0,0.0,0.0,0.0,0.0,0.0,0.0,0.0,0.0,0.0,0.0,0.0,0.0,0.0,0.0,0.0,0.0,0.0,0.0,0.0,0.0,0.0,0.0,0.0,0.0,0.0,0.0,0.0,0.0,0.0,0.0,0.0,0.0,0.0,0.0,0.0,0.0,0.0,0.0,0.0,0.0,0.0,0.0,0.0,0.0,0.0,0.0,0.0,0.0,0.0,0.0,0.0,0.0,0.0,0.0,0.0,0.0,0.0,0.0,0.0,0.0,0.0,0.0,0.0,0.0,0.0,0.0,0.0,0.0,0.0,0.0,0.0,0.0,0.0,0.0,0.0,0.0,0.0,0.0,0.0,0.0,0.0,0.0,0.0,0.0,0.0,0.0,0.0,0.0,0.0,4.8128,5.1328,5.3977,5.5444,5.5582,5.5306,5.4547,5.1735,4.901,0.0,0.0,0.0,0.0,0.0,0.0,0.0,0.0,0.0,0.0,0.0,0.0,0.0,0.0,0.0,0.0,0.0,0.0,0.0,0.0,0.0,0.0,0.0,0.0,0.0,0.0,0.0,0.0,0.0,0.0,0.0,0.0,0.0,0.0,0.0,0.0,0.0,0.0,0.0,0.0,0.0,0.0,0.0,0.0,0.0,0.0,0.0,0.0,0.0,0.0,0.0,0.0,0.0,0.0,0.0,0.0,0.0,0.0,0.0,0.0,0.0,0.0,0.0,0.0,0.0,0.0,0.0,0.0,0.0,0.0,0.0,0.0,0.0,0.0,0.0,0.0,0.0,0.0,0.0,0.0,0.0,0.0,0.0,0.0,0.0,0.0,0.0,0.0,0.0,0.0,0.0,0.0,0.0,0.0,0.0,0.0,0.0,0.0,0.0,0.0,0.0,0.0,0.0,4.8128,5.1328,5.3977,5.5444,5.5582,5.5099,5.3839,5.1459,4.8789,4.5914,0.0,0.0,0.0,0.0,0.0,0.0,0.0,0.0,0.0,0.0,0.0,0.0,0.0,0.0,0.0,0.0,0.0,0.0,0.0,0.0,0.0,0.0,0.0,0.0,0.0,0.0,0.0,0.0,0.0,0.0,0.0,0.0,0.0,0.0,0.0,0.0,0.0,0.0,0.0,0.0,0.0,0.0,0.0,0.0,0.0,0.0,0.0,0.0,0.0,0.0,0.0,0.0,0.0,0.0,0.0,0.0,0.0,0.0,0.0,0.0,0.0,0.0,0.0,0.0,0.0,0.0,0.0,0.0,0.0,0.0,0.0,0.0,0.0,0.0,0.0,0.0,0.0,0.0,0.0,0.0,0.0,0.0,0.0,0.0,0.0,0.0,0.0,0.0,0.0,0.0,0.0,0.0,0.0,0.0,0.0,0.0,0.0,0.0,0.0,0.0,0.0,0.0,4.8128,5.1053,5.3375,5.4582,5.4996,5.4547,5.303,5.1149,4.8686,4.5604,0.0,0.0,0.0,0.0,0.0,0.0,0.0,0.0,0.0,0.0,0.0,0.0,0.0,0.0,0.0,0.0,0.0,0.0,0.0,0.0,0.0,0.0,0.0,0.0,0.0,0.0,0.0,0.0,0.0,0.0,0.0,0.0,0.0,0.0,0.0,0.0,0.0,0.0,0.0,0.0,0.0,0.0,0.0,0.0,0.0,0.0,0.0,0.0,0.0,0.0,0.0,0.0,0.0,0.0,0.0,0.0,0.0,0.0,0.0,0.0,0.0,0.0,0.0,0.0,0.0,0.0,0.0,0.0,0.0,0.0,0.0,0.0,0.0,0.0,0.0,0.0,0.0,0.0,0.0,0.0,0.0,0.0,0.0,0.0,0.0,0.0,0.0,0.0,0.0,0.0,0.0,0.0,0.0,0.0,0.0,0.0,0.0,0.0,0.0,0.0,0.0,0.0,4.8128,5.0626,5.2513,5.3322,5.4011,5.3789,5.2341,5.0789,4.8651,4.5707,0.0,0.0,0.0,0.0,0.0,0.0,0.0,0.0,0.0,0.0,0.0,0.0,0.0,0.0,0.0,0.0,0.0,0.0,0.0,0.0,0.0,0.0,0.0,0.0,0.0,0.0,0.0,0.0,0.0,0.0,0.0,0.0,0.0,0.0,0.0,0.0,0.0,0.0,0.0,0.0,0.0,0.0,0.0,0.0,0.0,0.0,0.0,0.0,0.0,0.0,0.0,0.0,0.0,0.0,0.0,0.0,0.0,0.0,0.0,0.0,3.9815,3.8557,0.0,0.0,0.0,0.0,0.0,0.0,0.0,0.0,0.0,0.0,0.0,0.0,0.0,0.0,0.0,0.0,0.0,0.0,0.0,0.0,0.0,0.0,0.0,0.0,0.0,0.0,0.0,0.0,0.0,0.0,0.0,0.0,0.0,0.0,0.0,0.0,0.0,0.0,0.0,0.0,4.8128,5.0626,5.2513,5.3322,5.3529,5.3253,5.2272,5.0272,4.8272,4.6445,4.4367,0.0,0.0,0.0,0.0,0.0,0.0,0.0,0.0,0.0,0.0,0.0,0.0,0.0,0.0,0.0,0.0,0.0,0.0,0.0,0.0,0.0,0.0,0.0,0.0,0.0,0.0,0.0,0.0,0.0,0.0,0.0,0.0,0.0,0.0,0.0,0.0,0.0,0.0,0.0,0.0,0.0,0.0,0.0,0.0,0.0,0.0,0.0,0.0,0.0,0.0,0.0,0.0,0.0,0.0,0.0,0.0,0.0,0.0,0.0,4.4237,4.2044,0.0,0.0,0.0,0.0,0.0,0.0,0.0,0.0,0.0,0.0,0.0,0.0,0.0,0.0,0.0,0.0,0.0,0.0,0.0,0.0,0.0,0.0,0.0,0.0,0.0,0.0,0.0,0.0,0.0,0.0,0.0,0.0,0.0,0.0,0.0,0.0,0.0,0.0,0.0,0.0,4.8148,5.0626,5.2513,5.3322,5.3736,5.3444,5.2306,5.0479,4.8582,4.672,4.4781,0.0,0.0,0.0,0.0,0.0,0.0,0.0,0.0,0.0,0.0,0.0,0.0,0.0,0.0,0.0,0.0,0.0,0.0,0.0,0.0,0.0,0.0,0.0,0.0,0.0,0.0,0.0,0.0,0.0,0.0,0.0,0.0,0.0,0.0,0.0,0.0,0.0,0.0,0.0,0.0,0.0,0.0,0.0,0.0,0.0,0.0,0.0,0.0,0.0,0.0,0.0,0.0,0.0,5.0179,5.0981,5.1305,5.2855,5.3889,5.4221,4.985,4.7046,4.5406,4.4252,0.0,0.0,0.0,0.0,0.0,0.0,0.0,0.0,0.0,0.0,0.0,0.0,0.0,0.0,0.0,0.0,0.0,0.0,0.0,0.0,0.0,0.0,4.6515,4.6636,4.7124,4.6853,4.4228,0.0,0.0,0.0,0.0,0.0,0.0,0.0,0.0,0.0,0.0,0.0,4.8431,5.071,5.2513,5.3322,5.3927,5.372,5.2306,5.0858,4.9079,4.6927,4.532,4.385,0.0,0.0,0.0,0.0,0.0,0.0,0.0,0.0,0.0,0.0,0.0,0.0,0.0,0.0,0.0,0.0,0.0,0.0,0.0,0.0,0.0,0.0,0.0,0.0,0.0,0.0,0.0,0.0,0.0,0.0,0.0,0.0,3.6122,3.6215,0.0,0.0,0.0,0.0,0.0,0.0,0.0,0.0,0.0,0.0,0.0,0.0,0.0,4.9446,5.1671,5.2745,5.3963,5.5336,5.5837,5.644,5.7125,5.8184,5.8773,5.9041,5.8954,0.0,5.1023,4.9463,0.0,0.0,0.0,0.0,0.0,0.0,0.0,0.0,0.0,0.0,0.0,0.0,0.0,0.0,0.0,0.0,0.0,0.0,0.0,0.0,0.0,0.0,4.9661,5.0322,5.0558,5.0338,4.9304,4.7579,4.5819,4.4533,4.4296,4.3822,0.0,0.0,0.0,0.0,0.0,0.0,4.9218,5.1098,5.2513,5.3322,5.3494,5.3184,5.2272,5.0858,4.9321,4.7651,4.61,4.4859,4.4035,4.2711,0.0,0.0,0.0,0.0,0.0,0.0,0.0,0.0,0.0,0.0,0.0,0.0,0.0,0.0,0.0,0.0,0.0,0.0,0.0,0.0,0.0,0.0,0.0,0.0,0.0,0.0,0.0,0.0,0.0,3.6322,3.7801,3.8284,3.8702,3.8583,0.0,0.0,0.0,0.0,0.0,0.0,0.0,0.0,0.0,5.0997,5.3287,5.5312,5.7161,5.8519,5.9957,6.1548,6.2105,6.2851,6.3693,6.4549,6.5003,6.5065,6.493,6.3168,6.0047,5.538,5.1963,4.9533,0.0,0.0,0.0,0.0,4.8746,4.9843,5.1061,5.1933,5.2438,5.2337,0.0,0.0,0.0,0.0,0.0,0.0,0.0,4.956,5.0728,5.1826,5.2807,5.3534,5.3737,5.3534,5.2773,5.1876,5.0252,4.7056,4.6447,4.5974,4.4451,4.4623,0.0,0.0,0.0,4.8689,5.0189,5.1836,5.3168,5.3942,5.4011,5.3513,5.2306,5.1237,4.9789,4.7824,4.6686,4.5548,4.4345,4.3241,4.2482,0.0,0.0,0.0,0.0,0.0,0.0,0.0,0.0,0.0,0.0,0.0,0.0,0.0,0.0,0.0,0.0,0.0,0.0,0.0,0.0,0.0,0.0,0.0,0.0,0.0,0.0,0.0,0.0,3.8161,3.9803,4.0874,4.142,4.1497,0.0,0.0,0.0,0.0,0.0,0.0,4.9922,5.2152,5.4225,5.6236,5.8942,6.1026,6.2286,6.3939,6.5497,6.6904,6.7478,6.8082,6.8808,6.9586,6.9857,6.9654,6.9214,6.8538,6.7163,6.0718,5.6724,5.458,5.3433,5.2547,5.2,5.2959,5.379,5.4639,5.5723,5.6421,5.6747,5.619,5.5141,5.3805,5.2486,0.0,0.0,0.0,0.0,5.323,5.4566,5.5615,5.6494,5.7239,5.739,5.7171,5.619,5.5987,5.4566,4.9679,4.8732,4.8293,4.6805,4.7121,0.0,4.714,4.8758,5.0375,5.1432,5.2624,5.3667,5.441,5.4478,5.3858,5.2341,5.1686,5.0341,4.7858,4.7169,4.6182,4.4643,4.3862,4.3103,4.2332,0.0,0.0,0.0,0.0,0.0,0.0,0.0,0.0,0.0,0.0,0.0,0.0,0.0,0.0,0.0,0.0,0.0,0.0,0.0,0.0,0.0,0.0,0.0,0.0,0.0,0.0,0.0,0.0,0.0,4.4086,4.4297,0.0,0.0,0.0,0.0,4.7892,5.0406,5.2798,5.5029,5.8174,6.0385,6.1401,6.4472,6.6546,6.7514,6.9057,7.0241,7.1019,7.1052,7.1086,7.1154,7.1887,7.1853,7.1244,7.1887,7.1345,6.9654,6.4847,6.1969,6.0415,5.8777,5.7696,5.7163,5.8089,5.8467,5.874,6.0376,6.0486,5.9877,5.9844,5.7897,5.5428,5.4668,5.438,0.0,0.0,5.5903,5.7746,5.8506,5.9844,6.1163,6.1873,6.2042,6.1637,6.0148,5.981,5.8084,5.2182,5.1032,5.0558,4.9086,0.0,4.9457,5.0241,5.0647,5.1432,5.3049,5.3356,5.3667,5.441,5.4478,5.3858,5.2341,5.2168,5.0858,4.7893,4.7686,4.6962,4.5397,4.463,4.3897,4.3138,4.2344,0.0,0.0,0.0,0.0,0.0,0.0,0.0,0.0,0.0,0.0,0.0,0.0,0.0,0.0,0.0,0.0,0.0,0.0,0.0,0.0,0.0,0.0,0.0,0.0,0.0,0.0,0.0,0.0,4.8432,4.9226,0.0,5.0247,5.0928,5.1873,5.319,5.5913,5.8383,6.0336,6.3394,6.5489,6.6487,6.8982,7.0467,7.0804,7.1785,7.2699,7.342,7.342,7.368,7.4153,7.439,7.439,7.4119,7.3916,7.351,7.2834,7.0196,6.7382,6.4647,6.3539,6.2675,6.2136,6.2924,6.3248,6.3383,6.4492,6.4627,6.4275,6.3294,6.1637,5.9877,5.9133,5.8558,5.8254,5.8761,5.981,6.1081,6.2279,6.3362,6.4208,6.4465,6.4532,6.4106,6.2618,6.1907,6.0655,5.7543,5.5395,5.3822,5.2939,5.254,5.2477,5.2925,5.3513,5.3983,5.4099,5.4513,5.472,5.4513,5.4478,5.3858,5.2341,5.2203,5.0927,4.7893,4.7686,4.7031,4.5466,4.4699,4.4173,4.3897,4.3172,4.2654,0.0,0.0,0.0,0.0,0.0,0.0,0.0,0.0,0.0,0.0,0.0,0.0,0.0,0.0,0.0,0.0,0.0,0.0,0.0,0.0,0.0,0.0,0.0,0.0,0.0,4.759,5.0404,5.2587,5.4084,5.5036,5.5449,5.6558,5.7692,5.8729,6.1354,6.3577,6.5104,6.7735,6.9522,7.0195,7.236,7.351,7.351,7.4492,7.5236,7.5743,7.5743,7.5879,7.6115,7.6115,7.5946,7.5676,7.5202,7.4965,7.4897,7.3646,7.1684,6.9316,6.8064,6.7286,6.6914,6.7421,6.759,6.7658,6.8166,6.7975,6.7421,6.644,6.5121,6.3802,6.3294,6.2787,6.2482,6.3024,6.37,6.4478,6.5459,6.6271,6.6867,6.6867,6.6664,6.6102,6.4864,6.4038,6.3057,6.1535,5.8844,5.6649,5.6114,5.5758,5.5601,5.5784,5.6139,5.6202,5.5701,5.5874,5.572,5.4961,5.4858,5.4134,5.2341,5.2203,5.0927,4.7893,4.7686,4.7031,4.5466,4.4941,4.454,4.4311,4.3586,4.3207,4.3207,0.0,0.0,0.0,0.0,0.0,0.0,0.0,0.0,0.0,0.0,0.0,0.0,0.0,0.0,0.0,0.0,0.0,0.0,0.0,0.0,0.0,0.0,0.0,4.8682,5.1908,5.4905,5.6531,5.8687,6.0174,6.0572,6.2111,6.3469,6.4407,6.6707,6.8368,6.918,7.1278,7.2496,7.2496,7.4593,7.5743,7.5777,7.7232,7.8,7.8,7.8,7.7638,7.6927,7.6927,7.6487,7.5743,7.5743,7.5709,7.5642,7.4931,7.4637,7.4434,7.2236,7.1391,7.1391,7.1424,7.1424,7.1391,7.1391,7.0444,6.9214,6.918,6.8166,6.6927,6.6893,6.6859,6.6859,6.6893,6.7455,6.7996,6.803,6.8605,6.9214,6.918,6.8559,6.7747,6.7015,6.6224,6.5243,6.3835,6.1163,5.8937,5.8391,5.8452,5.8647,5.8874,5.8376,0.0,5.7978,5.7322,5.6564,5.5754,5.5616,5.4685,5.2479,5.2272,5.0962,4.7962,4.7789,4.71,4.5535,4.5466,4.5134,4.4414,4.369,4.3345,4.3345,0.0,0.0,0.0,0.0,0.0,0.0,0.0,0.0,0.0,0.0,0.0,0.0,0.0,0.0,0.0,0.0,0.0,0.0,0.0,0.0,0.0,5.1458,5.4197,5.3944,5.6673,5.9465,6.168,6.3563,6.4896,6.5572,6.6706,6.7732,6.854,7.0173,7.1244,7.1481,7.3071,7.4255,7.4762,7.5946,7.6826,7.7333,7.7797,7.8,7.8,7.8,7.7899,7.7705,7.7705,7.7299,7.6555,7.6555,7.6251,7.5676,7.5473,7.5743,7.6115,7.439,7.369,7.3781,7.4289,7.4153,7.369,7.369,7.3071,7.209,7.1041,7.041,6.9869,6.8808,6.847,6.8571,6.9113,6.9789,7.05,7.1007,7.1345,7.139,7.1026,6.995,6.8816,6.8224,6.6644,6.5227,6.4818,6.3202,6.1654,6.0926,6.0529,6.0384,6.0562,6.046,6.0185,5.9633,5.8875,5.8099,5.7357,5.6271,5.5134,5.3961,5.3391,5.2011,4.9513,4.9375,4.8686,4.7134,4.7065,4.6962,4.6769,4.6562,4.6458,0.0,0.0,0.0,0.0,0.0,0.0,0.0,0.0,0.0,0.0,0.0,0.0,0.0,0.0,0.0,0.0,0.0,0.0,0.0,0.0,0.0,0.0,5.5947,5.8982,6.0735,6.2193,6.3846,6.588,6.7805,6.914,6.9557,7.0681,7.1582,7.2022,7.3443,7.4289,7.4289,7.5405,7.6217,7.6657,7.7435,7.8044,7.845,7.8754,7.8923,7.8923,7.8923,7.8754,7.845,7.845,7.8044,7.7333,7.7029,7.6792,7.6623,7.6318,7.6657,7.7232,0.0,0.0,0.0,0.0,7.6386,7.598,7.5676,7.5067,7.4221,7.3071,7.2462,7.2056,7.121,7.0939,7.1063,7.1615,7.2045,7.2508,7.3062,7.3187,7.3051,7.249,7.1528,7.0507,6.9557,6.8148,6.6848,6.6112,6.539,0.0,6.3905,6.3091,6.263,6.2936,6.2713,6.2228,6.1467,6.0705,5.9804,5.8731,5.7796,5.6552,5.4777,5.4224,0.0,0.0,0.0,4.9927,4.872,4.8341,0.0,0.0,0.0,4.8169,4.8169,4.8429,0.0,0.0,4.6234,4.6165,0.0,0.0,0.0,0.0,0.0,0.0,0.0,0.0,0.0,0.0,0.0,0.0,0.0,0.0,0.0,0.0,6.0444,6.3497,6.7692,6.7861,6.803,6.9316,7.1345,7.2665,7.2766,7.4052,7.4874,7.4999,7.6251,7.7029,7.7029,7.7638,0.0,0.0,0.0,7.916,7.9203,7.987,8.0209,8.0209,8.0209,7.987,7.9203,7.9203,7.8822,7.8077,7.7333,7.7401,7.7967,7.7198,7.7367,7.8044,7.7401,7.7604,7.8247,7.8247,7.8204,7.801,7.7266,0.0,0.0,7.4887,7.42,7.3681,7.3603,7.3592,7.3695,7.4048,7.4173,7.4241,7.4614,7.4647,7.4417,7.3869,7.3222,7.2354,7.0929,7.0105,6.9142,6.7488,6.7408,6.7445,6.6889,6.5792,6.5105,6.5469,6.4932,6.4183,6.3485,6.2648,6.1567,6.0085,5.9771,0.0,5.5497,5.517,5.4087,5.1691,5.1366,5.0986,5.0316,4.9611,4.9217,4.9203,4.9203,4.9203,4.9203,4.9893,5.0582,5.1203,4.9624,4.9005,0.0,0.0,0.0,0.0,0.0,0.0,0.0,0.0,0.0,0.0,0.0,0.0,0.0,0.0,0.0,6.1795,6.4762,6.7557,7.0263,7.1548,7.209,7.1785,7.3206,7.4424,7.4999,7.5912,7.669,7.7299,7.7604,7.7797,7.7797,7.7908,7.8247,7.8889,7.9025,7.9397,7.9972,8.0141,8.0209,8.0209,8.0209,0.0,8.0006,8.0006,7.96,7.8855,7.8111,7.7874,7.7967,7.7198,7.7705,7.8889,7.8754,7.9126,7.9769,7.9769,7.9397,7.8788,7.8044,7.7299,7.6502,7.5302,7.4852,7.4637,7.4287,7.4262,0.0,7.5372,7.5765,7.6101,7.6895,7.6682,7.613,7.5742,7.4627,7.3331,7.211,7.078,6.9492,6.836,6.7834,6.7799,6.8398,6.757,6.6813,6.6884,6.6389,6.591,6.5769,6.4463,6.3178,6.2115,6.097,5.9628,5.8088,5.7409,5.6265,5.4359,5.3073,5.2284,5.2048,5.1874,5.1731,5.1548,5.1548,5.1548,5.1548,5.1686,5.1858,5.1961,5.1035,5.0932,0.0,0.0,0.0,0.0,0.0,0.0,0.0,0.0,0.0,0.0,0.0,5.3885,5.6268,0.0,6.2721,6.5811,6.8166,7.0398,7.2642,7.3916,7.4458,7.4086,7.5067,7.6048,7.6758,7.7536,7.8145,7.8517,7.8889,7.9092,7.9092,7.9092,7.9261,7.9634,7.9667,7.9837,8.0209,8.0209,8.0209,8.0209,8.0209,8.0209,8.0209,8.0209,7.9803,7.9058,7.8314,7.8213,7.8551,7.8699,7.9263,8.0066,8.0155,8.0294,8.041,8.041,8.0247,7.9964,7.9206,7.853,7.7856,7.6952,7.6485,7.6243,7.6075,7.6179,7.6487,7.7063,7.7403,7.7741,7.8357,7.8244,7.775,7.6953,7.6299,7.5229,7.3191,7.2207,7.1348,6.9929,6.9513,6.968,7.0551,7.0406,6.9785,6.8715,6.7947,6.7354,6.6942,6.5855,6.461,6.334,6.2475,6.127,5.9436,5.8472,5.7545,5.654,5.5769,5.5244,5.5072,5.4689,5.4355,5.4221,5.3825,5.3602,5.3602,5.3602,5.3602,5.3602,5.3652,5.3545,0.0,0.0,0.0,0.0,0.0,0.0,0.0,5.1296,5.3094,5.4847,5.698,5.9201,6.1434,6.4072,6.6779,6.9519,7.1075,7.2608,7.4559,7.5337,7.5743,7.5912,7.6758,7.757,7.8145,7.8889,7.9304,7.9304,7.987,8.0209,8.0209,8.0209,8.0209,8.0209,8.0209,8.0209,8.0209,8.0209,8.0209,8.0209,8.0209,8.0107,8.0006,8.0006,7.9625,7.893,7.8443,7.8535,7.917,8.0238,8.0883,8.1214,8.1421,8.1349,8.1058,8.0946,8.1019,8.1111,8.0395,7.9806,7.9281,7.8738,7.8231,7.7832,7.8068,7.8287,7.8538,7.88,7.9004,7.9225,7.9479,7.9432,7.9047,7.7946,7.7719,7.6931,7.4134,7.3635,7.3215,7.1411,7.1344,7.1797,7.2428,7.301,7.2657,7.0714,6.9749,6.8899,6.794,6.7131,6.5983,6.4352,6.3961,6.2823,6.0447,5.9272,5.8627,5.8444,5.8308,5.8088,5.78,5.7173,5.6731,5.6613,5.5813,5.5399,5.5368,5.5213,5.5198,5.5342,5.597,5.5749,4.392,4.5139,4.7314,4.9539,5.1732,5.3732,0.0,5.7413,5.9704,6.1902,6.3579,6.5392,6.7658,6.9451,7.1109,7.2755,7.3713,7.4559,7.5439,7.5642,7.598,7.669,7.801,7.8889,7.8991,7.9634,8.0073,8.0073,8.0141,8.0209,8.0209,8.0209,8.0209,8.0209,8.0209,8.0209,8.0209,8.0209,8.0209,8.0209,8.0209,7.987,7.9203,7.9203,7.8912,7.841,7.8797,7.9021,7.9194,8.0385,8.132,8.199,8.2188,8.2497,8.2746,8.2141,8.1943,8.1909,8.1343,8.077,8.0168,7.9694,7.9247,7.8948,7.917,7.9471,7.982,8.012,8.0308,8.0548,8.075,8.028,7.9557,7.888,7.8206,7.7059,7.4768,7.4285,7.378,7.2045,7.2372,7.3005,7.3078,7.3888,7.4086,7.2834,7.206,7.1059,6.9566,6.8655,6.7469,6.5763,6.49,6.3699,6.1656,6.0602,6.0086,6.0037,5.9314,5.8802,5.8595,5.8394,5.8213,5.8066,5.7258,5.6811,5.6699,5.598,5.5892,5.641,5.6515,5.6368,4.7533,4.8915,5.0938,5.3635,5.6014,5.8177,6.0188,6.2694,6.5053,6.6474,6.8267,6.9891,7.0838,7.2225,7.342,7.4052,7.4762,7.5337,7.5676,7.6115,7.6521,7.686,7.7807,7.845,7.845,7.9126,7.9566,7.9566,7.9972,8.0006,7.96,7.9566,7.9363,7.8923,7.8923,7.9126,7.9566,7.9566,7.9769,8.0175,7.9769,7.9472,7.9315,7.8841,7.8486,7.8314,7.8661,7.8923,7.9285,8.0824,8.1922,8.2632,8.3364,8.3869,8.4142,8.3081,8.2836,8.3068,8.2979,8.2545,8.1999,8.1581,8.1116,8.0692,8.0433,8.0531,8.0768,8.0894,8.1055,8.1213,8.1337,8.0755,8.0007,7.9391,7.8621,7.7413,7.5174,7.4708,7.4217,7.2533,7.2906,7.3661,7.4122,7.4915,7.537,7.4866,7.336,7.205,7.1355,6.9781,6.8004,6.6295,6.5369,6.4325,6.2908,6.2454,6.1987,6.1435,6.1055,6.0738,6.0452,6.0381,6.0282,6.0174,5.9352,5.8716,5.8167,5.7396,5.7154,5.7441,5.7854,5.8202,5.0642,5.257,5.4871,5.7881,6.0452,6.2888,6.5371,6.776,6.9722,7.0737,7.2191,7.324,7.3037,7.3883,7.4603,7.4603,7.5067,7.5473,7.5676,7.6048,7.6284,7.6284,7.6555,7.6782,7.6782,7.7976,7.8822,7.8822,7.9295,7.9363,7.8822,7.8822,7.8551,7.8034,7.8049,7.8471,7.9192,7.934,7.9686,8.0195,7.9726,7.9406,7.9156,7.855,7.8305,7.8474,7.879,7.9247,7.9852,8.133,8.2433,8.3366,8.4195,8.4872,8.5267,8.4287,8.4058,8.4281,8.4508,8.4215,8.3663,8.3123,8.2647,8.2088,8.1433,8.1389,8.1508,8.1272,8.1338,8.1366,8.1147,8.0526,7.9775,7.9373,7.862,7.7516,7.5659,7.505,7.45,7.3083,7.3303,7.3964,7.4757,7.5579,7.6166,7.6387,7.4771,7.3266,7.2606,7.0403,6.8344,6.6833,6.5976,6.5118,6.4171,6.4084,6.3789,6.3099,6.2791,6.2539,6.2273,6.205,6.1837,6.1726,6.0959,6.0246,5.9615,5.8631,5.8366,5.8772,5.9105,5.9758,5.2976,5.6037,5.952,6.253,6.5493,6.8436,7.1447,7.2732,7.3713,7.5202,7.554,7.5371,7.4695,7.4593,7.4603,7.4603,7.4603,7.4897,7.5608,7.51,7.4671,7.4671,7.4052,7.3635,7.3635,7.6308,7.8034,7.8034,7.8068,7.8068,7.8034,7.8034,7.8034,7.8,7.8186,7.8682,7.9463,7.9915,8.0179,8.0213,8.045,7.9775,7.8316,7.8233,7.8427,7.8814,7.9495,8.0315,8.1188,8.1696,8.2821,8.4302,8.451,8.5206,8.6081,8.6044,8.5782,8.5475,8.5687,8.5351,8.4719,8.3919,8.3368,8.2913,8.2125,8.2022,8.2023,8.1236,8.1016,8.0849,8.0057,7.925,7.8647,7.8626,7.7949,7.7105,7.624,7.5469,7.4647,7.3817,7.3685,7.3964,7.4757,7.5579,7.635,7.7142,7.6518,7.5139,7.2789,7.0403,6.8568,6.776,6.6953,6.6132,6.5312,6.5238,6.5238,6.5202,6.4302,6.3748,6.3735,6.2874,6.2394,6.2357,6.1568,6.1103,6.0936,5.9338,5.931,6.0715,5.9928,6.0435,5.6341,5.952,6.2699,6.5696,6.8673,7.1413,7.3409,7.483,7.5743,7.5709,7.5303,7.4593,7.3375,7.2766,7.2574,7.3071,7.3544,7.4119,7.4864,7.4739,7.4603,7.4603,7.395,7.35,7.35,7.5303,7.6454,7.6454,7.7425,7.7797,7.7299,7.7266,7.7101,7.6761,7.6988,7.7612,7.8669,7.9017,7.9453,8.0062,7.9982,7.953,7.8855,7.9145,7.9463,7.9872,8.0215,8.0729,8.131,8.1997,8.3102,8.4353,8.4971,8.5807,8.6715,8.6715,8.6261,8.5679,8.5627,8.548,8.5113,8.3883,8.3417,8.3151,8.2361,8.177,8.1342,8.1085,8.0608,8.0147,7.989,7.9192,7.8589,7.8589,7.7913,7.7069,7.6276,7.5469,7.4647,7.3854,7.3722,7.378,7.4074,7.5212,7.6387,7.7179,7.6151,7.4625,7.2753,7.1307,7.0169,6.9389,6.9045,6.8348,6.699,6.688,6.6439,6.5362,6.4992,6.4563,6.4026,6.3681,6.3253,6.2691,6.2398,6.1982,6.1396,6.0335,6.031,6.1296,6.0529,6.0941,5.937,6.2821,6.6203,6.9147,7.1548,7.3646,7.5405,7.6149,7.6251,7.5473,7.4322,7.2902,7.1109,7.0261,7.0136,7.1175,7.2022,7.2983,7.4273,7.4239,7.4069,7.4069,7.339,7.3096,7.3481,7.4581,7.5361,7.5411,7.6632,7.7164,7.6785,7.6846,7.6726,7.6379,7.6759,7.7546,7.8653,7.9103,7.9745,8.0528,8.0099,7.9806,7.9663,8.0044,8.0456,8.084,8.1037,8.132,8.1669,8.2179,8.301,8.4073,8.4862,8.5554,8.6187,8.6481,8.604,8.5399,8.5536,8.5411,8.4989,8.3788,8.3381,8.3197,8.2113,8.1415,8.0901,8.0314,7.9764,7.9302,7.8993,7.8516,7.8148,7.8148,7.7693,7.7179,7.6628,7.5894,7.5102,7.4294,7.3891,7.3722,7.3722,7.5028,7.6387,7.7179,7.6188,7.483,7.3523,7.2408,7.1417,7.0624,7.0257,6.9669,6.8655,6.8288,6.7687,6.6646,6.6072,6.5375,6.4567,6.4249,6.3686,6.2829,6.2793,6.2536,6.2034,6.1227,6.1227,6.1998,6.119,6.1471,6.2144,6.6,7.0026,7.2958,7.4221,7.5337,7.7435,7.6724,7.5371,7.4559,7.254,7.0297,6.803,6.7204,6.7405,6.8944,7.0102,7.1597,7.3909,7.3623,7.3201,7.3235,7.2585,7.2501,7.3426,7.425,7.4828,7.5093,7.575,7.6286,7.6541,7.6736,7.6839,7.6884,7.7588,7.8415,7.9336,8.0181,8.0902,8.1479,8.0761,8.0567,8.0768,8.0948,8.1267,8.163,8.1835,8.2002,8.2186,8.2186,8.2663,8.3491,8.4242,8.4572,8.4682,8.5453,8.5196,8.4572,8.5343,8.5123,8.4352,8.3528,8.3234,8.2941,8.1415,8.0901,8.0571,7.9029,7.8552,7.8332,7.7509,7.7289,7.7289,7.7289,7.7289,7.7289,7.7289,7.6628,7.5799,7.505,7.4221,7.3648,7.367,7.4992,7.6313,7.7105,7.6628,7.5873,7.505,7.356,7.2275,7.149,7.0697,7.022,7.0146,6.9449,6.9009,6.8898,6.7467,6.6219,6.5325,6.4567,6.3723,6.2829,6.2793,6.2793,6.2793,6.1998,6.1998,6.2793,6.1961,6.2034,6.7151,7.0251,7.2969,7.5405,7.6589,7.713,7.7164,7.554,7.3567,7.1684,6.8639,6.5839,6.4253,6.3995,6.4625,6.6446,6.8934,7.1498,7.4016,7.4175,7.4266,7.482,7.4239,7.3899,7.417,7.5364,7.6287,7.6525,7.6785,7.6997,7.7244,7.7276,7.7541,7.806,7.8399,7.8987,7.9902,8.0575,8.1057,8.1327,8.1163,8.1267,8.1579,8.1666,8.1818,8.2055,8.2104,8.2154,8.2186,8.2186,8.2663,8.3418,8.3638,8.4058,8.4609,8.4829,8.4022,8.2847,8.303,8.2994,8.2663,8.1893,8.1195,8.0645,8.022,7.969,7.914,7.8699,7.8148,7.7582,7.7362,7.7289,7.7289,7.7289,7.7289,7.7289,7.7289,7.6188,7.516,7.494,7.378,7.301,7.3597,7.4551,7.5491,7.6276,7.6738,7.6702,7.5909,7.4404,7.3303,7.312,7.2386,7.1651,7.105,7.0793,7.0169,6.8958,6.8518,6.738,6.5362,6.5105,6.4297,6.2829,6.2793,6.2793,6.2793,6.1998,6.1998,6.2793,6.1961,6.2034,7.077,7.3274,7.5371,7.6961,7.7198,7.669,7.5642,7.3138,7.0297,6.7793,6.4275,6.1375,6.0471,6.0526,6.1731,6.4708,6.7698,7.0631,7.3501,7.4207,7.4718,7.5509,7.5214,7.5274,7.6097,7.6941,7.7691,7.8246,7.7858,7.7772,7.8082,7.8188,7.8462,7.8917,7.9305,7.9911,8.075,8.1161,8.1493,8.17,8.17,8.1818,8.2038,8.2038,8.2104,8.2186,8.2186,8.2186,8.2186,8.2186,8.248,8.292,8.3271,8.3471,8.3544,8.3544,8.2737,8.1636,8.1269,8.0901,8.0608,8.0498,8.0183,7.9743,7.9376,7.8956,7.8516,7.8148,7.7693,7.7289,7.7289,7.7289,7.7289,7.7289,7.7289,7.7215,7.6848,7.6041,7.5212,7.4515,7.3377,7.2753,7.3575,7.4368,7.516,7.5983,7.6775,7.7142,7.6665,7.5542,7.4478,7.3795,7.3303,7.2716,7.1894,7.149,7.0756,6.9522,6.9119,6.782,6.5398,6.5288,6.4517,6.2829,6.2793,6.2793,6.2793,6.2365,6.2352,6.2793,6.2352,6.2365,7.3646,7.5608,7.7367,7.7976,7.6893,7.5236,7.3466,7.006,6.644,6.328,5.9832,5.7266,5.6867,5.7378,5.9178,6.3255,6.6338,6.9318,7.2543,7.3786,7.4728,7.574,7.5953,7.6669,7.8354,7.8623,7.9037,7.9834,7.9019,7.8664,7.9034,7.9236,7.9455,7.9695,8.0288,8.093,8.1613,8.1835,8.2038,8.2186,8.2186,8.2186,8.2186,8.2076,8.2039,8.2039,8.1929,8.1929,8.2039,8.2039,8.2113,8.226,8.2994,8.2737,8.2039,8.2039,8.1452,8.0571,7.9874,7.9103,7.8552,7.9376,7.9559,7.9339,7.8626,7.8442,7.8259,7.7509,7.7289,7.7289,7.7289,7.7289,7.7289,7.7289,7.7215,7.6959,7.624,7.5946,7.5322,7.3817,7.2973,7.2716,7.3413,7.4294,7.5124,7.5836,7.6702,7.7289,7.7289,7.6592,7.5506,7.4001,7.3744,7.3377,7.2569,7.1857,7.105,7.0146,6.9449,6.7931,6.5398,6.5288,6.4517,6.2829,6.2793,6.2793,6.2793,6.2793,6.2793,6.2793,6.2793,6.2793,7.6623,7.7942,7.8754,7.8889,7.7299,7.483,7.1537,6.7387,6.3111,5.8976,5.625,5.4509,5.4303,5.6081,5.8437,6.1085,6.4708,6.8214,7.1017,7.2664,7.4366,7.6446,7.7271,7.806,7.9049,7.9748,8.0179,8.036,8.019,8.0056,7.9996,8.0015,8.0247,8.0821,8.1356,8.1717,8.1852,8.2055,8.217,8.2186,8.2186,8.2186,8.2186,8.1525,8.1232,8.1158,8.0498,8.0571,8.1232,8.1232,8.1599,8.2223,8.2333,8.1929,8.1232,8.1232,8.0277,7.8993,7.8846,7.8259,7.7656,7.8516,7.8332,7.7693,7.7582,7.7546,7.7509,7.7362,7.7289,7.7289,7.7289,7.7289,7.7289,7.7289,7.6775,7.6276,7.613,7.5065,7.3817,7.2899,7.2606,7.2532,7.2679,7.3927,7.494,7.5087,7.6371,7.7289,7.7289,7.6592,7.5726,7.4793,7.4111,7.3377,7.2569,7.2386,7.1651,7.0183,6.9963,6.8495,6.5435,6.5288,6.4517,6.2829,6.2793,6.2793,6.2793,6.2793,6.2793,6.2793,6.2793,6.2793,7.7696,7.8551,7.8948,7.8258,7.6042,7.2869,6.8579,6.4021,5.9488,5.5213,5.2661,5.1378,5.1946,5.3917,5.6458,5.9423,6.3084,6.6454,6.9063,7.1528,7.3766,7.5734,7.7411,7.871,7.9522,8.0334,8.0803,8.0803,8.0912,8.0876,8.0675,8.0822,8.1109,8.1478,8.1349,8.135,8.1432,8.1126,8.0954,8.0954,8.1379,8.1562,8.1562,8.1195,8.1012,8.0975,8.0131,8.0036,8.0388,8.0828,8.0975,8.0991,8.1415,8.1085,8.0314,7.991,7.925,7.8552,7.8075,7.7656,7.7362,7.7803,7.7656,7.7289,7.7289,7.7289,7.7289,7.7289,7.7289,7.7289,7.7289,7.7289,7.7179,7.6775,7.5726,7.4845,7.4845,7.3927,7.2973,7.2569,7.2496,7.2496,7.2496,7.3839,7.4903,7.4903,7.6261,7.7289,7.7289,7.6959,7.6408,7.5616,7.4808,7.4001,7.3193,7.2753,7.1798,7.0183,7.011,6.8825,6.6035,6.5508,6.4701,6.3503,6.3013,6.2793,6.2793,6.2793,6.2793,6.2793,6.2793,6.2793,7.7938,7.8641,7.8908,7.7451,7.4638,7.0806,6.5548,6.069,5.6082,5.1718,4.9396,4.8536,4.9818,5.1639,5.4074,5.7478,6.078,6.3791,6.6358,6.9596,7.242,7.4375,7.671,7.8629,7.9788,8.0459,8.0911,8.1146,8.1375,8.1427,8.1217,8.1495,8.1678,8.1629,8.1077,8.0756,8.0755,8.011,7.9816,7.9816,8.0608,8.1012,8.1012,8.0828,8.0755,8.0681,7.969,7.9376,7.9596,8.0241,8.0204,7.9853,8.0498,8.0241,7.9486,7.8809,7.8479,7.8222,7.7546,7.7289,7.7289,7.7289,7.7289,7.7289,7.7289,7.7289,7.7289,7.7289,7.7289,7.7289,7.7289,7.7289,7.7069,7.6093,7.4735,7.3648,7.3487,7.2936,7.2496,7.2496,7.2496,7.2496,7.2496,7.3839,7.4903,7.4903,7.6261,7.7289,7.7289,7.7289,7.7069,7.6408,7.5491,7.4588,7.378,7.2973,7.1798,7.0183,7.011,6.9009,6.6586,6.5742,6.4934,6.4139,6.3233,6.2793,6.2793,6.2793,6.2793,6.2793,6.2793,6.2793,7.775,7.9055,7.9248,7.7319,7.4138,6.9748,6.3091,5.8015,5.3329,4.837,4.6808,4.6718,4.7996,4.9673,5.1787,5.4563,5.7103,5.9637,6.2181,6.5938,6.956,7.2565,7.5044,7.7398,7.968,7.9969,8.0402,8.1321,8.1649,8.1768,8.1544,8.1768,8.154,8.0808,8.0935,8.0629,7.9926,7.9853,7.9816,7.9816,8.0608,8.1012,8.0975,8.0257,7.9926,7.9816,7.8206,7.7986,7.8699,7.8772,7.9213,7.9816,7.989,7.9412,7.8699,7.8626,7.8112,7.7399,7.7326,7.7289,7.7289,7.7289,7.7289,7.7289,7.7289,7.7289,7.7289,7.7289,7.7289,7.7289,7.7289,7.7289,7.6922,7.538,7.4331,7.3487,7.2789,7.2569,7.2496,7.2496,7.2496,7.2496,7.2496,7.3839,7.4903,7.4903,7.6261,7.7289,7.7289,7.7289,7.7289,7.7215,7.5821,7.4588,7.378,7.2973,7.1798,7.0183,7.011,6.9009,6.6586,6.5742,6.4934,6.4139,6.3233,6.2793,6.2793,6.2793,6.2793,6.2793,6.2793,6.2793,7.5565,7.6718,7.6758,7.547,7.1953,6.7223,6.1205,5.6147,5.1405,4.6835,4.5457,4.5268,4.5839,4.7489,4.9403,5.1428,5.3869,5.6329,5.8769,6.2983,6.6858,6.9575,7.3253,7.6348,7.8267,7.9458,8.052,8.163,8.1818,8.1902,8.1952,8.2055,8.1721,8.0898,8.0502,7.9874,7.9082,7.8552,7.8295,7.8332,7.9653,8.0277,8.0277,8.0461,8.0241,7.9743,7.8589,7.7986,7.7839,7.8369,7.8479,7.8369,7.8883,7.8552,7.7803,7.7803,7.7582,7.7289,7.7289,7.7289,7.7289,7.7289,7.7289,7.7289,7.7289,7.7289,7.7289,7.7289,7.7289,7.7289,7.7289,7.6592,7.5564,7.4441,7.356,7.2899,7.2569,7.2496,7.2496,7.2496,7.2496,7.2496,7.2496,7.3839,7.4903,7.4903,7.6261,7.7289,7.7289,7.7289,7.7105,7.6628,7.5564,7.4757,7.4441,7.323,7.1798,7.0183,7.011,6.9229,6.7297,6.6439,6.5632,6.4861,6.4016,6.3319,6.2793,6.2793,6.2793,6.2793,6.2793,6.2793,7.1882,7.3488,7.3919,7.2507,6.9026,6.441,5.8652,5.3612,4.9047,4.5106,4.3658,4.3305,4.3896,4.5173,4.6813,4.8908,5.1156,5.353,5.6138,6.0448,6.4323,6.6952,7.1308,7.4856,7.6722,7.8957,8.0776,8.1832,8.1935,8.2055,8.2186,8.2186,8.1819,8.1048,8.0461,7.9764,7.8956,7.8369,7.8023,7.806,7.947,8.0131,8.0167,8.0755,8.0571,7.9779,7.8956,7.8112,7.7362,7.7949,7.7839,7.7362,7.7986,7.7839,7.7289,7.7289,7.7289,7.7289,7.7289,7.7289,7.7289,7.7289,7.7289,7.7289,7.7289,7.7289,7.7289,7.7289,7.7289,7.7252,7.6995,7.5931,7.4683,7.3891,7.3083,7.2496,7.2496,7.2496,7.2496,7.2496,7.2496,7.2496,7.2496,7.3634,7.461,7.4867,7.6078,7.7032,7.7289,7.7105,7.6738,7.6166,7.5175,7.4551,7.4551,7.3303,7.1798,7.0183,7.011,6.9389,6.7774,6.6916,6.6109,6.5325,6.4494,6.3686,6.2793,6.2793,6.2793,6.2793,6.2793,6.2793,6.6643,6.9625,7.1099,6.8502,6.5494,6.1466,5.5108,5.0123,4.5961,4.2786,4.1084,4.0635,4.2322,4.2794,4.4015,4.7218,4.9075,5.126,5.4472,5.8334,6.2028,6.5229,6.9307,7.2777,7.5196,7.8601,8.1044,8.1849,8.2088,8.2186,8.2186,8.2186,8.1819,8.1048,8.1012,8.0608,7.9816,7.9779,7.9779,7.9779,8.0608,8.1012,8.1012,8.1012,8.0571,7.9779,7.8956,7.8112,7.7289,7.7326,7.7326,7.7289,7.7326,7.7326,7.7289,7.7289,7.7289,7.7289,7.7289,7.7289,7.7289,7.7289,7.7289,7.7289,7.7289,7.7289,7.7289,7.7289,7.7289,7.7105,7.6313,7.5506,7.4683,7.3891,7.3083,7.2496,7.2496,7.2496,7.2496,7.2496,7.2496,7.2496,7.2496,7.3156,7.3964,7.4793,7.5579,7.6423,7.7215,7.6592,7.6093,7.6093,7.4661,7.3707,7.3707,7.2973,7.1798,7.0183,7.011,6.9389,6.7774,6.6916,6.6109,6.5325,6.4494,6.3686,6.2793,6.2793,6.2793,6.2793,6.2793,6.2793,6.095,6.3249,6.4251,6.2701,6.025,5.71,5.263,4.8448,4.4746,4.2153,4.0908,4.0472,4.0996,4.164,4.2945,4.5635,4.7409,4.9401,5.2045,5.5848,5.9542,6.2752,6.9219,7.4472,7.7137,7.9406,8.1093,8.2031,8.2154,8.1966,8.1415,8.1379,8.1269,8.1012,8.1012,8.0608,7.9816,7.9816,7.9816,7.9816,8.0608,8.1012,8.1012,8.1562,8.1085,7.9779,7.9522,7.8626,7.7289,7.7289,7.7289,7.7289,7.7289,7.7289,7.7289,7.7289,7.7289,7.7289,7.7289,7.7289,7.7289,7.7289,7.7289,7.7289,7.7289,7.7289,7.7289,7.7289,7.7289,7.6995,7.5637,7.5087,7.4573,7.3193,7.2679,7.2496,7.2496,7.2496,7.2496,7.2496,7.2496,7.2496,7.2496,7.3156,7.378,7.4037,7.4771,7.538,7.5637,7.5417,7.5065,7.4515,7.4015,7.3722,7.3722,7.2973,7.1798,7.0183,7.011,6.9389,6.7774,6.748,6.6659,6.5325,6.5031,6.4224,6.2793,6.2793,6.2793,6.2793,6.2793,6.2793,5.4345,5.6797,5.7727,5.666,5.4733,5.2258,4.9186,4.5703,4.2661,4.091,4.0229,4.005,4.0357,4.1107,4.2501,4.491,4.6649,4.8641,5.1357,5.4907,5.9015,6.3875,6.9813,7.477,7.8071,7.9604,8.0862,8.2113,8.1929,8.1525,8.1048,8.0718,8.0534,8.0534,8.0534,8.0314,7.9816,7.9816,7.9816,7.9816,8.0314,8.0534,8.0571,8.1064,8.0587,7.9339,7.9339,7.8589,0.0,7.7289,7.7289,7.7289,7.7289,7.7289,7.7289,7.7289,7.7289,7.7289,7.7289,7.7289,7.7289,7.7289,7.7105,7.6775,7.6481,7.6812,7.7289,7.7289,7.7289,7.6922,7.5307,7.4903,7.45,7.2899,7.2496,7.2496,7.2496,7.2496,7.2496,7.2496,7.2496,7.2496,7.2496,7.2936,7.334,7.3648,7.4147,7.4551,7.4867,7.4647,7.4258,7.3758,7.3413,7.323,7.323,7.2789,7.1798,7.0183,7.011,6.9389,6.7774,6.77,6.71,6.5778,6.5435,6.4628,6.3282,6.2976,6.2793,6.2793,6.2793,6.2793,0.0,5.0199,5.1584,5.0465,4.896,4.721,4.5043,4.2298,0.0,3.9256,3.9184,3.9472,4.0257,4.1116,4.2501,4.491,4.6649,4.8811,5.1973,5.5377,6.0254,6.7539,7.0749,7.4006,7.817,7.9339,8.0477,8.2076,8.1452,8.0975,8.0938,8.0131,7.9706,7.9633,7.9633,7.9669,7.9816,7.9816,7.9816,7.9816,7.9816,7.9816,7.9816,7.9816,7.9376,7.8589,7.8589,7.8112,7.7289,7.7289,7.7289,7.7289,7.7289,7.7289,7.7215,7.7215,7.7179,7.7142,7.7142,7.7142,7.7142,7.7142,7.6628,7.5873,7.5124,7.5968,7.7215,7.7142,7.7179,7.6848,7.5234,7.4793,7.4426,7.2863,7.2496,7.2496,7.2496,7.2496,7.2496,7.2496,7.2496,7.2496,7.2496,7.2496,7.2753,7.3487,7.3597,7.3891,7.461,7.4074,7.3597,7.3597,7.2936,7.2496,7.2496,7.2496,7.1798,7.0183,7.011,6.9389,6.7774,6.77,6.7333,6.6512,6.5668,6.4824,6.4029,6.3196,6.2793,6.2793,6.2793,6.2793,3.9544,0.0,4.5165,4.4591,4.3989,4.3305,0.0,4.0786,3.9445,3.9372,3.9325,3.9596,4.0347,4.1153,4.2501,4.491,4.6649,4.8594,5.1224,5.6935,6.2563,6.7028,7.0822,7.4522,7.8227,7.9339,8.0477,8.2076,8.1452,8.0718,8.011,7.9323,7.8589,7.7913,7.7876,7.8516,7.9779,7.9816,7.9816,7.9816,7.9816,7.9816,7.9816,7.9816,7.9376,7.8589,7.8589,7.8112,7.7289,7.7289,7.7289,7.7289,7.7289,7.6922,7.6387,7.6387,7.5968,7.5454,7.5454,7.5454,7.5454,7.5454,7.5344,7.516,7.494,7.5601,7.624,7.5637,7.5894,7.6019,7.4404,7.3964,7.3744,7.2753,7.2496,7.2496,7.2496,7.2496,7.2496,7.2496,7.2496,7.2496,7.2496,7.2496,7.2569,7.2753,7.2789,7.2863,7.3046,7.2899,7.2789,7.2789,7.2606,7.2496,7.2496,7.2496,7.1798,7.0183,7.011,6.9389,6.7774,6.77,6.7333,6.6512,6.5118,6.3943,6.3086,6.2903,6.2793,6.2793,6.2793,6.2793,3.6199,3.873,4.114,4.1086,4.0785,4.0459,4.0376,3.9445,3.8634,3.8809,3.9405,4.0021,4.0447,4.175,4.3452,4.5526,4.7182,4.9716,5.3965,5.9636,6.4471,6.748,7.1165,7.468,7.7729,7.9103,8.033,8.1562,8.0901,8.0094,7.9302,7.8479,7.7803,7.7326,7.7289,7.7729,7.8626,7.8662,7.8662,7.8662,7.8662,7.8662,7.8662,7.8662,7.8405,7.7986,7.7986,7.7729,7.7289,7.7289,7.7289,7.7252,7.6885,7.6497,7.6056,7.5689,7.527,7.4903,7.4903,7.4903,7.4845,7.4551,7.4419,7.4412,7.4116,7.4572,7.5169,7.4948,7.5197,7.5249,7.4001,7.3722,7.3487,7.2679,7.2496,7.2496,7.2496,7.2496,7.2496,7.2496,7.2496,7.2496,7.2496,7.2496,7.2496,7.2496,7.2496,7.2496,7.2496,7.2496,7.2496,7.2496,7.2496,7.2496,7.2496,7.2151,7.1431,7.0183,6.9743,6.8972,6.7737,6.77,6.7333,6.6512,6.5264,6.4237,6.3392,6.3013,6.2793,6.2793,6.2793,6.2793,3.5059,3.6813,3.8594,3.8999,3.876,3.8529,3.886,3.8384,3.8005,3.8329,3.9514,4.0591,4.0809,4.2737,4.4838,4.6566,4.8703,5.2226,5.8168,6.2675,6.6313,6.8814,7.1992,7.4925,7.7289,7.8772,7.9963,8.0755,8.0057,7.9339,7.8626,7.7766,7.7289,7.7289,7.7289,7.7289,7.7289,7.7289,7.7289,7.7289,7.7289,7.7289,7.7289,7.7289,7.7289,7.7289,7.7289,7.7289,7.7289,7.7289,7.7252,7.7069,7.6387,7.5946,7.5652,7.4992,7.4647,7.4551,7.4566,7.4596,7.4493,7.3953,7.3802,7.3762,7.3235,7.3558,7.4155,7.4564,7.4742,7.461,7.3817,7.3582,7.3383,7.2671,7.251,7.2496,7.2496,7.2496,7.2496,7.2496,7.2496,7.2496,7.2496,7.2496,7.2496,7.2496,7.2496,7.2496,7.2496,7.2496,7.2496,7.2496,7.2496,7.2459,7.2349,7.1564,7.077,6.9963,6.9302,6.8531,6.7737,6.77,6.7333,6.6512,6.5692,6.4897,6.4103,6.3246,6.2793,6.2793,6.2793,6.2793,3.4365,3.5606,3.6776,3.7532,3.7715,3.7819,3.8113,3.8065,3.8208,3.9071,3.9912,4.0917,4.2266,4.3942,4.5888,4.8159,5.2697,5.7275,6.1069,6.5121,6.867,7.1392,7.3976,7.6322,7.8206,7.8626,7.9103,7.9926,7.925,7.8736,7.8589,7.7766,7.7289,7.7289,7.7289,7.7289,7.7289,7.7289,7.7289,7.7289,7.7289,7.7289,7.7289,7.7289,7.7289,7.7289,7.7289,7.7289,7.7289,7.7289,7.6885,7.6276,7.6166,7.5285,7.4037,7.3927,7.345,7.2877,7.2992,7.3097,7.3199,7.3225,7.3403,7.3562,7.3438,7.3513,7.3612,7.3684,7.4,7.4117,7.3319,7.2963,7.2828,7.2718,7.2582,7.2496,7.2496,7.2496,7.2496,7.2496,7.2496,7.2496,7.2496,7.2496,7.2496,7.2496,7.2496,7.2496,7.2496,7.2496,7.2496,7.2496,7.2496,7.2224,7.1527,7.077,6.9926,6.9155,6.8972,6.8531,6.7737,6.77,6.7333,6.6512,6.5692,6.4897,6.4103,6.3246,6.2793,6.2793,6.2793,6.2793,3.4361,3.5464,3.6622,3.8035,3.8393,3.8438,3.8625,3.8985,3.9445,3.9895,4.0963,4.2013,4.2747,4.5273,4.846,5.2154,5.6717,6.0791,6.3725,6.7352,7.0471,7.268,7.4768,7.6494,7.7766,7.8332,7.8736,7.9119,7.8809,7.8185,7.7304,7.6864,7.6445,7.6004,7.6004,7.6004,7.6004,7.6004,7.6445,7.7289,7.7289,7.7289,7.7289,7.7289,7.7069,7.6628,7.6628,7.6408,7.6004,7.6004,7.5784,7.5432,7.4955,7.439,7.3764,7.3445,7.3125,7.2826,7.2894,7.3057,7.3233,7.3376,7.3616,7.3836,7.3908,7.392,7.392,7.392,7.3776,7.3535,7.3128,7.2945,7.2849,7.2849,7.283,7.2788,7.2788,7.2788,7.2788,7.2788,7.2667,7.261,7.261,7.2539,7.2496,7.2496,7.2496,7.2496,7.2496,7.2553,7.261,7.261,7.2732,7.2443,7.1595,7.0785,6.9723,6.8325,6.8238,6.8104,6.7737,6.77,6.7517,6.715,6.6366,6.5597,6.4865,6.397,6.337,6.3002,6.3002,6.3002,3.4481,3.551,3.6682,3.8742,3.9193,3.9257,3.968,4.0393,4.1098,4.1524,4.2737,4.387,4.4232,4.7591,5.1817,5.6391,6.0326,6.3814,6.6618,6.9734,7.2312,7.3933,7.543,7.6628,7.7252,7.7913,7.8222,7.8038,7.8002,7.7378,7.5909,7.5836,7.5542,7.4903,7.4903,7.4903,7.4903,7.4903,7.5527,7.6738,7.6738,7.6738,7.6738,7.6738,7.6408,7.5836,7.5836,7.5469,7.4903,7.4903,7.4793,7.4551,7.3927,7.3647,7.3584,7.3148,7.304,7.3124,7.3151,7.3374,7.3616,7.3752,7.4015,7.4316,7.4405,7.4427,7.4427,7.4427,7.392,7.3363,7.3335,7.3254,7.3148,7.3145,7.3145,7.3108,7.3108,7.3108,7.3108,7.3108,7.2972,7.2826,7.2826,7.2751,7.2653,7.2653,7.2624,7.261,7.2638,7.2737,7.2835,7.2867,7.3027,7.2701,7.1651,7.0652,6.9438,6.7986,6.7807,6.7754,6.7754,6.7754,6.7754,6.7754,6.6969,6.63,6.5814,6.4832,6.4081,6.362,6.3421,6.3359,3.4447,3.5266,3.6187,3.8747,3.9299,3.9607,4.1171,4.2148,4.3136,4.4657,4.5635,4.6721,4.8196,5.1744,5.5763,5.9783,6.32,6.654,7.004,7.2623,7.4607,7.5791,7.6702,7.7252,7.7289,7.7362,7.7069,7.635,7.6276,7.5909,7.5014,7.4977,7.494,7.4903,7.4903,7.4903,7.4903,7.4903,7.494,7.505,7.505,7.505,7.505,7.505,7.505,7.4977,7.4977,7.494,7.4903,7.4903,7.4478,7.3795,7.3707,7.3317,7.2797,7.2927,7.304,7.3138,7.332,7.3591,7.3884,7.409,7.448,7.4843,7.4854,7.4854,7.4854,7.4854,7.4563,7.418,7.3983,7.3789,7.3616,7.3565,7.349,7.3452,7.3452,7.3452,7.3452,7.3452,7.335,7.3259,7.3259,7.3164,7.3071,7.3071,7.3,7.3009,7.3057,7.3071,7.3191,7.3414,7.3452,7.2819,7.1268,6.9667,6.8639,6.8432,6.8083,6.7899,6.7899,6.7899,6.7899,6.7899,6.7089,6.6712,6.6814,6.543,6.4799,6.4849,6.4165,6.3835,3.4544,3.5289,3.624,3.9325,4.0429,4.1171,4.2836,4.4584,4.6214,4.729,4.817,4.9365,5.1502,5.4327,5.7623,6.1643,6.5424,6.8869,7.1799,7.391,7.5546,7.6621,7.7044,7.7289,7.7289,7.6848,7.6423,7.613,7.5652,7.4992,7.4184,7.4147,7.3927,7.3399,7.3413,7.3413,7.3413,7.3413,7.3413,7.3413,7.4426,7.4903,7.4903,7.4903,7.461,7.4147,7.4147,7.3854,7.3413,7.3413,7.323,7.2951,7.3188,7.3121,7.2976,7.3268,7.354,7.3802,7.3851,7.4125,7.4405,7.4487,7.4754,7.5084,7.5084,7.5133,7.5142,7.5142,7.5017,7.4774,7.4294,7.4076,7.392,7.391,7.3958,7.3991,7.3991,7.3991,7.3991,7.3991,7.3824,7.3678,7.3678,7.3566,7.3478,7.3478,7.344,7.3427,7.3465,7.3541,7.3666,7.386,7.3103,7.2308,7.1602,6.9911,6.8885,6.8809,6.8481,6.8259,6.8259,6.8259,6.8259,6.8259,6.8,6.7701,6.7312,6.6385,6.5737,6.5376,6.4615,6.4289,3.4631,3.5519,3.6672,4.004,4.1859,4.338,4.55,4.7482,4.9209,5.0513,5.1611,5.2854,5.4508,5.6754,5.9579,6.3359,6.6909,7.0086,7.2652,7.4483,7.5896,7.6653,7.683,7.6922,7.6922,7.6188,7.5616,7.5359,7.4845,7.4074,7.301,7.2936,7.2569,7.1762,7.1725,7.1725,7.1725,7.1725,7.1725,7.1762,7.2863,7.3656,7.4133,7.4133,7.3854,7.3303,7.3303,7.301,7.2496,7.2496,7.251,7.2596,7.2941,7.3108,7.3217,7.3488,7.3864,7.4186,7.4186,7.4436,7.4691,7.4691,7.4917,7.52,7.52,7.5237,7.532,7.532,7.5246,7.5085,7.4674,7.4493,7.4383,7.4312,7.4438,7.4525,7.4525,7.4525,7.4525,7.4525,7.4323,7.4188,7.4188,7.4047,7.3977,7.3977,7.3942,7.393,7.3965,7.4047,7.4199,7.4367,7.3305,7.2422,7.2044,7.065,6.9652,6.9283,6.9045,6.8832,6.8672,6.866,6.866,6.866,6.8705,6.8533,6.8139,6.748,6.6827,6.6191,6.5454,6.497,3.4769,3.6,3.7536,4.0872,4.3524,4.6142,4.9412,5.0753,5.2021,5.4436,5.6138,5.7224,5.7224,5.9216,6.1847,6.5084,6.7634,7.0086,7.2652,7.4483,7.5677,7.5848,7.6002,7.6093,7.6093,7.5359,7.4536,7.3758,7.3685,7.2973,7.138,7.1307,7.094,7.0124,7.0124,7.0124,7.0124,7.0124,7.0124,7.0124,7.0124,7.0917,7.2496,7.2496,7.2496,7.2496,7.2496,7.2496,7.2496,7.2496,7.2582,7.2751,7.3091,7.3292,7.3411,7.3577,7.3876,7.4197,7.4197,7.4447,7.4701,7.4701,7.4917,7.52,7.52,7.5237,7.5281,7.5281,7.5246,7.52,7.52,7.5095,7.4959,7.4839,7.4899,7.4979,7.4979,7.4979,7.4979,7.4979,7.4889,7.4809,7.4809,7.4688,7.4615,7.4615,7.4493,7.446,7.4605,7.4615,7.4709,7.4959,7.4325,7.3506,7.2567,7.1759,7.0877,6.9863,6.9816,6.9554,6.9034,6.9012,6.9012,6.9012,6.9012,6.9122,6.9309,6.8693,6.8101,6.7505,6.6764,6.5968,3.507,3.6926,3.9129,4.184,4.4367,4.7265,5.1647,5.3241,5.4508,5.6862,5.8166,5.8891,5.8891,6.0846,6.3345,6.6025,6.8467,7.0739,7.273,7.3994,7.4822,7.5043,7.5159,7.527,7.527,7.4515,7.3707,7.2936,7.2349,7.1578,7.0513,7.0537,7.0482,7.0262,7.032,7.0374,7.0374,7.0374,7.0374,7.0374,7.0481,7.0968,7.1807,7.1807,7.2171,7.2821,7.218,7.1922,7.1936,7.2032,7.2553,7.3272,7.3502,7.3678,7.3922,7.404,7.4354,7.4686,7.4686,7.4864,7.5064,7.5064,7.5142,7.5274,7.5274,7.5347,7.5427,7.5427,7.5448,7.5421,7.5421,7.5365,7.5301,7.5114,7.5152,7.5189,7.5189,7.5189,7.5189,7.5189,7.5142,7.5065,7.5065,7.5046,7.5026,7.5026,7.4997,7.4997,7.5026,7.5056,7.5123,7.5189,7.4557,7.3736,7.2808,7.1961,7.1116,7.0143,7.0067,6.9938,6.9564,6.9554,6.9554,6.9554,6.9661,6.9729,6.9787,6.9147,6.8739,6.8532,6.7205,6.6489,3.6037,3.8048,4.0348,4.3153,4.5898,4.9257,5.4399,5.6669,5.8117,5.9529,6.0738,6.1426,6.11,6.273,6.4722,6.6496,6.8585,7.0474,7.1837,7.3202,7.408,7.4187,7.4044,7.3949,7.3949,7.2936,7.2055,7.1578,7.1101,7.0491,6.9752,6.9814,6.98,6.9549,6.9678,6.978,6.983,6.983,6.983,6.983,6.9905,7.0301,7.1003,7.1183,7.1627,7.2188,7.1721,7.1487,7.1487,7.1664,7.21,7.2793,7.3236,7.3596,7.386,7.4265,7.4632,7.4955,7.4955,7.5064,7.52,7.52,7.5237,7.532,7.532,7.5392,7.5509,7.5509,7.5509,7.5509,7.5509,7.5509,7.5483,7.5358,7.5338,7.5383,7.5383,7.5383,7.5383,7.5383,7.5329,7.533,7.533,7.533,7.533,7.533,7.533,7.533,7.533,7.5338,7.5383,7.5383,7.4969,7.4328,7.3436,7.2893,7.2113,7.0879,7.0794,7.0551,7.0055,6.9974,6.9975,6.9975,7.003,7.0085,7.012,6.9701,6.9387,6.9047,6.8141,6.7515,3.7318,3.9291,4.1405,4.4601,4.8108,5.2093,5.7224,6.0326,6.21,6.2028,6.3273,6.4192,6.3432,6.4613,6.5989,6.6786,6.826,6.9578,7.0393,7.2033,7.3177,7.3192,7.2666,7.2275,7.2275,7.0954,7.0087,7.0027,7.0027,6.9678,6.8944,6.9065,6.8864,6.8257,6.8362,6.849,6.8616,6.8653,6.8653,6.8653,6.8702,6.9218,7.0057,7.0655,7.0945,7.0981,7.1101,7.116,7.1184,7.1289,7.149,7.1775,7.2611,7.3096,7.3446,7.4241,7.4715,7.4932,7.5008,7.5114,7.5228,7.5228,7.5255,7.5329,7.5329,7.5401,7.5509,7.5509,7.5509,7.5509,7.5509,7.5509,7.5509,7.5509,7.5509,7.5509,7.5509,7.5509,7.5509,7.5509,7.5509,7.5509,7.5509,7.5509,7.5509,7.5509,7.5509,7.5509,7.5509,7.5509,7.5509,7.5509,7.5509,7.5165,7.4269,7.4193,7.3476,7.1803,7.1688,7.1298,7.0449,7.0298,7.0211,7.0211,7.0211,7.0255,7.0294,7.0294,6.9955,6.9311,6.9234,6.8738,3.76,4.022,4.2972,4.5588,5.0995,5.6138,5.7985,6.0774,6.2766,6.2136,6.3273,6.4359,6.4178,6.5446,6.6822,6.7604,6.8152,6.8771,6.9705,7.0318,7.071,7.0824,7.072,7.0624,7.0624,7.0293,6.9871,6.9342,6.9319,6.8762,6.7518,6.769,6.7519,6.6937,6.7069,6.7265,6.7406,6.7406,6.7406,6.7406,6.812,6.8596,6.8822,6.9877,7.0499,7.069,7.0761,7.0857,7.0979,7.1,7.1501,7.2325,7.2535,7.2708,7.2937,7.3735,7.4163,7.4379,7.5027,7.532,7.5448,7.5448,7.5465,7.5474,7.5474,7.5492,7.5509,7.5509,7.5509,7.5509,7.5509,7.5509,7.5509,7.5509,7.5509,7.5509,7.5509,7.5509,7.5509,7.5509,7.5509,7.5509,7.5509,7.5509,7.5509,7.5509,7.5509,7.5509,7.5509,7.5509,7.5509,7.5509,7.5509,7.5165,7.4269,7.4193,7.3476,7.1803,7.1688,7.1298,7.0449,7.0378,7.0353,7.0353,7.0353,7.0361,7.0386,7.0386,7.0318,7.0143,6.9502,6.8738,3.8176,4.079,4.3942,4.8279,5.3023,5.6935,5.813,6.0303,6.1933,6.1521,6.3019,6.4504,6.4903,6.5663,6.6496,6.7278,6.792,6.8473,6.8961,6.96,7.0026,7.011,6.9743,6.955,6.9619,6.8937,6.8405,6.8105,6.78,6.7321,6.6683,6.6843,6.6924,6.6849,6.6981,6.7137,6.7268,6.7277,6.7277,6.7315,6.8214,6.8857,6.9265,6.9866,7.0204,7.0401,7.045,7.0507,7.0555,7.0555,7.0905,7.1499,7.1918,7.2133,7.2298,7.3175,7.3516,7.3674,7.4505,7.4807,7.4927,7.5356,7.5509,7.5509,7.5509,7.5509,7.5395,7.5013,7.4889,7.4775,7.4401,7.4287,7.4287,7.4287,7.4936,7.5509,7.5509,7.5509,7.5509,7.5509,7.5509,7.5509,7.5509,7.5509,7.5509,7.5509,7.5509,7.5509,7.5509,7.5509,7.5509,7.5509,7.5509,7.5318,7.4851,7.4813,7.4125,7.2414,7.2338,7.1756,7.0449,7.0411,7.0411,7.0411,7.0411,7.0411,7.0411,7.0411,7.0411,7.0372,6.996,6.954,3.8683,4.1515,4.5101,5.0861,5.4074,5.6223,5.784,5.9312,6.0435,6.0543,6.2512,6.441,6.5076,6.5344,6.5634,6.6352,6.7214,6.7814,6.7814,6.866,6.9279,6.9307,6.8733,6.8396,6.8528,6.7429,6.6716,6.6888,6.6388,6.6127,6.6163,6.6331,6.6517,6.6824,6.6935,6.7031,6.7013,6.7127,6.7127,6.7021,6.8172,6.9247,7.0229,7.0111,7.0111,7.0211,7.0229,7.0238,7.0238,7.0238,7.0272,7.0379,7.1104,7.1422,7.1573,7.2444,7.2788,7.2902,7.3705,7.4002,7.4125,7.4821,7.5051,7.5051,7.5051,7.5051,7.4936,7.4201,7.4002,7.3858,7.317,7.2979,7.2979,7.2979,7.4057,7.5051,7.5051,7.5051,7.5051,7.5051,7.5165,7.528,7.528,7.5395,7.5509,7.5509,7.5509,7.5509,7.5509,7.5509,7.5509,7.5509,7.5509,7.5509,7.5509,7.5509,7.486,7.3284,7.3093,7.2291,7.0678,7.0487,7.0411,7.0411,7.0411,7.0411,7.0411,7.0411,7.0411,7.0411,7.0411,7.0334,3.8736,4.3136,4.7772,5.0705,5.3277,5.545,5.7007,5.8058,5.8927,5.9602,6.1679,6.3423,6.3657,6.4252,6.4802,6.5036,6.5286,6.5467,6.5467,6.5747,6.5964,6.6081,6.6061,6.61,6.6223,6.6218,6.6244,6.6381,6.6429,6.6218,6.5735,6.5808,6.5719,6.5317,6.5428,6.5218,6.4657,6.5345,6.5345,6.4696,6.6949,6.8858,7.0378,7.0361,7.0328,7.0307,7.0344,7.0378,7.0378,7.0378,7.0386,7.0394,7.0509,7.0555,7.0686,7.1565,7.1879,7.1994,7.2864,7.317,7.317,7.3284,7.3323,7.3323,7.3323,7.3323,7.3331,7.317,7.317,7.3132,7.3017,7.2979,7.2979,7.2979,7.3178,7.3323,7.3323,7.3323,7.3323,7.3323,7.3896,7.4384,7.4384,7.5013,7.5509,7.5509,7.5509,7.5509,7.5509,7.5509,7.5509,7.5509,7.5509,7.5509,7.5509,7.5509,7.5089,7.4087,7.3399,7.2567,7.1573,7.0801,7.0411,7.0411,7.0411,7.0411,7.0411,7.0411,7.0411,7.0411,7.0411,7.0029,3.9126,4.281,4.6359,4.9257,5.143,5.3313,5.487,5.6174,5.7261,5.8094,5.9535,6.1052,6.2463,6.3021,6.3607,6.463,6.4978,6.5124,6.5124,6.5369,6.5607,6.5669,6.5778,6.5944,6.6061,6.5933,6.5897,6.6011,6.577,6.5285,6.4565,6.4581,6.4372,6.3799,6.3808,6.3734,6.3465,6.4313,6.5268,6.63,6.737,6.8776,7.0411,7.0411,7.0394,7.0361,7.0394,7.0411,7.0411,7.0411,7.0411,7.0411,7.0411,7.0411,7.0449,7.0839,7.0954,7.1107,7.1947,7.2261,7.2338,7.2834,7.2979,7.2979,7.2979,7.2979,7.2902,7.2414,7.2261,7.2147,7.168,7.1527,7.1527,7.1527,7.1527,7.1527,7.1527,7.2291,7.2979,7.2979,7.3284,7.3514,7.3514,7.4201,7.4775,7.4775,7.5204,7.5509,7.5509,7.5509,7.5509,7.5509,7.5509,7.5509,7.5509,7.5509,7.4936,7.3628,7.3208,7.2406,7.103,7.0602,7.0411,7.0411,7.0411,7.0411,7.0411,7.0411,7.0411,7.0411,7.0411,7.022,3.9234,4.1823,4.4222,4.7218,4.9039,5.0572,5.2371,5.3832,5.51,5.6103,5.7059,5.8394,6.0715,6.147,6.2264,6.3897,6.431,6.4535,6.4795,6.5089,6.5292,6.5362,6.5531,6.5719,6.5839,6.5399,6.5172,6.5256,6.4664,6.4035,6.3457,6.3419,6.3226,6.2811,6.2818,6.2734,6.2579,6.3427,6.523,6.7905,6.7905,6.8776,7.0411,7.0411,7.0411,7.0411,7.0411,7.0411,7.0411,7.0411,7.0411,7.0411,7.0411,7.0411,7.0411,7.0411,7.0411,7.0487,7.1145,7.1374,7.1497,7.2138,7.2329,7.2329,7.2329,7.2329,7.2215,7.1565,7.1374,7.1221,7.0563,7.0411,7.0411,7.0411,7.0411,7.0411,7.0411,7.1412,7.2329,7.2329,7.252,7.2682,7.2682,7.3361,7.3972,7.4155,7.4736,7.5242,7.5471,7.5509,7.5509,7.5509,7.5509,7.5395,7.5204,7.5165,7.4554,7.3093,7.2796,7.21,7.0801,7.0525,7.0411,7.0411,7.0411,7.0411,7.0411,7.0411,7.0411,7.0411,7.0411,7.0411,3.879,4.0628,4.2393,4.4874,4.6106,4.7373,4.9738,5.0934,5.2019,5.3646,5.4614,5.5823,5.7831,5.9466,6.0919,6.2131,6.2348,6.2698,6.3654,6.3784,6.3909,6.4171,6.4359,6.4537,6.4586,6.4107,6.3778,6.3824,6.3147,6.2701,6.2671,6.2671,6.2718,6.2811,6.2818,6.2429,6.1669,6.2541,6.4649,6.7905,6.7905,6.8776,7.0411,7.0411,7.0411,7.0411,7.0411,7.0411,7.0411,7.0411,7.0411,7.0411,7.0411,7.0411,7.0411,7.0411,7.0411,7.0411,7.0449,7.0487,7.0487,7.0525,7.0525,7.0525,7.0525,7.0525,7.0525,7.0487,7.0487,7.0449,7.0411,7.0411,7.0411,7.0411,7.0411,7.0411,7.0411,7.0487,7.0525,7.0525,7.1183,7.1764,7.1764,7.249,7.3323,7.4078,7.4231,7.4584,7.5395,7.5509,7.5509,7.5509,7.5509,7.5165,7.4354,7.4269,7.3896,7.3055,7.2223,7.1726,7.165,7.0839,7.0411,7.0411,7.0411,7.0411,7.0411,7.0411,7.0411,7.0411,7.0411,7.0411,3.6717,3.8246,3.9912,4.175,4.3208,4.4703,4.6576,4.7715,4.8939,5.1053,5.1883,5.2998,5.5417,5.7541,5.9476,6.1204,6.1602,6.1848,6.2327,6.2516,6.269,6.2871,6.3065,6.3198,6.3224,6.3169,6.3107,6.3107,6.291,6.2536,6.2002,6.1963,6.1749,6.1251,6.1251,6.164,6.2426,6.3809,6.5643,6.7905,6.8478,6.9311,7.0411,7.0411,7.0411,7.0411,7.0411,7.0411,7.0411,7.0411,7.0411,7.0411,7.0411,7.0411,7.0411,7.0411,7.0411,7.0411,7.0411,7.0411,7.0411,7.0411,7.0411,7.0411,7.0411,7.0411,7.0411,7.0411,7.0411,7.0411,7.0411,7.0411,7.0411,7.0411,7.0411,7.0411,7.0411,7.0411,7.0411,7.0411,7.064,7.0877,7.0877,7.1603,7.2444,7.3284,7.3858,7.4507,7.5395,7.5509,7.5509,7.5509,7.5013,7.4545,7.4231,7.3743,7.3055,7.2223,7.1879,7.1459,7.0877,7.0563,7.0411,7.0411,7.0411,7.0411,7.0411,7.0411,7.0411,7.0411,7.0411,7.0411,3.5196,3.6182,3.7377,3.8934,4.032,4.1732,4.3317,4.4817,4.6422,4.827,4.9496,5.1006,5.3451,5.5432,5.754,6.0095,6.0661,6.1082,6.1854,6.2076,6.2228,6.2315,6.2504,6.2593,6.2593,6.246,6.2398,6.2398,6.2175,6.1822,6.1211,6.1211,6.1096,6.0797,6.0797,6.1745,6.3732,6.484,6.6369,6.8325,6.8929,6.9616,7.0411,7.0411,7.0411,7.0411,7.0411,7.0411,7.0411,7.0411,7.0411,7.0411,7.0411,7.0411,7.0411,7.0411,7.0411,7.0411,7.0411,7.0411,7.0411,7.0411,7.0411,7.0411,7.0411,7.0411,7.0411,7.0411,7.0411,7.0411,7.0411,7.0411,7.0411,7.0411,7.0411,7.0411,7.0411,7.0411,7.0411,7.0411,7.0411,7.0411,7.0411,7.0877,7.1573,7.2414,7.3017,7.3667,7.4554,7.4669,7.4669,7.4669,7.4125,7.3667,7.3399,7.2864,7.2185,7.1298,7.1259,7.0992,7.0411,7.0411,7.0411,7.0411,7.0411,7.0411,7.0411,7.0411,7.0411,7.0411,7.0411,7.0411,0.0,0.0,0.0,3.6552,3.7538,3.8544,4.0093,4.235,4.4424,4.5357,4.7497,4.9835,5.1836,5.3032,5.4968,5.8667,5.9403,6.0202,6.2091,6.2352,6.2393,6.2443,6.2574,6.2666,6.2666,6.1931,6.1478,6.1478,6.0752,6.0339,6.0339,6.0339,6.0759,6.1554,6.1631,6.2853,6.5375,6.5452,6.6713,6.9196,6.9234,6.9655,7.0411,7.0411,7.0411,7.0411,7.0411,7.0411,7.0411,7.0411,7.0411,7.0411,7.0411,7.0411,7.0411,7.0411,7.0411,7.0411,7.0411,7.0411,7.0411,7.0411,7.0411,7.0411,7.0411,7.0411,7.0411,7.0411,7.0411,7.0411,7.0411,7.0411,7.0411,7.0411,7.0411,7.0411,7.0411,7.0411,7.0411,7.0411,7.0411,7.0411,7.0411,7.0411,7.0678,7.1573,7.1688,7.1994,7.2911,7.2979,7.2979,7.2979,7.2987,7.2605,7.1764,7.1688,7.1298,7.0449,7.0411,7.0411,7.0411,7.0411,7.0411,7.0411,7.0411,7.0411,7.0411,7.0411,7.0411,7.0411,7.0411,7.0411,3.3683,0.0,0.0,0.0,0.0,0.0,3.8685,3.994,4.1492,4.3597,4.4701,4.622,4.9223,5.0167,5.1707,5.54,5.7141,5.824,5.8889,5.9002,5.9068,5.9185,5.9213,5.9272,5.9272,5.9057,5.8918,5.8918,5.8727,5.8574,5.8574,5.9147,6.0141,6.1554,6.2204,6.3465,6.5375,6.6598,6.7859,6.9196,6.9807,7.0181,7.0411,7.0411,7.0411,7.0411,7.0411,7.0411,7.0411,7.0411,7.0411,7.0411,7.0411,7.0411,7.0411,7.0411,7.0411,7.0411,7.0411,7.0411,7.0411,7.0411,7.0411,7.0411,7.0411,7.0411,7.0411,7.0411,7.0411,7.0411,7.0411,7.0411,7.0411,7.0411,7.0411,7.0411,7.0411,7.0411,7.0411,7.0411,7.0411,7.0411,7.0411,7.0411,7.0678,7.1573,7.1688,7.1994,7.2911,7.2979,7.2979,7.2979,7.2452,7.1956,7.1726,7.1107,7.064,7.0411,7.0411,7.0411,7.0411,7.0411,7.0411,7.0411,7.0411,7.0411,7.0411,7.0411,7.0411,7.0411,7.0411,7.0411,0.0,0.0,0.0,3.411,0.0,0.0,3.71,3.8259,3.967,4.152,4.2828,4.4351,4.672,4.7941,4.9417,5.2011,5.3754,5.545,5.7418,5.7434,5.7266,5.7351,5.7046,5.6855,5.6855,5.716,5.7358,5.7358,5.7695,5.7886,5.7886,5.8644,5.9866,6.1554,6.2464,6.4038,6.6407,6.7408,6.8516,6.9731,7.0181,7.0411,7.0411,7.0411,7.0411,7.0411,7.0411,7.0411,7.0372,7.0029,7.0113,7.0411,7.0411,7.0411,7.0411,7.0411,7.0411,7.0411,7.0411,7.0411,7.0411,7.0411,7.0411,7.0411,7.0411,7.0411,7.0411,7.0411,7.0411,7.0411,7.0411,7.0411,7.0411,7.0411,7.0411,7.0411,7.0411,7.0411,7.0411,7.0411,7.0411,7.0411,7.0411,7.0411,7.0563,7.1068,7.1145,7.1336,7.1833,7.1909,7.1909,7.1909,7.145,7.1145,7.1145,7.0686,7.0411,7.0411,7.0411,7.0411,7.0411,7.0411,7.0411,7.0411,7.0411,7.0411,7.0411,7.0411,7.0411,7.0411,7.0411,7.0411,0.0,0.0,0.0,0.0,3.4083,0.0,3.5721,3.7184,3.8638,3.9597,4.1576,4.3393,4.4416,4.5983,4.7578,4.8838,4.9943,5.2153,5.6477,5.6572,5.6167,5.6173,5.5556,5.5091,5.5091,5.5747,5.6173,5.6173,5.6969,5.7504,5.7619,5.8491,5.9713,6.1402,6.2395,6.442,6.7599,6.7828,6.8699,7.0258,7.0372,7.0334,7.0258,7.0258,7.022,7.0105,7.0105,7.0105,7.0067,6.9349,6.954,7.0258,7.0143,7.0105,7.0143,7.022,7.0258,7.0296,7.0372,7.0411,7.0411,7.0411,7.0411,7.0411,7.0411,7.0411,7.0411,7.0411,7.0411,7.0411,7.0411,7.0411,7.0411,7.0411,7.0411,7.0411,7.0411,7.0411,7.0411,7.0411,7.0411,7.0411,7.0411,7.0411,7.0411,7.0411,7.0411,7.0411,7.0411,7.0411,7.0411,7.0411,7.0411,7.0411,7.0411,7.0411,7.0411,7.0411,7.0411,7.0411,7.0411,7.0411,7.0411,7.0411,7.0411,7.0411,7.0411,7.0411,7.0411,7.0411,7.0411,7.0411,0.0,0.0,0.0,3.3574,3.4164,0.0,3.5871,3.6815,3.7987,3.9567,4.0259,4.1071,4.2595,4.3335,4.4456,4.6875,4.7619,4.8999,5.2213,5.3105,5.3468,5.3531,5.3384,5.3301,5.3301,5.346,5.3537,5.3537,5.4333,5.5135,5.5855,5.7313,5.888,6.0568,6.2128,6.3847,6.5872,6.7217,6.844,6.9425,7.0105,7.0067,6.9425,6.9425,6.9043,6.8394,6.8394,6.8394,6.8402,6.8211,6.8661,6.9349,6.8661,6.8394,6.847,6.9196,6.9425,6.954,7.0181,7.0411,7.0411,7.0411,7.0411,7.0411,7.0411,7.0411,7.0411,7.0411,7.0411,7.0411,7.0411,7.0411,7.0411,7.0411,7.0411,7.0411,7.0411,7.0411,7.0411,7.0411,7.0411,7.0411,7.0411,7.0411,7.0411,7.0411,7.0411,7.0411,7.0411,7.0411,7.0411,7.0411,7.0411,7.0411,7.0411,7.0411,7.0411,7.0411,7.0411,7.0411,7.0411,7.0411,7.0411,7.0411,7.0411,7.0411,7.0411,7.0411,7.0411,7.0411,7.0411,7.0411,3.3696,3.3587,3.3587,3.3587,3.3943,0.0,0.0,3.5842,3.6531,3.7837,3.8403,3.8969,3.9787,4.0714,4.1837,4.3282,4.4348,4.5559,4.7141,4.9309,5.0774,5.0842,5.0491,5.0274,5.0274,5.0691,5.1129,5.1505,5.2346,5.3028,5.3486,5.5517,5.7237,5.8466,6.0561,6.2662,6.4771,6.6025,6.7286,6.8555,6.8967,6.8929,6.8555,6.8555,6.8325,6.7905,6.7905,6.7905,6.7867,6.7477,6.7553,6.7935,6.7905,6.7905,6.7943,6.8402,6.8555,6.8631,6.9005,6.9158,6.9158,6.9158,6.9158,6.9158,6.9158,6.9464,6.9807,6.9807,7.0105,7.0411,7.0411,7.0411,7.0411,7.0411,7.0411,7.0411,7.0411,7.0411,7.0411,7.0411,7.0411,7.0411,7.0411,7.0411,7.0411,7.0411,7.0411,7.0411,7.0411,7.0411,7.0411,7.0411,7.0411,7.0411,7.0411,7.0411,7.0411,7.0411,7.0411,7.0411,7.0411,7.0411,7.0411,7.0411,7.0411,7.0411,7.0411,7.0411,7.0411,7.0411,7.0411,7.0411,3.3855,3.3738,3.3841,3.3665,3.3787,3.4121,0.0,0.0,0.0,3.6119,3.6824,3.7272,3.7272,3.8405,3.9394,3.9682,4.1103,4.2281,4.2697,4.5462,4.7612,4.8085,4.7568,4.7184,4.7196,4.7907,4.8629,4.9272,5.0271,5.0888,5.0888,5.341,5.5288,5.6097,5.8581,6.1065,6.3434,6.442,6.5757,6.7408,6.7599,6.7676,6.7676,6.7676,6.7599,6.7408,6.7408,6.7408,6.737,6.6713,6.6445,6.6522,6.7171,6.7408,6.7446,6.7599,6.7676,6.7668,6.7867,6.7905,6.7905,6.7905,6.7905,6.7905,6.7905,6.8402,6.8929,6.8929,6.9425,6.9922,6.9922,6.9922,6.9922,6.9922,6.9922,6.9922,6.9922,6.9922,6.9922,6.9922,6.9922,7.0029,7.0334,7.0411,7.0411,7.0411,7.0411,7.0334,7.0181,7.0181,7.0105,6.9952,7.0067,7.0181,7.0181,7.0296,7.0411,7.0411,7.0411,7.0411,7.0411,7.0411,7.0411,7.0411,7.0411,7.0411,7.0411,7.0411,7.0411,7.0411,7.0411,7.0411,3.4,3.4287,3.4683,3.3963,3.433,3.488,3.4954,0.0,3.5261,3.6119,0.0,3.6457,3.6457,0.0,0.0,3.7879,3.8815,3.9751,4.067,4.1777,4.3219,4.5122,4.5326,4.534,4.5397,4.5562,4.5666,4.578,4.7308,4.8214,4.8214,5.1314,5.3492,5.4371,5.6855,5.9039,6.0797,6.2395,6.4031,6.5681,6.6483,6.6827,6.6827,6.6827,6.6407,6.5681,6.5681,6.5681,6.5681,6.5605,6.5566,6.5566,6.5643,6.5681,6.5796,6.656,6.6827,6.6942,6.7637,6.7905,6.7905,6.7905,6.7905,6.7905,6.7905,6.7981,6.8058,6.8058,6.8096,6.8172,6.8172,6.8172,6.8172,6.8172,6.8172,6.8172,6.8172,6.8172,6.8172,6.8172,6.8172,6.8661,7.0143,7.0411,7.0411,7.0411,7.0411,7.0143,6.9425,6.9349,6.9043,6.8287,6.889,6.9349,6.9349,6.999,7.0411,7.0411,7.0411,7.0411,7.0411,7.0411,7.0411,7.0411,7.0411,7.0411,7.0411,7.0411,7.0411,7.0411,7.0411,7.0411,3.5459,3.5495,3.5562,3.4718,3.4747,3.4887,3.4424,3.4314,3.4424,3.4761,0.0,0.0,0.0,0.0,0.0,0.0,3.6908,3.7657,3.8067,3.8484,3.9849,4.2812,4.324,4.3217,4.2933,4.2928,4.2965,4.2985,4.4156,4.5284,4.6309,4.8602,5.0512,5.1849,5.4371,5.6511,5.8161,6.0377,6.2051,6.3197,6.4573,6.5268,6.5261,6.5719,6.5757,6.5413,6.5413,6.5413,6.5413,6.5413,6.5413,6.5413,6.5413,6.5413,6.5452,6.5796,6.5948,6.5987,6.633,6.6445,6.6445,6.6445,6.6445,6.6445,6.6445,6.6789,6.7209,6.7209,6.7553,6.7905,6.7905,6.7905,6.7905,6.7905,6.7905,6.7905,6.7905,6.7905,6.7905,6.7905,6.7905,6.8134,6.8814,6.9387,6.9838,7.0334,6.999,6.9578,6.9234,6.8738,6.8325,6.7943,6.8249,6.8669,6.9158,6.9502,6.9914,7.0372,7.0411,7.0411,7.0411,7.0411,7.0411,7.0411,7.0411,7.0411,7.0411,7.0411,7.0411,7.0411,7.0411,7.0411,3.653,3.6457,3.6413,3.5555,3.5371,3.5151,3.4314,3.3954,3.3844,3.4094,3.413,0.0,0.0,0.0,3.5298,3.5034,0.0,3.6271,3.605,3.6302,3.7492,4.0147,4.0615,4.0563,4.016,4.0182,4.0245,4.0314,4.1373,4.2596,4.3864,4.5731,4.7526,4.9213,5.1505,5.3645,5.5524,5.7855,5.9529,6.0599,6.2326,6.3281,6.351,6.458,6.507,6.507,6.5299,6.5413,6.5413,6.5413,6.5413,6.5413,6.5413,6.5413,6.5413,6.5413,6.5413,6.5413,6.5413,6.5413,6.5413,6.5413,6.5413,6.5413,6.5413,6.5834,6.6323,6.6323,6.6751,6.7217,6.7217,6.7217,6.7217,6.7217,6.7217,6.7217,6.7217,6.7217,6.7217,6.7217,6.7217,6.7293,6.7515,6.8279,6.9043,6.9616,6.9234,6.8738,6.8547,6.7973,6.7485,6.7255,6.7446,6.7821,6.847,6.8929,6.954,7.0334,7.0411,7.0411,7.0411,7.0411,7.0411,7.0411,7.0411,7.0411,7.0411,7.0411,7.0411,7.0411,7.0411,7.0411,3.653,3.6861,3.7272,3.6457,3.6266,3.6046,3.5151,3.4351,3.4027,3.4814,3.4961,3.5224,3.6046,3.6229,0.0,0.0,3.5745,0.0,0.0,3.5752,3.6438,3.6829,3.7044,3.7194,3.722,3.737,3.7465,3.7603,3.9266,4.0334,4.0454,4.2784,4.489,4.6571,4.834,5.0441,5.2887,5.4677,5.6396,5.8039,5.9727,6.095,6.1745,6.3472,6.4236,6.4275,6.507,6.5413,6.5413,6.5413,6.5413,6.5413,6.5413,6.5413,6.5413,6.5413,6.5413,6.5413,6.5413,6.5413,6.5413,6.5413,6.5413,6.5413,6.5413,6.5413,6.5452,6.5452,6.5452,6.549,6.549,6.549,6.549,6.549,6.549,6.549,6.549,6.549,6.549,6.549,6.549,6.5757,6.6598,6.74,6.7943,6.7981,6.7943,6.7676,6.6865,6.6743,6.6407,6.5566,6.6254,6.6743,6.6781,6.8279,6.954,7.0334,7.0411,7.0411,7.0411,7.0411,7.0411,7.0411,7.0411,7.0411,7.0411,7.0411,7.0411,7.0411,7.0411,7.0411,3.9562,3.9276,3.8917,3.8102,3.7485,3.6861,3.6046,3.5642,3.5532,3.5789,3.5862,3.5936,3.6237,3.631,0.0,0.0,0.0,0.0,0.0,3.4468,3.4692,3.477,3.5935,3.6578,3.6204,3.6231,3.6421,3.6677,3.7291,3.8389,4.0186,4.1103,4.2555,4.4776,4.65,4.834,5.0327,5.2575,5.4524,5.6282,5.7925,5.946,6.0835,6.1975,6.3128,6.4198,6.4504,6.4917,6.5413,6.5413,6.5413,6.5413,6.5413,6.5413,6.5413,6.5413,6.5413,6.5413,6.5413,6.5413,6.5413,6.5413,6.5413,6.5413,6.5413,6.5796,6.6254,6.6254,6.6254,6.6254,6.6254,6.5834,6.5413,6.5413,6.5413,6.5413,6.5413,6.5413,6.5413,6.5413,6.5413,6.549,6.5796,6.6063,6.6606,6.7714,6.7439,6.7018,6.6743,6.6216,6.5719,6.5413,6.5643,6.6063,6.6628,6.8241,6.9311,6.9578,7.0105,7.0411,7.0411,7.0411,7.0411,7.0411,7.0411,7.0411,7.0411,7.0411,7.0411,7.0411,7.0411,7.0411,4.1095,4.0736,4.0194,3.9672,3.8726,3.7779,3.7257,3.6714,3.6384,3.6677,3.6714,3.6824,3.711,3.7147,0.0,0.0,0.0,0.0,0.0,3.3807,3.3807,3.3807,3.488,3.552,3.5197,3.5276,3.5459,3.5775,3.6117,3.7075,3.8845,3.9503,4.0726,4.2631,4.4584,4.6309,4.7728,5.0518,5.2461,5.3607,5.5594,5.7275,5.8651,6.0064,6.1669,6.3319,6.3931,6.4657,6.5413,6.5413,6.5413,6.5413,6.5413,6.5413,6.5413,6.5413,6.5413,6.5413,6.5413,6.5413,6.5413,6.5413,6.5413,6.5413,6.5413,6.6025,6.6705,6.6705,6.6904,6.7056,6.6789,6.6292,6.5796,6.5452,6.5413,6.5413,6.5413,6.5413,6.5413,6.5413,6.5413,6.5413,6.5413,6.5413,6.5757,6.6835,6.656,6.6254,6.6254,6.5757,6.5413,6.5413,6.5413,6.5757,6.6636,6.7706,6.8585,6.9158,6.9693,7.0105,7.0372,7.0411,7.0411,7.0411,7.0411,7.0427,7.0459,7.0459,7.0475,7.0507,7.0507,7.0507]}]]